<?xml version="1.0" encoding="UTF-8" standalone="no" ?>
<gpx xmlns="http://www.topografix.com/GPX/1/1" xmlns:xsi="http://www.w3.org/2001/XMLSchema-instance" xsi:schemaLocation="http://www.topografix.com/GPX/1/1 http://www.topografix.com/GPX/1/1/gpx.xsd" version="1.1" creator="VisuGPX - https://www.visugpx.com">
  <metadata>
    <name>Balade vélo départ lannion, via Pluzunet</name>
    <desc><![CDATA[Balade vélo au départ de Lannion, via Pluzunet]]></desc>
  </metadata>
  <trk>
    <name><![CDATA[31 oct. 2015 14:34:27]]></name>
    <cmt><![CDATA[31 oct. 2015 14:34:27]]></cmt>
    <trkseg>
      <trkpt lat="48.73635" lon="-3.46311">
        <ele>49.8</ele>
        <time>2015-10-31T13:34:28Z</time>
      </trkpt>
      <trkpt lat="48.73628" lon="-3.46331">
        <ele>4</ele>
        <time>2015-10-31T13:35:09Z</time>
      </trkpt>
      <trkpt lat="48.73615" lon="-3.46351">
        <ele>4</ele>
        <time>2015-10-31T13:35:13Z</time>
      </trkpt>
      <trkpt lat="48.73603" lon="-3.46373">
        <ele>4</ele>
        <time>2015-10-31T13:35:17Z</time>
      </trkpt>
      <trkpt lat="48.73594" lon="-3.46397">
        <ele>4</ele>
        <time>2015-10-31T13:35:22Z</time>
      </trkpt>
      <trkpt lat="48.73608" lon="-3.46413">
        <ele>3</ele>
        <time>2015-10-31T13:35:28Z</time>
      </trkpt>
      <trkpt lat="48.73616" lon="-3.46435">
        <ele>3</ele>
        <time>2015-10-31T13:35:34Z</time>
      </trkpt>
      <trkpt lat="48.73603" lon="-3.46448">
        <ele>3</ele>
        <time>2015-10-31T13:35:44Z</time>
      </trkpt>
      <trkpt lat="48.7359" lon="-3.46452">
        <ele>2</ele>
        <time>2015-10-31T13:35:47Z</time>
      </trkpt>
      <trkpt lat="48.73576" lon="-3.46457">
        <ele>2</ele>
        <time>2015-10-31T13:35:50Z</time>
      </trkpt>
      <trkpt lat="48.73568" lon="-3.46461">
        <ele>1</ele>
        <time>2015-10-31T13:35:52Z</time>
      </trkpt>
      <trkpt lat="48.73549" lon="-3.46469">
        <ele>1</ele>
        <time>2015-10-31T13:35:56Z</time>
      </trkpt>
      <trkpt lat="48.73533" lon="-3.46475">
        <ele>1</ele>
        <time>2015-10-31T13:35:59Z</time>
      </trkpt>
      <trkpt lat="48.7352" lon="-3.46479">
        <ele>36.8</ele>
        <time>2015-10-31T13:36:01Z</time>
      </trkpt>
      <trkpt lat="48.73505" lon="-3.46483">
        <ele>35.1</ele>
        <time>2015-10-31T13:36:03Z</time>
      </trkpt>
      <trkpt lat="48.73489" lon="-3.46489">
        <ele>33.6</ele>
        <time>2015-10-31T13:36:05Z</time>
      </trkpt>
      <trkpt lat="48.73481" lon="-3.46491">
        <ele>32.9</ele>
        <time>2015-10-31T13:36:06Z</time>
      </trkpt>
      <trkpt lat="48.73472" lon="-3.46494">
        <ele>32.2</ele>
        <time>2015-10-31T13:36:07Z</time>
      </trkpt>
      <trkpt lat="48.73463" lon="-3.46496">
        <ele>31.3</ele>
        <time>2015-10-31T13:36:08Z</time>
      </trkpt>
      <trkpt lat="48.73454" lon="-3.46496">
        <ele>30.3</ele>
        <time>2015-10-31T13:36:09Z</time>
      </trkpt>
      <trkpt lat="48.73444" lon="-3.46497">
        <ele>29.4</ele>
        <time>2015-10-31T13:36:10Z</time>
      </trkpt>
      <trkpt lat="48.73435" lon="-3.46496">
        <ele>28.7</ele>
        <time>2015-10-31T13:36:11Z</time>
      </trkpt>
      <trkpt lat="48.73426" lon="-3.46496">
        <ele>-1</ele>
        <time>2015-10-31T13:36:12Z</time>
      </trkpt>
      <trkpt lat="48.73411" lon="-3.46497">
        <ele>26.6</ele>
        <time>2015-10-31T13:36:14Z</time>
      </trkpt>
      <trkpt lat="48.73402" lon="-3.46516">
        <ele>-1</ele>
        <time>2015-10-31T13:36:17Z</time>
      </trkpt>
      <trkpt lat="48.73406" lon="-3.46531">
        <ele>-1</ele>
        <time>2015-10-31T13:36:19Z</time>
      </trkpt>
      <trkpt lat="48.73418" lon="-3.46548">
        <ele>-1</ele>
        <time>2015-10-31T13:36:22Z</time>
      </trkpt>
      <trkpt lat="48.73426" lon="-3.4656">
        <ele>-1</ele>
        <time>2015-10-31T13:36:24Z</time>
      </trkpt>
      <trkpt lat="48.73436" lon="-3.46578">
        <ele>-1</ele>
        <time>2015-10-31T13:36:27Z</time>
      </trkpt>
      <trkpt lat="48.73439" lon="-3.46591">
        <ele>-1</ele>
        <time>2015-10-31T13:36:30Z</time>
      </trkpt>
      <trkpt lat="48.73433" lon="-3.46601">
        <ele>-1</ele>
        <time>2015-10-31T13:36:33Z</time>
      </trkpt>
      <trkpt lat="48.73414" lon="-3.46609">
        <ele>-1</ele>
        <time>2015-10-31T13:36:37Z</time>
      </trkpt>
      <trkpt lat="48.73393" lon="-3.46611">
        <ele>-1</ele>
        <time>2015-10-31T13:36:40Z</time>
      </trkpt>
      <trkpt lat="48.73379" lon="-3.46613">
        <ele>-1</ele>
        <time>2015-10-31T13:36:42Z</time>
      </trkpt>
      <trkpt lat="48.73365" lon="-3.46614">
        <ele>-2</ele>
        <time>2015-10-31T13:36:44Z</time>
      </trkpt>
      <trkpt lat="48.7335" lon="-3.46612">
        <ele>-2</ele>
        <time>2015-10-31T13:36:46Z</time>
      </trkpt>
      <trkpt lat="48.73336" lon="-3.46603">
        <ele>-2</ele>
        <time>2015-10-31T13:36:48Z</time>
      </trkpt>
      <trkpt lat="48.73324" lon="-3.46587">
        <ele>-2</ele>
        <time>2015-10-31T13:36:50Z</time>
      </trkpt>
      <trkpt lat="48.73318" lon="-3.46578">
        <ele>-2</ele>
        <time>2015-10-31T13:36:51Z</time>
      </trkpt>
      <trkpt lat="48.73309" lon="-3.46556">
        <ele>-2</ele>
        <time>2015-10-31T13:36:53Z</time>
      </trkpt>
      <trkpt lat="48.73301" lon="-3.46534">
        <ele>-2</ele>
        <time>2015-10-31T13:36:55Z</time>
      </trkpt>
      <trkpt lat="48.73295" lon="-3.46512">
        <ele>-2</ele>
        <time>2015-10-31T13:36:57Z</time>
      </trkpt>
      <trkpt lat="48.73291" lon="-3.46489">
        <ele>-3</ele>
        <time>2015-10-31T13:36:59Z</time>
      </trkpt>
      <trkpt lat="48.73288" lon="-3.46466">
        <ele>-3</ele>
        <time>2015-10-31T13:37:01Z</time>
      </trkpt>
      <trkpt lat="48.73286" lon="-3.46443">
        <ele>-3</ele>
        <time>2015-10-31T13:37:03Z</time>
      </trkpt>
      <trkpt lat="48.73284" lon="-3.4641">
        <ele>-3</ele>
        <time>2015-10-31T13:37:06Z</time>
      </trkpt>
      <trkpt lat="48.73279" lon="-3.46364">
        <ele>-3</ele>
        <time>2015-10-31T13:37:10Z</time>
      </trkpt>
      <trkpt lat="48.73281" lon="-3.46338">
        <ele>-3</ele>
        <time>2015-10-31T13:37:12Z</time>
      </trkpt>
      <trkpt lat="48.73283" lon="-3.46313">
        <ele>-4</ele>
        <time>2015-10-31T13:37:14Z</time>
      </trkpt>
      <trkpt lat="48.7328" lon="-3.46281">
        <ele>-4</ele>
        <time>2015-10-31T13:37:17Z</time>
      </trkpt>
      <trkpt lat="48.73268" lon="-3.46262">
        <ele>-4</ele>
        <time>2015-10-31T13:37:21Z</time>
      </trkpt>
      <trkpt lat="48.7326" lon="-3.46261">
        <ele>-5</ele>
        <time>2015-10-31T13:37:25Z</time>
      </trkpt>
      <trkpt lat="48.73244" lon="-3.46269">
        <ele>-6</ele>
        <time>2015-10-31T13:37:32Z</time>
      </trkpt>
      <trkpt lat="48.7324" lon="-3.46244">
        <ele>-7</ele>
        <time>2015-10-31T13:37:36Z</time>
      </trkpt>
      <trkpt lat="48.73234" lon="-3.46219">
        <ele>-7</ele>
        <time>2015-10-31T13:37:40Z</time>
      </trkpt>
      <trkpt lat="48.73228" lon="-3.46211">
        <ele>-7</ele>
        <time>2015-10-31T13:37:42Z</time>
      </trkpt>
      <trkpt lat="48.73217" lon="-3.46194">
        <ele>-8</ele>
        <time>2015-10-31T13:37:46Z</time>
      </trkpt>
      <trkpt lat="48.7321" lon="-3.46187">
        <ele>-9</ele>
        <time>2015-10-31T13:37:49Z</time>
      </trkpt>
      <trkpt lat="48.73194" lon="-3.46186">
        <ele>-9</ele>
        <time>2015-10-31T13:37:54Z</time>
      </trkpt>
      <trkpt lat="48.73185" lon="-3.46178">
        <ele>-10</ele>
        <time>2015-10-31T13:37:57Z</time>
      </trkpt>
      <trkpt lat="48.73169" lon="-3.46176">
        <ele>-11</ele>
        <time>2015-10-31T13:38:01Z</time>
      </trkpt>
      <trkpt lat="48.73158" lon="-3.46155">
        <ele>-11</ele>
        <time>2015-10-31T13:38:05Z</time>
      </trkpt>
      <trkpt lat="48.7315" lon="-3.46129">
        <ele>-11</ele>
        <time>2015-10-31T13:38:09Z</time>
      </trkpt>
      <trkpt lat="48.73136" lon="-3.46101">
        <ele>-12</ele>
        <time>2015-10-31T13:38:14Z</time>
      </trkpt>
      <trkpt lat="48.73124" lon="-3.46081">
        <ele>-12</ele>
        <time>2015-10-31T13:38:18Z</time>
      </trkpt>
      <trkpt lat="48.73112" lon="-3.46061">
        <ele>-13</ele>
        <time>2015-10-31T13:38:22Z</time>
      </trkpt>
      <trkpt lat="48.73101" lon="-3.46039">
        <ele>-13</ele>
        <time>2015-10-31T13:38:26Z</time>
      </trkpt>
      <trkpt lat="48.73092" lon="-3.46017">
        <ele>-14</ele>
        <time>2015-10-31T13:38:30Z</time>
      </trkpt>
      <trkpt lat="48.73082" lon="-3.45999">
        <ele>-14</ele>
        <time>2015-10-31T13:38:36Z</time>
      </trkpt>
      <trkpt lat="48.73065" lon="-3.45996">
        <ele>-15</ele>
        <time>2015-10-31T13:38:42Z</time>
      </trkpt>
      <trkpt lat="48.73058" lon="-3.45988">
        <ele>-16</ele>
        <time>2015-10-31T13:38:45Z</time>
      </trkpt>
      <trkpt lat="48.73043" lon="-3.45971">
        <ele>-17</ele>
        <time>2015-10-31T13:38:50Z</time>
      </trkpt>
      <trkpt lat="48.73006" lon="-3.45933">
        <ele>-17</ele>
        <time>2015-10-31T13:38:58Z</time>
      </trkpt>
      <trkpt lat="48.72992" lon="-3.45921">
        <ele>-18</ele>
        <time>2015-10-31T13:39:01Z</time>
      </trkpt>
      <trkpt lat="48.72974" lon="-3.45906">
        <ele>-19</ele>
        <time>2015-10-31T13:39:05Z</time>
      </trkpt>
      <trkpt lat="48.72958" lon="-3.4589">
        <ele>-21</ele>
        <time>2015-10-31T13:39:09Z</time>
      </trkpt>
      <trkpt lat="48.72933" lon="-3.45863">
        <ele>-21</ele>
        <time>2015-10-31T13:39:15Z</time>
      </trkpt>
      <trkpt lat="48.72915" lon="-3.45849">
        <ele>-23</ele>
        <time>2015-10-31T13:39:19Z</time>
      </trkpt>
      <trkpt lat="48.729" lon="-3.45837">
        <ele>-24</ele>
        <time>2015-10-31T13:39:22Z</time>
      </trkpt>
      <trkpt lat="48.72884" lon="-3.45826">
        <ele>-25</ele>
        <time>2015-10-31T13:39:25Z</time>
      </trkpt>
      <trkpt lat="48.72869" lon="-3.45815">
        <ele>-26</ele>
        <time>2015-10-31T13:39:28Z</time>
      </trkpt>
      <trkpt lat="48.72854" lon="-3.45805">
        <ele>-27</ele>
        <time>2015-10-31T13:39:31Z</time>
      </trkpt>
      <trkpt lat="48.72839" lon="-3.45794">
        <ele>-28</ele>
        <time>2015-10-31T13:39:34Z</time>
      </trkpt>
      <trkpt lat="48.72825" lon="-3.45784">
        <ele>-28</ele>
        <time>2015-10-31T13:39:37Z</time>
      </trkpt>
      <trkpt lat="48.7281" lon="-3.45777">
        <ele>-29</ele>
        <time>2015-10-31T13:39:40Z</time>
      </trkpt>
      <trkpt lat="48.72796" lon="-3.45766">
        <ele>-30</ele>
        <time>2015-10-31T13:39:43Z</time>
      </trkpt>
      <trkpt lat="48.72787" lon="-3.45759">
        <ele>-30</ele>
        <time>2015-10-31T13:39:45Z</time>
      </trkpt>
      <trkpt lat="48.72777" lon="-3.45751">
        <ele>-30</ele>
        <time>2015-10-31T13:39:47Z</time>
      </trkpt>
      <trkpt lat="48.72767" lon="-3.45742">
        <ele>-31</ele>
        <time>2015-10-31T13:39:49Z</time>
      </trkpt>
      <trkpt lat="48.72751" lon="-3.45729">
        <ele>-31</ele>
        <time>2015-10-31T13:39:52Z</time>
      </trkpt>
      <trkpt lat="48.72741" lon="-3.45721">
        <ele>-31</ele>
        <time>2015-10-31T13:39:54Z</time>
      </trkpt>
      <trkpt lat="48.72731" lon="-3.45712">
        <ele>-31</ele>
        <time>2015-10-31T13:39:56Z</time>
      </trkpt>
      <trkpt lat="48.72721" lon="-3.45703">
        <ele>-31</ele>
        <time>2015-10-31T13:39:58Z</time>
      </trkpt>
      <trkpt lat="48.72712" lon="-3.45693">
        <ele>-31</ele>
        <time>2015-10-31T13:40:00Z</time>
      </trkpt>
      <trkpt lat="48.72698" lon="-3.45676">
        <ele>-31</ele>
        <time>2015-10-31T13:40:03Z</time>
      </trkpt>
      <trkpt lat="48.72689" lon="-3.45665">
        <ele>-31</ele>
        <time>2015-10-31T13:40:05Z</time>
      </trkpt>
      <trkpt lat="48.72678" lon="-3.45647">
        <ele>-31</ele>
        <time>2015-10-31T13:40:08Z</time>
      </trkpt>
      <trkpt lat="48.72667" lon="-3.45627">
        <ele>-31</ele>
        <time>2015-10-31T13:40:11Z</time>
      </trkpt>
      <trkpt lat="48.72657" lon="-3.45606">
        <ele>-31</ele>
        <time>2015-10-31T13:40:14Z</time>
      </trkpt>
      <trkpt lat="48.7265" lon="-3.45591">
        <ele>-31</ele>
        <time>2015-10-31T13:40:16Z</time>
      </trkpt>
      <trkpt lat="48.7264" lon="-3.45569">
        <ele>-31</ele>
        <time>2015-10-31T13:40:19Z</time>
      </trkpt>
      <trkpt lat="48.72634" lon="-3.45553">
        <ele>-31</ele>
        <time>2015-10-31T13:40:21Z</time>
      </trkpt>
      <trkpt lat="48.72628" lon="-3.45538">
        <ele>-31</ele>
        <time>2015-10-31T13:40:23Z</time>
      </trkpt>
      <trkpt lat="48.72621" lon="-3.45515">
        <ele>-31</ele>
        <time>2015-10-31T13:40:26Z</time>
      </trkpt>
      <trkpt lat="48.72617" lon="-3.45499">
        <ele>-31</ele>
        <time>2015-10-31T13:40:28Z</time>
      </trkpt>
      <trkpt lat="48.72613" lon="-3.45483">
        <ele>-31</ele>
        <time>2015-10-31T13:40:30Z</time>
      </trkpt>
      <trkpt lat="48.7261" lon="-3.45468">
        <ele>-31</ele>
        <time>2015-10-31T13:40:32Z</time>
      </trkpt>
      <trkpt lat="48.72607" lon="-3.45453">
        <ele>-31</ele>
        <time>2015-10-31T13:40:34Z</time>
      </trkpt>
      <trkpt lat="48.72605" lon="-3.45438">
        <ele>-31</ele>
        <time>2015-10-31T13:40:36Z</time>
      </trkpt>
      <trkpt lat="48.72603" lon="-3.45424">
        <ele>-31</ele>
        <time>2015-10-31T13:40:38Z</time>
      </trkpt>
      <trkpt lat="48.72601" lon="-3.4541">
        <ele>-31</ele>
        <time>2015-10-31T13:40:40Z</time>
      </trkpt>
      <trkpt lat="48.726" lon="-3.45397">
        <ele>-31</ele>
        <time>2015-10-31T13:40:42Z</time>
      </trkpt>
      <trkpt lat="48.72598" lon="-3.4538">
        <ele>-31</ele>
        <time>2015-10-31T13:40:45Z</time>
      </trkpt>
      <trkpt lat="48.72596" lon="-3.45358">
        <ele>-30</ele>
        <time>2015-10-31T13:40:49Z</time>
      </trkpt>
      <trkpt lat="48.72596" lon="-3.45341">
        <ele>-30</ele>
        <time>2015-10-31T13:40:52Z</time>
      </trkpt>
      <trkpt lat="48.72595" lon="-3.45319">
        <ele>-30</ele>
        <time>2015-10-31T13:40:56Z</time>
      </trkpt>
      <trkpt lat="48.72594" lon="-3.45303">
        <ele>-30</ele>
        <time>2015-10-31T13:40:59Z</time>
      </trkpt>
      <trkpt lat="48.72595" lon="-3.45281">
        <ele>-30</ele>
        <time>2015-10-31T13:41:03Z</time>
      </trkpt>
      <trkpt lat="48.72596" lon="-3.45253">
        <ele>-30</ele>
        <time>2015-10-31T13:41:08Z</time>
      </trkpt>
      <trkpt lat="48.72597" lon="-3.45225">
        <ele>-30</ele>
        <time>2015-10-31T13:41:13Z</time>
      </trkpt>
      <trkpt lat="48.72598" lon="-3.45208">
        <ele>-30</ele>
        <time>2015-10-31T13:41:16Z</time>
      </trkpt>
      <trkpt lat="48.72593" lon="-3.45184">
        <ele>-29</ele>
        <time>2015-10-31T13:41:21Z</time>
      </trkpt>
      <trkpt lat="48.72578" lon="-3.45178">
        <ele>-29</ele>
        <time>2015-10-31T13:41:24Z</time>
      </trkpt>
      <trkpt lat="48.72566" lon="-3.45175">
        <ele>-29</ele>
        <time>2015-10-31T13:41:26Z</time>
      </trkpt>
      <trkpt lat="48.72552" lon="-3.45169">
        <ele>-29</ele>
        <time>2015-10-31T13:41:28Z</time>
      </trkpt>
      <trkpt lat="48.72538" lon="-3.45163">
        <ele>-29</ele>
        <time>2015-10-31T13:41:30Z</time>
      </trkpt>
      <trkpt lat="48.72518" lon="-3.4515">
        <ele>-29</ele>
        <time>2015-10-31T13:41:33Z</time>
      </trkpt>
      <trkpt lat="48.72498" lon="-3.45136">
        <ele>-29</ele>
        <time>2015-10-31T13:41:36Z</time>
      </trkpt>
      <trkpt lat="48.72485" lon="-3.45124">
        <ele>-29</ele>
        <time>2015-10-31T13:41:38Z</time>
      </trkpt>
      <trkpt lat="48.72474" lon="-3.45107">
        <ele>-29</ele>
        <time>2015-10-31T13:41:40Z</time>
      </trkpt>
      <trkpt lat="48.72461" lon="-3.4508">
        <ele>-29</ele>
        <time>2015-10-31T13:41:43Z</time>
      </trkpt>
      <trkpt lat="48.72454" lon="-3.45065">
        <ele>-29</ele>
        <time>2015-10-31T13:41:45Z</time>
      </trkpt>
      <trkpt lat="48.72448" lon="-3.45052">
        <ele>-29</ele>
        <time>2015-10-31T13:41:47Z</time>
      </trkpt>
      <trkpt lat="48.72444" lon="-3.45039">
        <ele>-29</ele>
        <time>2015-10-31T13:41:49Z</time>
      </trkpt>
      <trkpt lat="48.72441" lon="-3.45027">
        <ele>-30</ele>
        <time>2015-10-31T13:41:51Z</time>
      </trkpt>
      <trkpt lat="48.72437" lon="-3.45014">
        <ele>-30</ele>
        <time>2015-10-31T13:41:53Z</time>
      </trkpt>
      <trkpt lat="48.72432" lon="-3.44998">
        <ele>-30</ele>
        <time>2015-10-31T13:41:56Z</time>
      </trkpt>
      <trkpt lat="48.72422" lon="-3.4499">
        <ele>-30</ele>
        <time>2015-10-31T13:42:00Z</time>
      </trkpt>
      <trkpt lat="48.72404" lon="-3.4499">
        <ele>-30</ele>
        <time>2015-10-31T13:42:05Z</time>
      </trkpt>
      <trkpt lat="48.72393" lon="-3.44992">
        <ele>-30</ele>
        <time>2015-10-31T13:42:07Z</time>
      </trkpt>
      <trkpt lat="48.72384" lon="-3.44997">
        <ele>-31</ele>
        <time>2015-10-31T13:42:09Z</time>
      </trkpt>
      <trkpt lat="48.72374" lon="-3.45001">
        <ele>-31</ele>
        <time>2015-10-31T13:42:12Z</time>
      </trkpt>
      <trkpt lat="48.7237" lon="-3.44988">
        <ele>-31</ele>
        <time>2015-10-31T13:42:16Z</time>
      </trkpt>
      <trkpt lat="48.72362" lon="-3.44962">
        <ele>-31</ele>
        <time>2015-10-31T13:42:21Z</time>
      </trkpt>
      <trkpt lat="48.72353" lon="-3.44945">
        <ele>-31</ele>
        <time>2015-10-31T13:42:24Z</time>
      </trkpt>
      <trkpt lat="48.72347" lon="-3.44934">
        <ele>-31</ele>
        <time>2015-10-31T13:42:26Z</time>
      </trkpt>
      <trkpt lat="48.72342" lon="-3.44922">
        <ele>-31</ele>
        <time>2015-10-31T13:42:28Z</time>
      </trkpt>
      <trkpt lat="48.72336" lon="-3.44905">
        <ele>-31</ele>
        <time>2015-10-31T13:42:31Z</time>
      </trkpt>
      <trkpt lat="48.7233" lon="-3.44889">
        <ele>-31</ele>
        <time>2015-10-31T13:42:34Z</time>
      </trkpt>
      <trkpt lat="48.72325" lon="-3.44867">
        <ele>-31</ele>
        <time>2015-10-31T13:42:38Z</time>
      </trkpt>
      <trkpt lat="48.7232" lon="-3.44845">
        <ele>-31</ele>
        <time>2015-10-31T13:42:42Z</time>
      </trkpt>
      <trkpt lat="48.72314" lon="-3.44818">
        <ele>-31</ele>
        <time>2015-10-31T13:42:47Z</time>
      </trkpt>
      <trkpt lat="48.72309" lon="-3.44795">
        <ele>-31</ele>
        <time>2015-10-31T13:42:51Z</time>
      </trkpt>
      <trkpt lat="48.72304" lon="-3.44771">
        <ele>-31</ele>
        <time>2015-10-31T13:42:55Z</time>
      </trkpt>
      <trkpt lat="48.72301" lon="-3.44746">
        <ele>-31</ele>
        <time>2015-10-31T13:43:00Z</time>
      </trkpt>
      <trkpt lat="48.723" lon="-3.44722">
        <ele>-31</ele>
        <time>2015-10-31T13:43:09Z</time>
      </trkpt>
      <trkpt lat="48.72297" lon="-3.44696">
        <ele>-30</ele>
        <time>2015-10-31T13:43:16Z</time>
      </trkpt>
      <trkpt lat="48.72291" lon="-3.4467">
        <ele>-30</ele>
        <time>2015-10-31T13:43:21Z</time>
      </trkpt>
      <trkpt lat="48.72281" lon="-3.4464">
        <ele>-31</ele>
        <time>2015-10-31T13:43:26Z</time>
      </trkpt>
      <trkpt lat="48.72273" lon="-3.44615">
        <ele>-31</ele>
        <time>2015-10-31T13:43:30Z</time>
      </trkpt>
      <trkpt lat="48.72265" lon="-3.44588">
        <ele>-31</ele>
        <time>2015-10-31T13:43:34Z</time>
      </trkpt>
      <trkpt lat="48.72263" lon="-3.44558">
        <ele>-31</ele>
        <time>2015-10-31T13:43:40Z</time>
      </trkpt>
      <trkpt lat="48.72279" lon="-3.44546">
        <ele>-31</ele>
        <time>2015-10-31T13:43:46Z</time>
      </trkpt>
      <trkpt lat="48.7229" lon="-3.44522">
        <ele>-31</ele>
        <time>2015-10-31T13:43:51Z</time>
      </trkpt>
      <trkpt lat="48.7229" lon="-3.44493">
        <ele>-31</ele>
        <time>2015-10-31T13:43:55Z</time>
      </trkpt>
      <trkpt lat="48.72288" lon="-3.44471">
        <ele>-31</ele>
        <time>2015-10-31T13:43:58Z</time>
      </trkpt>
      <trkpt lat="48.72283" lon="-3.44449">
        <ele>-32</ele>
        <time>2015-10-31T13:44:01Z</time>
      </trkpt>
      <trkpt lat="48.72276" lon="-3.4442">
        <ele>-32</ele>
        <time>2015-10-31T13:44:05Z</time>
      </trkpt>
      <trkpt lat="48.72269" lon="-3.44393">
        <ele>-32</ele>
        <time>2015-10-31T13:44:09Z</time>
      </trkpt>
      <trkpt lat="48.72265" lon="-3.44379">
        <ele>-32</ele>
        <time>2015-10-31T13:44:11Z</time>
      </trkpt>
      <trkpt lat="48.72261" lon="-3.44364">
        <ele>-32</ele>
        <time>2015-10-31T13:44:13Z</time>
      </trkpt>
      <trkpt lat="48.72257" lon="-3.4435">
        <ele>-32</ele>
        <time>2015-10-31T13:44:15Z</time>
      </trkpt>
      <trkpt lat="48.7225" lon="-3.44329">
        <ele>-32</ele>
        <time>2015-10-31T13:44:18Z</time>
      </trkpt>
      <trkpt lat="48.72246" lon="-3.44314">
        <ele>-32</ele>
        <time>2015-10-31T13:44:20Z</time>
      </trkpt>
      <trkpt lat="48.72242" lon="-3.443">
        <ele>-32</ele>
        <time>2015-10-31T13:44:22Z</time>
      </trkpt>
      <trkpt lat="48.72238" lon="-3.44286">
        <ele>-32</ele>
        <time>2015-10-31T13:44:24Z</time>
      </trkpt>
      <trkpt lat="48.72232" lon="-3.44259">
        <ele>-32</ele>
        <time>2015-10-31T13:44:28Z</time>
      </trkpt>
      <trkpt lat="48.72225" lon="-3.44233">
        <ele>-32</ele>
        <time>2015-10-31T13:44:32Z</time>
      </trkpt>
      <trkpt lat="48.72217" lon="-3.44208">
        <ele>-32</ele>
        <time>2015-10-31T13:44:36Z</time>
      </trkpt>
      <trkpt lat="48.72212" lon="-3.44197">
        <ele>-32</ele>
        <time>2015-10-31T13:44:38Z</time>
      </trkpt>
      <trkpt lat="48.72202" lon="-3.44176">
        <ele>-32</ele>
        <time>2015-10-31T13:44:42Z</time>
      </trkpt>
      <trkpt lat="48.72191" lon="-3.44156">
        <ele>-32</ele>
        <time>2015-10-31T13:44:46Z</time>
      </trkpt>
      <trkpt lat="48.72147" lon="-3.44086">
        <ele>-32</ele>
        <time>2015-10-31T13:45:04Z</time>
      </trkpt>
      <trkpt lat="48.72106" lon="-3.44017">
        <ele>8.1</ele>
        <time>2015-10-31T13:45:20Z</time>
      </trkpt>
      <trkpt lat="48.72014" lon="-3.4386">
        <ele>5.6</ele>
        <time>2015-10-31T13:45:44Z</time>
      </trkpt>
      <trkpt lat="48.7195" lon="-3.43633">
        <ele>-28</ele>
        <time>2015-10-31T13:46:17Z</time>
      </trkpt>
      <trkpt lat="48.71923" lon="-3.43545">
        <ele>-26</ele>
        <time>2015-10-31T13:46:30Z</time>
      </trkpt>
      <trkpt lat="48.71911" lon="-3.43488">
        <ele>-25</ele>
        <time>2015-10-31T13:46:39Z</time>
      </trkpt>
      <trkpt lat="48.71903" lon="-3.43453">
        <ele>-25</ele>
        <time>2015-10-31T13:46:45Z</time>
      </trkpt>
      <trkpt lat="48.7189" lon="-3.4341">
        <ele>-25</ele>
        <time>2015-10-31T13:46:53Z</time>
      </trkpt>
      <trkpt lat="48.71883" lon="-3.43389">
        <ele>-24</ele>
        <time>2015-10-31T13:46:57Z</time>
      </trkpt>
      <trkpt lat="48.71875" lon="-3.43368">
        <ele>-24</ele>
        <time>2015-10-31T13:47:01Z</time>
      </trkpt>
      <trkpt lat="48.71867" lon="-3.43345">
        <ele>-24</ele>
        <time>2015-10-31T13:47:05Z</time>
      </trkpt>
      <trkpt lat="48.71856" lon="-3.43318">
        <ele>-24</ele>
        <time>2015-10-31T13:47:10Z</time>
      </trkpt>
      <trkpt lat="48.71849" lon="-3.43303">
        <ele>-24</ele>
        <time>2015-10-31T13:47:13Z</time>
      </trkpt>
      <trkpt lat="48.71807" lon="-3.43191">
        <ele>-24</ele>
        <time>2015-10-31T13:47:32Z</time>
      </trkpt>
      <trkpt lat="48.71802" lon="-3.43166">
        <ele>-24</ele>
        <time>2015-10-31T13:47:36Z</time>
      </trkpt>
      <trkpt lat="48.71789" lon="-3.4304">
        <ele>-24</ele>
        <time>2015-10-31T13:47:58Z</time>
      </trkpt>
      <trkpt lat="48.71779" lon="-3.42917">
        <ele>-25</ele>
        <time>2015-10-31T13:48:15Z</time>
      </trkpt>
      <trkpt lat="48.71761" lon="-3.42855">
        <ele>11.9</ele>
        <time>2015-10-31T13:48:24Z</time>
      </trkpt>
      <trkpt lat="48.71737" lon="-3.42793">
        <ele>12.2</ele>
        <time>2015-10-31T13:48:33Z</time>
      </trkpt>
      <trkpt lat="48.71713" lon="-3.42755">
        <ele>-26</ele>
        <time>2015-10-31T13:48:40Z</time>
      </trkpt>
      <trkpt lat="48.71641" lon="-3.42668">
        <ele>8.4</ele>
        <time>2015-10-31T13:48:58Z</time>
      </trkpt>
      <trkpt lat="48.71619" lon="-3.42612">
        <ele>9.8</ele>
        <time>2015-10-31T13:49:05Z</time>
      </trkpt>
      <trkpt lat="48.71589" lon="-3.42501">
        <ele>-26</ele>
        <time>2015-10-31T13:49:18Z</time>
      </trkpt>
      <trkpt lat="48.71557" lon="-3.42344">
        <ele>-26</ele>
        <time>2015-10-31T13:49:40Z</time>
      </trkpt>
      <trkpt lat="48.71505" lon="-3.42236">
        <ele>9.5</ele>
        <time>2015-10-31T13:50:02Z</time>
      </trkpt>
      <trkpt lat="48.71487" lon="-3.42224">
        <ele>-26</ele>
        <time>2015-10-31T13:50:07Z</time>
      </trkpt>
      <trkpt lat="48.71371" lon="-3.42141">
        <ele>10.4</ele>
        <time>2015-10-31T13:50:39Z</time>
      </trkpt>
      <trkpt lat="48.71276" lon="-3.4205">
        <ele>-20</ele>
        <time>2015-10-31T13:51:06Z</time>
      </trkpt>
      <trkpt lat="48.71299" lon="-3.42047">
        <ele>-15</ele>
        <time>2015-10-31T13:51:24Z</time>
      </trkpt>
      <trkpt lat="48.71313" lon="-3.42058">
        <ele>-15</ele>
        <time>2015-10-31T13:51:31Z</time>
      </trkpt>
      <trkpt lat="48.71339" lon="-3.42078">
        <ele>-16</ele>
        <time>2015-10-31T13:51:45Z</time>
      </trkpt>
      <trkpt lat="48.71362" lon="-3.42089">
        <ele>-17</ele>
        <time>2015-10-31T13:52:00Z</time>
      </trkpt>
      <trkpt lat="48.71379" lon="-3.42103">
        <ele>-19</ele>
        <time>2015-10-31T13:52:14Z</time>
      </trkpt>
      <trkpt lat="48.71411" lon="-3.42122">
        <ele>-21</ele>
        <time>2015-10-31T13:52:31Z</time>
      </trkpt>
      <trkpt lat="48.71442" lon="-3.42125">
        <ele>-21</ele>
        <time>2015-10-31T13:52:46Z</time>
      </trkpt>
      <trkpt lat="48.71458" lon="-3.4212">
        <ele>-24</ele>
        <time>2015-10-31T13:52:58Z</time>
      </trkpt>
      <trkpt lat="48.71472" lon="-3.42101">
        <ele>-27</ele>
        <time>2015-10-31T13:53:11Z</time>
      </trkpt>
      <trkpt lat="48.71483" lon="-3.42078">
        <ele>-29</ele>
        <time>2015-10-31T13:53:20Z</time>
      </trkpt>
      <trkpt lat="48.71495" lon="-3.42045">
        <ele>-31</ele>
        <time>2015-10-31T13:53:32Z</time>
      </trkpt>
      <trkpt lat="48.71504" lon="-3.42024">
        <ele>-32</ele>
        <time>2015-10-31T13:53:39Z</time>
      </trkpt>
      <trkpt lat="48.71512" lon="-3.42002">
        <ele>-33</ele>
        <time>2015-10-31T13:53:46Z</time>
      </trkpt>
      <trkpt lat="48.71527" lon="-3.41979">
        <ele>-33</ele>
        <time>2015-10-31T13:53:53Z</time>
      </trkpt>
      <trkpt lat="48.7154" lon="-3.41961">
        <ele>-33</ele>
        <time>2015-10-31T13:54:00Z</time>
      </trkpt>
      <trkpt lat="48.71552" lon="-3.41943">
        <ele>-33</ele>
        <time>2015-10-31T13:54:09Z</time>
      </trkpt>
      <trkpt lat="48.71564" lon="-3.41927">
        <ele>-33</ele>
        <time>2015-10-31T13:54:20Z</time>
      </trkpt>
      <trkpt lat="48.71581" lon="-3.41917">
        <ele>-33</ele>
        <time>2015-10-31T13:54:28Z</time>
      </trkpt>
      <trkpt lat="48.71597" lon="-3.41914">
        <ele>-32</ele>
        <time>2015-10-31T13:54:34Z</time>
      </trkpt>
      <trkpt lat="48.71614" lon="-3.41916">
        <ele>-32</ele>
        <time>2015-10-31T13:54:41Z</time>
      </trkpt>
      <trkpt lat="48.7163" lon="-3.41917">
        <ele>-30</ele>
        <time>2015-10-31T13:54:48Z</time>
      </trkpt>
      <trkpt lat="48.71646" lon="-3.41913">
        <ele>-29</ele>
        <time>2015-10-31T13:54:55Z</time>
      </trkpt>
      <trkpt lat="48.71661" lon="-3.41908">
        <ele>-28</ele>
        <time>2015-10-31T13:55:02Z</time>
      </trkpt>
      <trkpt lat="48.71678" lon="-3.419">
        <ele>-26</ele>
        <time>2015-10-31T13:55:09Z</time>
      </trkpt>
      <trkpt lat="48.71687" lon="-3.41894">
        <ele>-25</ele>
        <time>2015-10-31T13:55:14Z</time>
      </trkpt>
      <trkpt lat="48.717" lon="-3.41879">
        <ele>-23</ele>
        <time>2015-10-31T13:55:22Z</time>
      </trkpt>
      <trkpt lat="48.71706" lon="-3.41866">
        <ele>-22</ele>
        <time>2015-10-31T13:55:27Z</time>
      </trkpt>
      <trkpt lat="48.71712" lon="-3.41849">
        <ele>-21</ele>
        <time>2015-10-31T13:55:33Z</time>
      </trkpt>
      <trkpt lat="48.71714" lon="-3.41836">
        <ele>-19</ele>
        <time>2015-10-31T13:55:37Z</time>
      </trkpt>
      <trkpt lat="48.71718" lon="-3.41811">
        <ele>-18</ele>
        <time>2015-10-31T13:55:45Z</time>
      </trkpt>
      <trkpt lat="48.7172" lon="-3.41796">
        <ele>-17</ele>
        <time>2015-10-31T13:55:50Z</time>
      </trkpt>
      <trkpt lat="48.71722" lon="-3.41783">
        <ele>-16</ele>
        <time>2015-10-31T13:55:54Z</time>
      </trkpt>
      <trkpt lat="48.71724" lon="-3.41769">
        <ele>-15</ele>
        <time>2015-10-31T13:55:59Z</time>
      </trkpt>
      <trkpt lat="48.71729" lon="-3.41745">
        <ele>-13</ele>
        <time>2015-10-31T13:56:07Z</time>
      </trkpt>
      <trkpt lat="48.71732" lon="-3.41733">
        <ele>-12</ele>
        <time>2015-10-31T13:56:11Z</time>
      </trkpt>
      <trkpt lat="48.71735" lon="-3.41721">
        <ele>-11</ele>
        <time>2015-10-31T13:56:15Z</time>
      </trkpt>
      <trkpt lat="48.71739" lon="-3.41707">
        <ele>-10</ele>
        <time>2015-10-31T13:56:20Z</time>
      </trkpt>
      <trkpt lat="48.71745" lon="-3.41694">
        <ele>-9</ele>
        <time>2015-10-31T13:56:25Z</time>
      </trkpt>
      <trkpt lat="48.71756" lon="-3.41677">
        <ele>-8</ele>
        <time>2015-10-31T13:56:33Z</time>
      </trkpt>
      <trkpt lat="48.71763" lon="-3.41669">
        <ele>-7</ele>
        <time>2015-10-31T13:56:39Z</time>
      </trkpt>
      <trkpt lat="48.7177" lon="-3.41661">
        <ele>-7</ele>
        <time>2015-10-31T13:56:43Z</time>
      </trkpt>
      <trkpt lat="48.71782" lon="-3.41645">
        <ele>-6</ele>
        <time>2015-10-31T13:56:50Z</time>
      </trkpt>
      <trkpt lat="48.71789" lon="-3.41633">
        <ele>-5</ele>
        <time>2015-10-31T13:56:55Z</time>
      </trkpt>
      <trkpt lat="48.71796" lon="-3.41619">
        <ele>-5</ele>
        <time>2015-10-31T13:57:00Z</time>
      </trkpt>
      <trkpt lat="48.71799" lon="-3.41607">
        <ele>-4</ele>
        <time>2015-10-31T13:57:04Z</time>
      </trkpt>
      <trkpt lat="48.718" lon="-3.41582">
        <ele>-3</ele>
        <time>2015-10-31T13:57:12Z</time>
      </trkpt>
      <trkpt lat="48.71797" lon="-3.41566">
        <ele>-2</ele>
        <time>2015-10-31T13:57:17Z</time>
      </trkpt>
      <trkpt lat="48.71795" lon="-3.41554">
        <ele>-1</ele>
        <time>2015-10-31T13:57:21Z</time>
      </trkpt>
      <trkpt lat="48.71791" lon="-3.41537">
        <ele>55.3</ele>
        <time>2015-10-31T13:57:27Z</time>
      </trkpt>
      <trkpt lat="48.71788" lon="-3.41525">
        <ele>56.1</ele>
        <time>2015-10-31T13:57:31Z</time>
      </trkpt>
      <trkpt lat="48.71784" lon="-3.4151">
        <ele>1</ele>
        <time>2015-10-31T13:57:36Z</time>
      </trkpt>
      <trkpt lat="48.71781" lon="-3.41492">
        <ele>2</ele>
        <time>2015-10-31T13:57:42Z</time>
      </trkpt>
      <trkpt lat="48.71777" lon="-3.41469">
        <ele>2</ele>
        <time>2015-10-31T13:57:50Z</time>
      </trkpt>
      <trkpt lat="48.71776" lon="-3.41454">
        <ele>3</ele>
        <time>2015-10-31T13:57:55Z</time>
      </trkpt>
      <trkpt lat="48.71774" lon="-3.41442">
        <ele>4</ele>
        <time>2015-10-31T13:57:59Z</time>
      </trkpt>
      <trkpt lat="48.71772" lon="-3.4143">
        <ele>4</ele>
        <time>2015-10-31T13:58:03Z</time>
      </trkpt>
      <trkpt lat="48.71769" lon="-3.41409">
        <ele>5</ele>
        <time>2015-10-31T13:58:10Z</time>
      </trkpt>
      <trkpt lat="48.71767" lon="-3.41395">
        <ele>6</ele>
        <time>2015-10-31T13:58:15Z</time>
      </trkpt>
      <trkpt lat="48.71763" lon="-3.41374">
        <ele>6</ele>
        <time>2015-10-31T13:58:22Z</time>
      </trkpt>
      <trkpt lat="48.71763" lon="-3.41347">
        <ele>7</ele>
        <time>2015-10-31T13:58:29Z</time>
      </trkpt>
      <trkpt lat="48.71762" lon="-3.41327">
        <ele>8</ele>
        <time>2015-10-31T13:58:33Z</time>
      </trkpt>
      <trkpt lat="48.71755" lon="-3.41301">
        <ele>8</ele>
        <time>2015-10-31T13:58:38Z</time>
      </trkpt>
      <trkpt lat="48.71749" lon="-3.41283">
        <ele>9</ele>
        <time>2015-10-31T13:58:42Z</time>
      </trkpt>
      <trkpt lat="48.7174" lon="-3.41259">
        <ele>10</ele>
        <time>2015-10-31T13:58:48Z</time>
      </trkpt>
      <trkpt lat="48.71734" lon="-3.41246">
        <ele>10</ele>
        <time>2015-10-31T13:58:52Z</time>
      </trkpt>
      <trkpt lat="48.71726" lon="-3.41225">
        <ele>11</ele>
        <time>2015-10-31T13:58:59Z</time>
      </trkpt>
      <trkpt lat="48.71721" lon="-3.41207">
        <ele>11</ele>
        <time>2015-10-31T13:59:05Z</time>
      </trkpt>
      <trkpt lat="48.71718" lon="-3.41194">
        <ele>12</ele>
        <time>2015-10-31T13:59:09Z</time>
      </trkpt>
      <trkpt lat="48.71715" lon="-3.41182">
        <ele>13</ele>
        <time>2015-10-31T13:59:13Z</time>
      </trkpt>
      <trkpt lat="48.71714" lon="-3.41168">
        <ele>13</ele>
        <time>2015-10-31T13:59:17Z</time>
      </trkpt>
      <trkpt lat="48.71711" lon="-3.41148">
        <ele>14</ele>
        <time>2015-10-31T13:59:23Z</time>
      </trkpt>
      <trkpt lat="48.71709" lon="-3.41133">
        <ele>15</ele>
        <time>2015-10-31T13:59:27Z</time>
      </trkpt>
      <trkpt lat="48.71707" lon="-3.41116">
        <ele>16</ele>
        <time>2015-10-31T13:59:32Z</time>
      </trkpt>
      <trkpt lat="48.71705" lon="-3.41099">
        <ele>16</ele>
        <time>2015-10-31T13:59:37Z</time>
      </trkpt>
      <trkpt lat="48.71701" lon="-3.41076">
        <ele>17</ele>
        <time>2015-10-31T13:59:44Z</time>
      </trkpt>
      <trkpt lat="48.71688" lon="-3.41062">
        <ele>18</ele>
        <time>2015-10-31T13:59:51Z</time>
      </trkpt>
      <trkpt lat="48.71671" lon="-3.4105">
        <ele>18</ele>
        <time>2015-10-31T13:59:56Z</time>
      </trkpt>
      <trkpt lat="48.71664" lon="-3.41044">
        <ele>19</ele>
        <time>2015-10-31T13:59:58Z</time>
      </trkpt>
      <trkpt lat="48.71654" lon="-3.41033">
        <ele>19</ele>
        <time>2015-10-31T14:00:01Z</time>
      </trkpt>
      <trkpt lat="48.71645" lon="-3.41022">
        <ele>19</ele>
        <time>2015-10-31T14:00:04Z</time>
      </trkpt>
      <trkpt lat="48.71635" lon="-3.41014">
        <ele>20</ele>
        <time>2015-10-31T14:00:07Z</time>
      </trkpt>
      <trkpt lat="48.71625" lon="-3.41007">
        <ele>20</ele>
        <time>2015-10-31T14:00:10Z</time>
      </trkpt>
      <trkpt lat="48.7161" lon="-3.40998">
        <ele>21</ele>
        <time>2015-10-31T14:00:14Z</time>
      </trkpt>
      <trkpt lat="48.71594" lon="-3.40985">
        <ele>21</ele>
        <time>2015-10-31T14:00:18Z</time>
      </trkpt>
      <trkpt lat="48.71588" lon="-3.40976">
        <ele>22</ele>
        <time>2015-10-31T14:00:20Z</time>
      </trkpt>
      <trkpt lat="48.71582" lon="-3.40967">
        <ele>22</ele>
        <time>2015-10-31T14:00:22Z</time>
      </trkpt>
      <trkpt lat="48.71576" lon="-3.40958">
        <ele>23</ele>
        <time>2015-10-31T14:00:24Z</time>
      </trkpt>
      <trkpt lat="48.7157" lon="-3.40949">
        <ele>23</ele>
        <time>2015-10-31T14:00:26Z</time>
      </trkpt>
      <trkpt lat="48.71558" lon="-3.40932">
        <ele>24</ele>
        <time>2015-10-31T14:00:30Z</time>
      </trkpt>
      <trkpt lat="48.71552" lon="-3.40923">
        <ele>24</ele>
        <time>2015-10-31T14:00:32Z</time>
      </trkpt>
      <trkpt lat="48.71547" lon="-3.40913">
        <ele>24</ele>
        <time>2015-10-31T14:00:34Z</time>
      </trkpt>
      <trkpt lat="48.71541" lon="-3.40902">
        <ele>25</ele>
        <time>2015-10-31T14:00:36Z</time>
      </trkpt>
      <trkpt lat="48.71536" lon="-3.40891">
        <ele>25</ele>
        <time>2015-10-31T14:00:38Z</time>
      </trkpt>
      <trkpt lat="48.7153" lon="-3.40879">
        <ele>25</ele>
        <time>2015-10-31T14:00:40Z</time>
      </trkpt>
      <trkpt lat="48.71521" lon="-3.40859">
        <ele>26</ele>
        <time>2015-10-31T14:00:43Z</time>
      </trkpt>
      <trkpt lat="48.71515" lon="-3.40846">
        <ele>26</ele>
        <time>2015-10-31T14:00:45Z</time>
      </trkpt>
      <trkpt lat="48.71508" lon="-3.40832">
        <ele>26</ele>
        <time>2015-10-31T14:00:47Z</time>
      </trkpt>
      <trkpt lat="48.71501" lon="-3.40819">
        <ele>27</ele>
        <time>2015-10-31T14:00:49Z</time>
      </trkpt>
      <trkpt lat="48.71492" lon="-3.40807">
        <ele>27</ele>
        <time>2015-10-31T14:00:51Z</time>
      </trkpt>
      <trkpt lat="48.71483" lon="-3.40795">
        <ele>27</ele>
        <time>2015-10-31T14:00:53Z</time>
      </trkpt>
      <trkpt lat="48.71475" lon="-3.40782">
        <ele>27</ele>
        <time>2015-10-31T14:00:55Z</time>
      </trkpt>
      <trkpt lat="48.71467" lon="-3.40767">
        <ele>28</ele>
        <time>2015-10-31T14:00:57Z</time>
      </trkpt>
      <trkpt lat="48.71461" lon="-3.4075">
        <ele>28</ele>
        <time>2015-10-31T14:00:59Z</time>
      </trkpt>
      <trkpt lat="48.71456" lon="-3.40732">
        <ele>28</ele>
        <time>2015-10-31T14:01:01Z</time>
      </trkpt>
      <trkpt lat="48.71452" lon="-3.40714">
        <ele>28</ele>
        <time>2015-10-31T14:01:03Z</time>
      </trkpt>
      <trkpt lat="48.71449" lon="-3.40697">
        <ele>28</ele>
        <time>2015-10-31T14:01:05Z</time>
      </trkpt>
      <trkpt lat="48.71446" lon="-3.40679">
        <ele>29</ele>
        <time>2015-10-31T14:01:07Z</time>
      </trkpt>
      <trkpt lat="48.71442" lon="-3.40661">
        <ele>29</ele>
        <time>2015-10-31T14:01:09Z</time>
      </trkpt>
      <trkpt lat="48.71439" lon="-3.40643">
        <ele>29</ele>
        <time>2015-10-31T14:01:11Z</time>
      </trkpt>
      <trkpt lat="48.71432" lon="-3.40607">
        <ele>29</ele>
        <time>2015-10-31T14:01:15Z</time>
      </trkpt>
      <trkpt lat="48.71427" lon="-3.4058">
        <ele>29</ele>
        <time>2015-10-31T14:01:18Z</time>
      </trkpt>
      <trkpt lat="48.71423" lon="-3.40552">
        <ele>29</ele>
        <time>2015-10-31T14:01:21Z</time>
      </trkpt>
      <trkpt lat="48.71422" lon="-3.40532">
        <ele>29</ele>
        <time>2015-10-31T14:01:23Z</time>
      </trkpt>
      <trkpt lat="48.71421" lon="-3.40502">
        <ele>30</ele>
        <time>2015-10-31T14:01:26Z</time>
      </trkpt>
      <trkpt lat="48.71419" lon="-3.40472">
        <ele>30</ele>
        <time>2015-10-31T14:01:29Z</time>
      </trkpt>
      <trkpt lat="48.71418" lon="-3.40453">
        <ele>30</ele>
        <time>2015-10-31T14:01:31Z</time>
      </trkpt>
      <trkpt lat="48.71416" lon="-3.40433">
        <ele>30</ele>
        <time>2015-10-31T14:01:33Z</time>
      </trkpt>
      <trkpt lat="48.71413" lon="-3.40414">
        <ele>30</ele>
        <time>2015-10-31T14:01:35Z</time>
      </trkpt>
      <trkpt lat="48.71408" lon="-3.40397">
        <ele>30</ele>
        <time>2015-10-31T14:01:37Z</time>
      </trkpt>
      <trkpt lat="48.71401" lon="-3.40383">
        <ele>30</ele>
        <time>2015-10-31T14:01:39Z</time>
      </trkpt>
      <trkpt lat="48.71393" lon="-3.40372">
        <ele>30</ele>
        <time>2015-10-31T14:01:41Z</time>
      </trkpt>
      <trkpt lat="48.71385" lon="-3.40364">
        <ele>30</ele>
        <time>2015-10-31T14:01:43Z</time>
      </trkpt>
      <trkpt lat="48.71377" lon="-3.40358">
        <ele>30</ele>
        <time>2015-10-31T14:01:45Z</time>
      </trkpt>
      <trkpt lat="48.71369" lon="-3.40352">
        <ele>30</ele>
        <time>2015-10-31T14:01:47Z</time>
      </trkpt>
      <trkpt lat="48.71361" lon="-3.40345">
        <ele>30</ele>
        <time>2015-10-31T14:01:49Z</time>
      </trkpt>
      <trkpt lat="48.71347" lon="-3.40334">
        <ele>30</ele>
        <time>2015-10-31T14:01:53Z</time>
      </trkpt>
      <trkpt lat="48.71332" lon="-3.40321">
        <ele>30</ele>
        <time>2015-10-31T14:01:57Z</time>
      </trkpt>
      <trkpt lat="48.71324" lon="-3.40315">
        <ele>30</ele>
        <time>2015-10-31T14:01:59Z</time>
      </trkpt>
      <trkpt lat="48.71309" lon="-3.40304">
        <ele>30</ele>
        <time>2015-10-31T14:02:03Z</time>
      </trkpt>
      <trkpt lat="48.71301" lon="-3.403">
        <ele>30</ele>
        <time>2015-10-31T14:02:05Z</time>
      </trkpt>
      <trkpt lat="48.71293" lon="-3.40295">
        <ele>30</ele>
        <time>2015-10-31T14:02:07Z</time>
      </trkpt>
      <trkpt lat="48.71285" lon="-3.40291">
        <ele>30</ele>
        <time>2015-10-31T14:02:09Z</time>
      </trkpt>
      <trkpt lat="48.71277" lon="-3.40287">
        <ele>30</ele>
        <time>2015-10-31T14:02:11Z</time>
      </trkpt>
      <trkpt lat="48.71265" lon="-3.40282">
        <ele>30</ele>
        <time>2015-10-31T14:02:14Z</time>
      </trkpt>
      <trkpt lat="48.71254" lon="-3.40278">
        <ele>30</ele>
        <time>2015-10-31T14:02:17Z</time>
      </trkpt>
      <trkpt lat="48.71243" lon="-3.40275">
        <ele>30</ele>
        <time>2015-10-31T14:02:20Z</time>
      </trkpt>
      <trkpt lat="48.71234" lon="-3.40274">
        <ele>30</ele>
        <time>2015-10-31T14:02:23Z</time>
      </trkpt>
      <trkpt lat="48.71226" lon="-3.40273">
        <ele>30</ele>
        <time>2015-10-31T14:02:26Z</time>
      </trkpt>
      <trkpt lat="48.71217" lon="-3.40272">
        <ele>31</ele>
        <time>2015-10-31T14:02:29Z</time>
      </trkpt>
      <trkpt lat="48.712" lon="-3.4027">
        <ele>31</ele>
        <time>2015-10-31T14:02:35Z</time>
      </trkpt>
      <trkpt lat="48.71189" lon="-3.40268">
        <ele>31</ele>
        <time>2015-10-31T14:02:39Z</time>
      </trkpt>
      <trkpt lat="48.71178" lon="-3.40266">
        <ele>32</ele>
        <time>2015-10-31T14:02:43Z</time>
      </trkpt>
      <trkpt lat="48.71168" lon="-3.40264">
        <ele>32</ele>
        <time>2015-10-31T14:02:47Z</time>
      </trkpt>
      <trkpt lat="48.71157" lon="-3.40262">
        <ele>32</ele>
        <time>2015-10-31T14:02:51Z</time>
      </trkpt>
      <trkpt lat="48.71147" lon="-3.40259">
        <ele>32</ele>
        <time>2015-10-31T14:02:55Z</time>
      </trkpt>
      <trkpt lat="48.71137" lon="-3.40255">
        <ele>32</ele>
        <time>2015-10-31T14:02:59Z</time>
      </trkpt>
      <trkpt lat="48.71126" lon="-3.40246">
        <ele>32</ele>
        <time>2015-10-31T14:03:04Z</time>
      </trkpt>
      <trkpt lat="48.7112" lon="-3.40237">
        <ele>33</ele>
        <time>2015-10-31T14:03:08Z</time>
      </trkpt>
      <trkpt lat="48.7111" lon="-3.40221">
        <ele>33</ele>
        <time>2015-10-31T14:03:15Z</time>
      </trkpt>
      <trkpt lat="48.71102" lon="-3.40206">
        <ele>33</ele>
        <time>2015-10-31T14:03:22Z</time>
      </trkpt>
      <trkpt lat="48.71085" lon="-3.40209">
        <ele>34</ele>
        <time>2015-10-31T14:03:31Z</time>
      </trkpt>
      <trkpt lat="48.71077" lon="-3.40218">
        <ele>35</ele>
        <time>2015-10-31T14:03:35Z</time>
      </trkpt>
      <trkpt lat="48.71063" lon="-3.40232">
        <ele>35</ele>
        <time>2015-10-31T14:03:41Z</time>
      </trkpt>
      <trkpt lat="48.71055" lon="-3.40239">
        <ele>36</ele>
        <time>2015-10-31T14:03:44Z</time>
      </trkpt>
      <trkpt lat="48.71047" lon="-3.40244">
        <ele>36</ele>
        <time>2015-10-31T14:03:47Z</time>
      </trkpt>
      <trkpt lat="48.71039" lon="-3.40249">
        <ele>36</ele>
        <time>2015-10-31T14:03:50Z</time>
      </trkpt>
      <trkpt lat="48.7103" lon="-3.40253">
        <ele>37</ele>
        <time>2015-10-31T14:03:53Z</time>
      </trkpt>
      <trkpt lat="48.71022" lon="-3.40257">
        <ele>37</ele>
        <time>2015-10-31T14:03:56Z</time>
      </trkpt>
      <trkpt lat="48.71013" lon="-3.40259">
        <ele>37</ele>
        <time>2015-10-31T14:03:59Z</time>
      </trkpt>
      <trkpt lat="48.70998" lon="-3.40262">
        <ele>38</ele>
        <time>2015-10-31T14:04:05Z</time>
      </trkpt>
      <trkpt lat="48.70987" lon="-3.40264">
        <ele>38</ele>
        <time>2015-10-31T14:04:09Z</time>
      </trkpt>
      <trkpt lat="48.70974" lon="-3.40265">
        <ele>38</ele>
        <time>2015-10-31T14:04:14Z</time>
      </trkpt>
      <trkpt lat="48.70965" lon="-3.40265">
        <ele>38</ele>
        <time>2015-10-31T14:04:18Z</time>
      </trkpt>
      <trkpt lat="48.70955" lon="-3.40266">
        <ele>39</ele>
        <time>2015-10-31T14:04:22Z</time>
      </trkpt>
      <trkpt lat="48.70944" lon="-3.40265">
        <ele>39</ele>
        <time>2015-10-31T14:04:26Z</time>
      </trkpt>
      <trkpt lat="48.70933" lon="-3.40264">
        <ele>39</ele>
        <time>2015-10-31T14:04:30Z</time>
      </trkpt>
      <trkpt lat="48.70925" lon="-3.40263">
        <ele>39</ele>
        <time>2015-10-31T14:04:33Z</time>
      </trkpt>
      <trkpt lat="48.70915" lon="-3.40262">
        <ele>40</ele>
        <time>2015-10-31T14:04:36Z</time>
      </trkpt>
      <trkpt lat="48.70905" lon="-3.4026">
        <ele>40</ele>
        <time>2015-10-31T14:04:39Z</time>
      </trkpt>
      <trkpt lat="48.70887" lon="-3.40257">
        <ele>40</ele>
        <time>2015-10-31T14:04:44Z</time>
      </trkpt>
      <trkpt lat="48.70876" lon="-3.40255">
        <ele>41</ele>
        <time>2015-10-31T14:04:47Z</time>
      </trkpt>
      <trkpt lat="48.70864" lon="-3.40253">
        <ele>41</ele>
        <time>2015-10-31T14:04:50Z</time>
      </trkpt>
      <trkpt lat="48.70849" lon="-3.40251">
        <ele>41</ele>
        <time>2015-10-31T14:04:54Z</time>
      </trkpt>
      <trkpt lat="48.70831" lon="-3.40248">
        <ele>42</ele>
        <time>2015-10-31T14:04:59Z</time>
      </trkpt>
      <trkpt lat="48.70814" lon="-3.40244">
        <ele>42</ele>
        <time>2015-10-31T14:05:04Z</time>
      </trkpt>
      <trkpt lat="48.70798" lon="-3.40241">
        <ele>42</ele>
        <time>2015-10-31T14:05:09Z</time>
      </trkpt>
      <trkpt lat="48.70785" lon="-3.40239">
        <ele>43</ele>
        <time>2015-10-31T14:05:13Z</time>
      </trkpt>
      <trkpt lat="48.70768" lon="-3.40238">
        <ele>43</ele>
        <time>2015-10-31T14:05:18Z</time>
      </trkpt>
      <trkpt lat="48.70751" lon="-3.40236">
        <ele>43</ele>
        <time>2015-10-31T14:05:22Z</time>
      </trkpt>
      <trkpt lat="48.70742" lon="-3.40235">
        <ele>44</ele>
        <time>2015-10-31T14:05:24Z</time>
      </trkpt>
      <trkpt lat="48.70729" lon="-3.40231">
        <ele>44</ele>
        <time>2015-10-31T14:05:27Z</time>
      </trkpt>
      <trkpt lat="48.7072" lon="-3.40228">
        <ele>44</ele>
        <time>2015-10-31T14:05:29Z</time>
      </trkpt>
      <trkpt lat="48.70711" lon="-3.40225">
        <ele>44</ele>
        <time>2015-10-31T14:05:31Z</time>
      </trkpt>
      <trkpt lat="48.70694" lon="-3.40219">
        <ele>45</ele>
        <time>2015-10-31T14:05:35Z</time>
      </trkpt>
      <trkpt lat="48.70686" lon="-3.40216">
        <ele>45</ele>
        <time>2015-10-31T14:05:37Z</time>
      </trkpt>
      <trkpt lat="48.70669" lon="-3.40211">
        <ele>45</ele>
        <time>2015-10-31T14:05:41Z</time>
      </trkpt>
      <trkpt lat="48.70652" lon="-3.4021">
        <ele>45</ele>
        <time>2015-10-31T14:05:45Z</time>
      </trkpt>
      <trkpt lat="48.70633" lon="-3.4021">
        <ele>45</ele>
        <time>2015-10-31T14:05:49Z</time>
      </trkpt>
      <trkpt lat="48.70615" lon="-3.40211">
        <ele>46</ele>
        <time>2015-10-31T14:05:53Z</time>
      </trkpt>
      <trkpt lat="48.70599" lon="-3.40212">
        <ele>46</ele>
        <time>2015-10-31T14:05:56Z</time>
      </trkpt>
      <trkpt lat="48.70588" lon="-3.40213">
        <ele>46</ele>
        <time>2015-10-31T14:05:58Z</time>
      </trkpt>
      <trkpt lat="48.70575" lon="-3.40216">
        <ele>46</ele>
        <time>2015-10-31T14:06:00Z</time>
      </trkpt>
      <trkpt lat="48.7055" lon="-3.40224">
        <ele>46</ele>
        <time>2015-10-31T14:06:04Z</time>
      </trkpt>
      <trkpt lat="48.70533" lon="-3.40231">
        <ele>47</ele>
        <time>2015-10-31T14:06:07Z</time>
      </trkpt>
      <trkpt lat="48.70516" lon="-3.4024">
        <ele>47</ele>
        <time>2015-10-31T14:06:10Z</time>
      </trkpt>
      <trkpt lat="48.70499" lon="-3.40249">
        <ele>47</ele>
        <time>2015-10-31T14:06:13Z</time>
      </trkpt>
      <trkpt lat="48.70483" lon="-3.40257">
        <ele>47</ele>
        <time>2015-10-31T14:06:16Z</time>
      </trkpt>
      <trkpt lat="48.70466" lon="-3.40264">
        <ele>47</ele>
        <time>2015-10-31T14:06:19Z</time>
      </trkpt>
      <trkpt lat="48.70449" lon="-3.40271">
        <ele>48</ele>
        <time>2015-10-31T14:06:22Z</time>
      </trkpt>
      <trkpt lat="48.70432" lon="-3.40277">
        <ele>48</ele>
        <time>2015-10-31T14:06:25Z</time>
      </trkpt>
      <trkpt lat="48.70415" lon="-3.40281">
        <ele>48</ele>
        <time>2015-10-31T14:06:28Z</time>
      </trkpt>
      <trkpt lat="48.70397" lon="-3.40284">
        <ele>49</ele>
        <time>2015-10-31T14:06:31Z</time>
      </trkpt>
      <trkpt lat="48.70385" lon="-3.40284">
        <ele>49</ele>
        <time>2015-10-31T14:06:33Z</time>
      </trkpt>
      <trkpt lat="48.70373" lon="-3.40285">
        <ele>49</ele>
        <time>2015-10-31T14:06:35Z</time>
      </trkpt>
      <trkpt lat="48.70362" lon="-3.40285">
        <ele>49</ele>
        <time>2015-10-31T14:06:37Z</time>
      </trkpt>
      <trkpt lat="48.70344" lon="-3.40284">
        <ele>49</ele>
        <time>2015-10-31T14:06:40Z</time>
      </trkpt>
      <trkpt lat="48.70325" lon="-3.40283">
        <ele>49</ele>
        <time>2015-10-31T14:06:43Z</time>
      </trkpt>
      <trkpt lat="48.70307" lon="-3.40281">
        <ele>49</ele>
        <time>2015-10-31T14:06:46Z</time>
      </trkpt>
      <trkpt lat="48.70295" lon="-3.40281">
        <ele>49</ele>
        <time>2015-10-31T14:06:48Z</time>
      </trkpt>
      <trkpt lat="48.70277" lon="-3.40281">
        <ele>49</ele>
        <time>2015-10-31T14:06:51Z</time>
      </trkpt>
      <trkpt lat="48.70265" lon="-3.40282">
        <ele>49</ele>
        <time>2015-10-31T14:06:53Z</time>
      </trkpt>
      <trkpt lat="48.70254" lon="-3.40285">
        <ele>50</ele>
        <time>2015-10-31T14:06:55Z</time>
      </trkpt>
      <trkpt lat="48.70239" lon="-3.4029">
        <ele>50</ele>
        <time>2015-10-31T14:06:58Z</time>
      </trkpt>
      <trkpt lat="48.7023" lon="-3.40294">
        <ele>50</ele>
        <time>2015-10-31T14:07:00Z</time>
      </trkpt>
      <trkpt lat="48.7022" lon="-3.40299">
        <ele>50</ele>
        <time>2015-10-31T14:07:03Z</time>
      </trkpt>
      <trkpt lat="48.70204" lon="-3.40306">
        <ele>51</ele>
        <time>2015-10-31T14:07:08Z</time>
      </trkpt>
      <trkpt lat="48.70194" lon="-3.40309">
        <ele>51</ele>
        <time>2015-10-31T14:07:11Z</time>
      </trkpt>
      <trkpt lat="48.70185" lon="-3.40312">
        <ele>51</ele>
        <time>2015-10-31T14:07:14Z</time>
      </trkpt>
      <trkpt lat="48.70168" lon="-3.40316">
        <ele>52</ele>
        <time>2015-10-31T14:07:19Z</time>
      </trkpt>
      <trkpt lat="48.7015" lon="-3.40319">
        <ele>52</ele>
        <time>2015-10-31T14:07:24Z</time>
      </trkpt>
      <trkpt lat="48.70134" lon="-3.40321">
        <ele>52</ele>
        <time>2015-10-31T14:07:28Z</time>
      </trkpt>
      <trkpt lat="48.70119" lon="-3.40322">
        <ele>52</ele>
        <time>2015-10-31T14:07:32Z</time>
      </trkpt>
      <trkpt lat="48.701" lon="-3.40324">
        <ele>53</ele>
        <time>2015-10-31T14:07:37Z</time>
      </trkpt>
      <trkpt lat="48.70085" lon="-3.40324">
        <ele>53</ele>
        <time>2015-10-31T14:07:41Z</time>
      </trkpt>
      <trkpt lat="48.70069" lon="-3.40325">
        <ele>53</ele>
        <time>2015-10-31T14:07:45Z</time>
      </trkpt>
      <trkpt lat="48.70053" lon="-3.40329">
        <ele>54</ele>
        <time>2015-10-31T14:07:49Z</time>
      </trkpt>
      <trkpt lat="48.70036" lon="-3.40331">
        <ele>54</ele>
        <time>2015-10-31T14:07:53Z</time>
      </trkpt>
      <trkpt lat="48.70028" lon="-3.40332">
        <ele>54</ele>
        <time>2015-10-31T14:07:55Z</time>
      </trkpt>
      <trkpt lat="48.7002" lon="-3.40333">
        <ele>54</ele>
        <time>2015-10-31T14:07:57Z</time>
      </trkpt>
      <trkpt lat="48.70011" lon="-3.40334">
        <ele>55</ele>
        <time>2015-10-31T14:07:59Z</time>
      </trkpt>
      <trkpt lat="48.69999" lon="-3.40335">
        <ele>55</ele>
        <time>2015-10-31T14:08:02Z</time>
      </trkpt>
      <trkpt lat="48.69984" lon="-3.40336">
        <ele>55</ele>
        <time>2015-10-31T14:08:06Z</time>
      </trkpt>
      <trkpt lat="48.69968" lon="-3.40336">
        <ele>56</ele>
        <time>2015-10-31T14:08:10Z</time>
      </trkpt>
      <trkpt lat="48.69953" lon="-3.40337">
        <ele>56</ele>
        <time>2015-10-31T14:08:14Z</time>
      </trkpt>
      <trkpt lat="48.6994" lon="-3.40339">
        <ele>56</ele>
        <time>2015-10-31T14:08:17Z</time>
      </trkpt>
      <trkpt lat="48.69924" lon="-3.40341">
        <ele>56</ele>
        <time>2015-10-31T14:08:21Z</time>
      </trkpt>
      <trkpt lat="48.69915" lon="-3.40342">
        <ele>57</ele>
        <time>2015-10-31T14:08:23Z</time>
      </trkpt>
      <trkpt lat="48.69902" lon="-3.40343">
        <ele>57</ele>
        <time>2015-10-31T14:08:26Z</time>
      </trkpt>
      <trkpt lat="48.69884" lon="-3.40345">
        <ele>57</ele>
        <time>2015-10-31T14:08:30Z</time>
      </trkpt>
      <trkpt lat="48.69875" lon="-3.40346">
        <ele>57</ele>
        <time>2015-10-31T14:08:32Z</time>
      </trkpt>
      <trkpt lat="48.69851" lon="-3.40354">
        <ele>57</ele>
        <time>2015-10-31T14:08:37Z</time>
      </trkpt>
      <trkpt lat="48.69835" lon="-3.40363">
        <ele>57</ele>
        <time>2015-10-31T14:08:40Z</time>
      </trkpt>
      <trkpt lat="48.6982" lon="-3.40373">
        <ele>57</ele>
        <time>2015-10-31T14:08:43Z</time>
      </trkpt>
      <trkpt lat="48.69809" lon="-3.4038">
        <ele>57</ele>
        <time>2015-10-31T14:08:45Z</time>
      </trkpt>
      <trkpt lat="48.69799" lon="-3.40386">
        <ele>58</ele>
        <time>2015-10-31T14:08:47Z</time>
      </trkpt>
      <trkpt lat="48.69789" lon="-3.40391">
        <ele>58</ele>
        <time>2015-10-31T14:08:49Z</time>
      </trkpt>
      <trkpt lat="48.69772" lon="-3.40397">
        <ele>58</ele>
        <time>2015-10-31T14:08:52Z</time>
      </trkpt>
      <trkpt lat="48.6976" lon="-3.40401">
        <ele>58</ele>
        <time>2015-10-31T14:08:54Z</time>
      </trkpt>
      <trkpt lat="48.69742" lon="-3.40405">
        <ele>58</ele>
        <time>2015-10-31T14:08:57Z</time>
      </trkpt>
      <trkpt lat="48.69729" lon="-3.40408">
        <ele>58</ele>
        <time>2015-10-31T14:08:59Z</time>
      </trkpt>
      <trkpt lat="48.69708" lon="-3.40408">
        <ele>58</ele>
        <time>2015-10-31T14:09:02Z</time>
      </trkpt>
      <trkpt lat="48.69694" lon="-3.40408">
        <ele>58</ele>
        <time>2015-10-31T14:09:04Z</time>
      </trkpt>
      <trkpt lat="48.69672" lon="-3.40408">
        <ele>58</ele>
        <time>2015-10-31T14:09:07Z</time>
      </trkpt>
      <trkpt lat="48.69651" lon="-3.4041">
        <ele>57</ele>
        <time>2015-10-31T14:09:10Z</time>
      </trkpt>
      <trkpt lat="48.69637" lon="-3.40413">
        <ele>57</ele>
        <time>2015-10-31T14:09:12Z</time>
      </trkpt>
      <trkpt lat="48.69617" lon="-3.40415">
        <ele>57</ele>
        <time>2015-10-31T14:09:15Z</time>
      </trkpt>
      <trkpt lat="48.69597" lon="-3.40415">
        <ele>57</ele>
        <time>2015-10-31T14:09:18Z</time>
      </trkpt>
      <trkpt lat="48.69577" lon="-3.40412">
        <ele>57</ele>
        <time>2015-10-31T14:09:21Z</time>
      </trkpt>
      <trkpt lat="48.69558" lon="-3.40406">
        <ele>57</ele>
        <time>2015-10-31T14:09:24Z</time>
      </trkpt>
      <trkpt lat="48.69538" lon="-3.40399">
        <ele>57</ele>
        <time>2015-10-31T14:09:27Z</time>
      </trkpt>
      <trkpt lat="48.69518" lon="-3.40393">
        <ele>57</ele>
        <time>2015-10-31T14:09:30Z</time>
      </trkpt>
      <trkpt lat="48.69498" lon="-3.40387">
        <ele>57</ele>
        <time>2015-10-31T14:09:33Z</time>
      </trkpt>
      <trkpt lat="48.69477" lon="-3.40383">
        <ele>57</ele>
        <time>2015-10-31T14:09:36Z</time>
      </trkpt>
      <trkpt lat="48.69464" lon="-3.40381">
        <ele>57</ele>
        <time>2015-10-31T14:09:38Z</time>
      </trkpt>
      <trkpt lat="48.69444" lon="-3.4038">
        <ele>57</ele>
        <time>2015-10-31T14:09:41Z</time>
      </trkpt>
      <trkpt lat="48.69424" lon="-3.4038">
        <ele>57</ele>
        <time>2015-10-31T14:09:44Z</time>
      </trkpt>
      <trkpt lat="48.69412" lon="-3.40379">
        <ele>57</ele>
        <time>2015-10-31T14:09:46Z</time>
      </trkpt>
      <trkpt lat="48.69399" lon="-3.40377">
        <ele>57</ele>
        <time>2015-10-31T14:09:48Z</time>
      </trkpt>
      <trkpt lat="48.69381" lon="-3.40374">
        <ele>57</ele>
        <time>2015-10-31T14:09:51Z</time>
      </trkpt>
      <trkpt lat="48.69362" lon="-3.40368">
        <ele>57</ele>
        <time>2015-10-31T14:09:54Z</time>
      </trkpt>
      <trkpt lat="48.69345" lon="-3.40358">
        <ele>56</ele>
        <time>2015-10-31T14:09:57Z</time>
      </trkpt>
      <trkpt lat="48.69333" lon="-3.40351">
        <ele>56</ele>
        <time>2015-10-31T14:09:59Z</time>
      </trkpt>
      <trkpt lat="48.69321" lon="-3.40343">
        <ele>56</ele>
        <time>2015-10-31T14:10:01Z</time>
      </trkpt>
      <trkpt lat="48.69308" lon="-3.40336">
        <ele>56</ele>
        <time>2015-10-31T14:10:03Z</time>
      </trkpt>
      <trkpt lat="48.6929" lon="-3.40323">
        <ele>56</ele>
        <time>2015-10-31T14:10:06Z</time>
      </trkpt>
      <trkpt lat="48.69272" lon="-3.40307">
        <ele>56</ele>
        <time>2015-10-31T14:10:09Z</time>
      </trkpt>
      <trkpt lat="48.69255" lon="-3.4029">
        <ele>56</ele>
        <time>2015-10-31T14:10:12Z</time>
      </trkpt>
      <trkpt lat="48.69244" lon="-3.40278">
        <ele>56</ele>
        <time>2015-10-31T14:10:14Z</time>
      </trkpt>
      <trkpt lat="48.69233" lon="-3.40266">
        <ele>56</ele>
        <time>2015-10-31T14:10:16Z</time>
      </trkpt>
      <trkpt lat="48.69223" lon="-3.40255">
        <ele>56</ele>
        <time>2015-10-31T14:10:18Z</time>
      </trkpt>
      <trkpt lat="48.69206" lon="-3.40238">
        <ele>56</ele>
        <time>2015-10-31T14:10:21Z</time>
      </trkpt>
      <trkpt lat="48.69188" lon="-3.40221">
        <ele>56</ele>
        <time>2015-10-31T14:10:24Z</time>
      </trkpt>
      <trkpt lat="48.69169" lon="-3.40205">
        <ele>56</ele>
        <time>2015-10-31T14:10:27Z</time>
      </trkpt>
      <trkpt lat="48.69149" lon="-3.4019">
        <ele>56</ele>
        <time>2015-10-31T14:10:30Z</time>
      </trkpt>
      <trkpt lat="48.69136" lon="-3.40181">
        <ele>55</ele>
        <time>2015-10-31T14:10:32Z</time>
      </trkpt>
      <trkpt lat="48.69123" lon="-3.40172">
        <ele>55</ele>
        <time>2015-10-31T14:10:34Z</time>
      </trkpt>
      <trkpt lat="48.69105" lon="-3.40158">
        <ele>55</ele>
        <time>2015-10-31T14:10:37Z</time>
      </trkpt>
      <trkpt lat="48.69092" lon="-3.40147">
        <ele>55</ele>
        <time>2015-10-31T14:10:39Z</time>
      </trkpt>
      <trkpt lat="48.69075" lon="-3.4013">
        <ele>55</ele>
        <time>2015-10-31T14:10:42Z</time>
      </trkpt>
      <trkpt lat="48.69057" lon="-3.40114">
        <ele>55</ele>
        <time>2015-10-31T14:10:45Z</time>
      </trkpt>
      <trkpt lat="48.69039" lon="-3.40097">
        <ele>55</ele>
        <time>2015-10-31T14:10:48Z</time>
      </trkpt>
      <trkpt lat="48.6902" lon="-3.40081">
        <ele>55</ele>
        <time>2015-10-31T14:10:51Z</time>
      </trkpt>
      <trkpt lat="48.69007" lon="-3.40071">
        <ele>55</ele>
        <time>2015-10-31T14:10:53Z</time>
      </trkpt>
      <trkpt lat="48.68994" lon="-3.40063">
        <ele>54</ele>
        <time>2015-10-31T14:10:55Z</time>
      </trkpt>
      <trkpt lat="48.6898" lon="-3.40057">
        <ele>54</ele>
        <time>2015-10-31T14:10:57Z</time>
      </trkpt>
      <trkpt lat="48.68967" lon="-3.40051">
        <ele>54</ele>
        <time>2015-10-31T14:10:59Z</time>
      </trkpt>
      <trkpt lat="48.68953" lon="-3.40046">
        <ele>54</ele>
        <time>2015-10-31T14:11:01Z</time>
      </trkpt>
      <trkpt lat="48.68941" lon="-3.4004">
        <ele>54</ele>
        <time>2015-10-31T14:11:03Z</time>
      </trkpt>
      <trkpt lat="48.68928" lon="-3.40036">
        <ele>54</ele>
        <time>2015-10-31T14:11:05Z</time>
      </trkpt>
      <trkpt lat="48.68916" lon="-3.40032">
        <ele>54</ele>
        <time>2015-10-31T14:11:07Z</time>
      </trkpt>
      <trkpt lat="48.68904" lon="-3.40029">
        <ele>53</ele>
        <time>2015-10-31T14:11:09Z</time>
      </trkpt>
      <trkpt lat="48.68886" lon="-3.40026">
        <ele>53</ele>
        <time>2015-10-31T14:11:12Z</time>
      </trkpt>
      <trkpt lat="48.68868" lon="-3.40023">
        <ele>53</ele>
        <time>2015-10-31T14:11:15Z</time>
      </trkpt>
      <trkpt lat="48.6885" lon="-3.40022">
        <ele>53</ele>
        <time>2015-10-31T14:11:18Z</time>
      </trkpt>
      <trkpt lat="48.68833" lon="-3.4002">
        <ele>53</ele>
        <time>2015-10-31T14:11:21Z</time>
      </trkpt>
      <trkpt lat="48.68816" lon="-3.40017">
        <ele>53</ele>
        <time>2015-10-31T14:11:24Z</time>
      </trkpt>
      <trkpt lat="48.688" lon="-3.40012">
        <ele>53</ele>
        <time>2015-10-31T14:11:27Z</time>
      </trkpt>
      <trkpt lat="48.68785" lon="-3.40007">
        <ele>52</ele>
        <time>2015-10-31T14:11:30Z</time>
      </trkpt>
      <trkpt lat="48.68774" lon="-3.40003">
        <ele>52</ele>
        <time>2015-10-31T14:11:32Z</time>
      </trkpt>
      <trkpt lat="48.68764" lon="-3.4">
        <ele>52</ele>
        <time>2015-10-31T14:11:34Z</time>
      </trkpt>
      <trkpt lat="48.68747" lon="-3.39995">
        <ele>52</ele>
        <time>2015-10-31T14:11:37Z</time>
      </trkpt>
      <trkpt lat="48.68737" lon="-3.39993">
        <ele>52</ele>
        <time>2015-10-31T14:11:39Z</time>
      </trkpt>
      <trkpt lat="48.68726" lon="-3.3999">
        <ele>52</ele>
        <time>2015-10-31T14:11:41Z</time>
      </trkpt>
      <trkpt lat="48.68715" lon="-3.39988">
        <ele>52</ele>
        <time>2015-10-31T14:11:43Z</time>
      </trkpt>
      <trkpt lat="48.68699" lon="-3.39983">
        <ele>52</ele>
        <time>2015-10-31T14:11:46Z</time>
      </trkpt>
      <trkpt lat="48.68683" lon="-3.39979">
        <ele>52</ele>
        <time>2015-10-31T14:11:49Z</time>
      </trkpt>
      <trkpt lat="48.68667" lon="-3.39973">
        <ele>52</ele>
        <time>2015-10-31T14:11:52Z</time>
      </trkpt>
      <trkpt lat="48.68652" lon="-3.39968">
        <ele>53</ele>
        <time>2015-10-31T14:11:55Z</time>
      </trkpt>
      <trkpt lat="48.68636" lon="-3.39962">
        <ele>53</ele>
        <time>2015-10-31T14:11:58Z</time>
      </trkpt>
      <trkpt lat="48.68619" lon="-3.39957">
        <ele>53</ele>
        <time>2015-10-31T14:12:01Z</time>
      </trkpt>
      <trkpt lat="48.68603" lon="-3.39954">
        <ele>53</ele>
        <time>2015-10-31T14:12:04Z</time>
      </trkpt>
      <trkpt lat="48.68583" lon="-3.39955">
        <ele>53</ele>
        <time>2015-10-31T14:12:08Z</time>
      </trkpt>
      <trkpt lat="48.68563" lon="-3.39958">
        <ele>53</ele>
        <time>2015-10-31T14:12:12Z</time>
      </trkpt>
      <trkpt lat="48.68537" lon="-3.39962">
        <ele>53</ele>
        <time>2015-10-31T14:12:17Z</time>
      </trkpt>
      <trkpt lat="48.6852" lon="-3.39966">
        <ele>53</ele>
        <time>2015-10-31T14:12:20Z</time>
      </trkpt>
      <trkpt lat="48.68504" lon="-3.39971">
        <ele>54</ele>
        <time>2015-10-31T14:12:23Z</time>
      </trkpt>
      <trkpt lat="48.68487" lon="-3.39974">
        <ele>54</ele>
        <time>2015-10-31T14:12:26Z</time>
      </trkpt>
      <trkpt lat="48.68445" lon="-3.3996">
        <ele>76</ele>
        <time>2015-10-31T14:12:34Z</time>
      </trkpt>
      <trkpt lat="48.68281" lon="-3.39868">
        <ele>48</ele>
        <time>2015-10-31T14:13:06Z</time>
      </trkpt>
      <trkpt lat="48.68263" lon="-3.39861">
        <ele>47</ele>
        <time>2015-10-31T14:13:09Z</time>
      </trkpt>
      <trkpt lat="48.68245" lon="-3.39853">
        <ele>46</ele>
        <time>2015-10-31T14:13:12Z</time>
      </trkpt>
      <trkpt lat="48.68234" lon="-3.39846">
        <ele>45</ele>
        <time>2015-10-31T14:13:14Z</time>
      </trkpt>
      <trkpt lat="48.68223" lon="-3.39839">
        <ele>44</ele>
        <time>2015-10-31T14:13:16Z</time>
      </trkpt>
      <trkpt lat="48.68213" lon="-3.39831">
        <ele>43</ele>
        <time>2015-10-31T14:13:18Z</time>
      </trkpt>
      <trkpt lat="48.68204" lon="-3.39821">
        <ele>43</ele>
        <time>2015-10-31T14:13:20Z</time>
      </trkpt>
      <trkpt lat="48.6819" lon="-3.39805">
        <ele>42</ele>
        <time>2015-10-31T14:13:23Z</time>
      </trkpt>
      <trkpt lat="48.68182" lon="-3.39794">
        <ele>41</ele>
        <time>2015-10-31T14:13:25Z</time>
      </trkpt>
      <trkpt lat="48.6817" lon="-3.39778">
        <ele>40</ele>
        <time>2015-10-31T14:13:28Z</time>
      </trkpt>
      <trkpt lat="48.68154" lon="-3.3976">
        <ele>40</ele>
        <time>2015-10-31T14:13:32Z</time>
      </trkpt>
      <trkpt lat="48.68146" lon="-3.39752">
        <ele>39</ele>
        <time>2015-10-31T14:13:34Z</time>
      </trkpt>
      <trkpt lat="48.68129" lon="-3.39735">
        <ele>38</ele>
        <time>2015-10-31T14:13:38Z</time>
      </trkpt>
      <trkpt lat="48.6812" lon="-3.39726">
        <ele>38</ele>
        <time>2015-10-31T14:13:40Z</time>
      </trkpt>
      <trkpt lat="48.68104" lon="-3.3971">
        <ele>36</ele>
        <time>2015-10-31T14:13:44Z</time>
      </trkpt>
      <trkpt lat="48.68087" lon="-3.39696">
        <ele>35</ele>
        <time>2015-10-31T14:13:48Z</time>
      </trkpt>
      <trkpt lat="48.68078" lon="-3.39689">
        <ele>35</ele>
        <time>2015-10-31T14:13:50Z</time>
      </trkpt>
      <trkpt lat="48.6807" lon="-3.39682">
        <ele>34</ele>
        <time>2015-10-31T14:13:52Z</time>
      </trkpt>
      <trkpt lat="48.68062" lon="-3.39675">
        <ele>33</ele>
        <time>2015-10-31T14:13:54Z</time>
      </trkpt>
      <trkpt lat="48.68053" lon="-3.39669">
        <ele>33</ele>
        <time>2015-10-31T14:13:56Z</time>
      </trkpt>
      <trkpt lat="48.68045" lon="-3.39662">
        <ele>33</ele>
        <time>2015-10-31T14:13:58Z</time>
      </trkpt>
      <trkpt lat="48.68038" lon="-3.39656">
        <ele>32</ele>
        <time>2015-10-31T14:14:00Z</time>
      </trkpt>
      <trkpt lat="48.68022" lon="-3.39642">
        <ele>32</ele>
        <time>2015-10-31T14:14:05Z</time>
      </trkpt>
      <trkpt lat="48.6801" lon="-3.39631">
        <ele>32</ele>
        <time>2015-10-31T14:14:09Z</time>
      </trkpt>
      <trkpt lat="48.68001" lon="-3.39623">
        <ele>32</ele>
        <time>2015-10-31T14:14:12Z</time>
      </trkpt>
      <trkpt lat="48.67992" lon="-3.39616">
        <ele>32</ele>
        <time>2015-10-31T14:14:15Z</time>
      </trkpt>
      <trkpt lat="48.6798" lon="-3.39607">
        <ele>31</ele>
        <time>2015-10-31T14:14:19Z</time>
      </trkpt>
      <trkpt lat="48.67971" lon="-3.396">
        <ele>32</ele>
        <time>2015-10-31T14:14:22Z</time>
      </trkpt>
      <trkpt lat="48.67958" lon="-3.39594">
        <ele>32</ele>
        <time>2015-10-31T14:14:26Z</time>
      </trkpt>
      <trkpt lat="48.67949" lon="-3.39591">
        <ele>32</ele>
        <time>2015-10-31T14:14:29Z</time>
      </trkpt>
      <trkpt lat="48.67938" lon="-3.39589">
        <ele>32</ele>
        <time>2015-10-31T14:14:33Z</time>
      </trkpt>
      <trkpt lat="48.67928" lon="-3.39587">
        <ele>32</ele>
        <time>2015-10-31T14:14:37Z</time>
      </trkpt>
      <trkpt lat="48.67917" lon="-3.39586">
        <ele>32</ele>
        <time>2015-10-31T14:14:41Z</time>
      </trkpt>
      <trkpt lat="48.67898" lon="-3.39584">
        <ele>32</ele>
        <time>2015-10-31T14:14:46Z</time>
      </trkpt>
      <trkpt lat="48.67879" lon="-3.3958">
        <ele>32</ele>
        <time>2015-10-31T14:14:50Z</time>
      </trkpt>
      <trkpt lat="48.67864" lon="-3.39579">
        <ele>33</ele>
        <time>2015-10-31T14:14:53Z</time>
      </trkpt>
      <trkpt lat="48.67848" lon="-3.3958">
        <ele>33</ele>
        <time>2015-10-31T14:14:56Z</time>
      </trkpt>
      <trkpt lat="48.67837" lon="-3.39581">
        <ele>33</ele>
        <time>2015-10-31T14:14:58Z</time>
      </trkpt>
      <trkpt lat="48.67821" lon="-3.39583">
        <ele>33</ele>
        <time>2015-10-31T14:15:01Z</time>
      </trkpt>
      <trkpt lat="48.6781" lon="-3.39582">
        <ele>34</ele>
        <time>2015-10-31T14:15:03Z</time>
      </trkpt>
      <trkpt lat="48.67795" lon="-3.39579">
        <ele>34</ele>
        <time>2015-10-31T14:15:06Z</time>
      </trkpt>
      <trkpt lat="48.67785" lon="-3.39576">
        <ele>34</ele>
        <time>2015-10-31T14:15:08Z</time>
      </trkpt>
      <trkpt lat="48.67776" lon="-3.39571">
        <ele>34</ele>
        <time>2015-10-31T14:15:10Z</time>
      </trkpt>
      <trkpt lat="48.67767" lon="-3.39566">
        <ele>35</ele>
        <time>2015-10-31T14:15:12Z</time>
      </trkpt>
      <trkpt lat="48.67758" lon="-3.39562">
        <ele>35</ele>
        <time>2015-10-31T14:15:14Z</time>
      </trkpt>
      <trkpt lat="48.67749" lon="-3.39558">
        <ele>35</ele>
        <time>2015-10-31T14:15:16Z</time>
      </trkpt>
      <trkpt lat="48.67731" lon="-3.39551">
        <ele>35</ele>
        <time>2015-10-31T14:15:20Z</time>
      </trkpt>
      <trkpt lat="48.67722" lon="-3.39548">
        <ele>35</ele>
        <time>2015-10-31T14:15:22Z</time>
      </trkpt>
      <trkpt lat="48.67714" lon="-3.39545">
        <ele>35</ele>
        <time>2015-10-31T14:15:24Z</time>
      </trkpt>
      <trkpt lat="48.67697" lon="-3.39541">
        <ele>35</ele>
        <time>2015-10-31T14:15:28Z</time>
      </trkpt>
      <trkpt lat="48.67688" lon="-3.39538">
        <ele>35</ele>
        <time>2015-10-31T14:15:30Z</time>
      </trkpt>
      <trkpt lat="48.67676" lon="-3.39533">
        <ele>36</ele>
        <time>2015-10-31T14:15:33Z</time>
      </trkpt>
      <trkpt lat="48.67668" lon="-3.39529">
        <ele>36</ele>
        <time>2015-10-31T14:15:35Z</time>
      </trkpt>
      <trkpt lat="48.67656" lon="-3.39522">
        <ele>36</ele>
        <time>2015-10-31T14:15:38Z</time>
      </trkpt>
      <trkpt lat="48.67649" lon="-3.39516">
        <ele>36</ele>
        <time>2015-10-31T14:15:40Z</time>
      </trkpt>
      <trkpt lat="48.67641" lon="-3.39511">
        <ele>36</ele>
        <time>2015-10-31T14:15:42Z</time>
      </trkpt>
      <trkpt lat="48.67633" lon="-3.39506">
        <ele>36</ele>
        <time>2015-10-31T14:15:44Z</time>
      </trkpt>
      <trkpt lat="48.67625" lon="-3.39501">
        <ele>36</ele>
        <time>2015-10-31T14:15:46Z</time>
      </trkpt>
      <trkpt lat="48.67616" lon="-3.39496">
        <ele>36</ele>
        <time>2015-10-31T14:15:48Z</time>
      </trkpt>
      <trkpt lat="48.67607" lon="-3.39491">
        <ele>37</ele>
        <time>2015-10-31T14:15:50Z</time>
      </trkpt>
      <trkpt lat="48.67593" lon="-3.39483">
        <ele>37</ele>
        <time>2015-10-31T14:15:53Z</time>
      </trkpt>
      <trkpt lat="48.67578" lon="-3.39475">
        <ele>37</ele>
        <time>2015-10-31T14:15:56Z</time>
      </trkpt>
      <trkpt lat="48.67568" lon="-3.3947">
        <ele>37</ele>
        <time>2015-10-31T14:15:58Z</time>
      </trkpt>
      <trkpt lat="48.67558" lon="-3.39465">
        <ele>37</ele>
        <time>2015-10-31T14:16:00Z</time>
      </trkpt>
      <trkpt lat="48.67543" lon="-3.39459">
        <ele>38</ele>
        <time>2015-10-31T14:16:03Z</time>
      </trkpt>
      <trkpt lat="48.67523" lon="-3.39455">
        <ele>38</ele>
        <time>2015-10-31T14:16:07Z</time>
      </trkpt>
      <trkpt lat="48.67503" lon="-3.39451">
        <ele>38</ele>
        <time>2015-10-31T14:16:11Z</time>
      </trkpt>
      <trkpt lat="48.67494" lon="-3.39448">
        <ele>38</ele>
        <time>2015-10-31T14:16:13Z</time>
      </trkpt>
      <trkpt lat="48.67485" lon="-3.39445">
        <ele>39</ele>
        <time>2015-10-31T14:16:15Z</time>
      </trkpt>
      <trkpt lat="48.67467" lon="-3.3944">
        <ele>39</ele>
        <time>2015-10-31T14:16:19Z</time>
      </trkpt>
      <trkpt lat="48.67459" lon="-3.39436">
        <ele>39</ele>
        <time>2015-10-31T14:16:21Z</time>
      </trkpt>
      <trkpt lat="48.67443" lon="-3.39429">
        <ele>39</ele>
        <time>2015-10-31T14:16:25Z</time>
      </trkpt>
      <trkpt lat="48.67428" lon="-3.39419">
        <ele>39</ele>
        <time>2015-10-31T14:16:29Z</time>
      </trkpt>
      <trkpt lat="48.67421" lon="-3.39415">
        <ele>40</ele>
        <time>2015-10-31T14:16:31Z</time>
      </trkpt>
      <trkpt lat="48.67405" lon="-3.39406">
        <ele>40</ele>
        <time>2015-10-31T14:16:35Z</time>
      </trkpt>
      <trkpt lat="48.67388" lon="-3.39399">
        <ele>40</ele>
        <time>2015-10-31T14:16:39Z</time>
      </trkpt>
      <trkpt lat="48.67375" lon="-3.39394">
        <ele>40</ele>
        <time>2015-10-31T14:16:42Z</time>
      </trkpt>
      <trkpt lat="48.67358" lon="-3.39388">
        <ele>41</ele>
        <time>2015-10-31T14:16:46Z</time>
      </trkpt>
      <trkpt lat="48.67341" lon="-3.39386">
        <ele>41</ele>
        <time>2015-10-31T14:16:50Z</time>
      </trkpt>
      <trkpt lat="48.67332" lon="-3.39386">
        <ele>41</ele>
        <time>2015-10-31T14:16:52Z</time>
      </trkpt>
      <trkpt lat="48.67314" lon="-3.3939">
        <ele>42</ele>
        <time>2015-10-31T14:16:56Z</time>
      </trkpt>
      <trkpt lat="48.67306" lon="-3.39393">
        <ele>42</ele>
        <time>2015-10-31T14:16:58Z</time>
      </trkpt>
      <trkpt lat="48.67289" lon="-3.39399">
        <ele>42</ele>
        <time>2015-10-31T14:17:02Z</time>
      </trkpt>
      <trkpt lat="48.6728" lon="-3.39403">
        <ele>42</ele>
        <time>2015-10-31T14:17:04Z</time>
      </trkpt>
      <trkpt lat="48.67272" lon="-3.39407">
        <ele>42</ele>
        <time>2015-10-31T14:17:06Z</time>
      </trkpt>
      <trkpt lat="48.67264" lon="-3.39411">
        <ele>42</ele>
        <time>2015-10-31T14:17:08Z</time>
      </trkpt>
      <trkpt lat="48.67257" lon="-3.39414">
        <ele>42</ele>
        <time>2015-10-31T14:17:10Z</time>
      </trkpt>
      <trkpt lat="48.67245" lon="-3.39419">
        <ele>43</ele>
        <time>2015-10-31T14:17:13Z</time>
      </trkpt>
      <trkpt lat="48.67237" lon="-3.39421">
        <ele>43</ele>
        <time>2015-10-31T14:17:15Z</time>
      </trkpt>
      <trkpt lat="48.67225" lon="-3.39424">
        <ele>42</ele>
        <time>2015-10-31T14:17:18Z</time>
      </trkpt>
      <trkpt lat="48.67208" lon="-3.39427">
        <ele>42</ele>
        <time>2015-10-31T14:17:22Z</time>
      </trkpt>
      <trkpt lat="48.67192" lon="-3.39429">
        <ele>41</ele>
        <time>2015-10-31T14:17:26Z</time>
      </trkpt>
      <trkpt lat="48.67183" lon="-3.3943">
        <ele>41</ele>
        <time>2015-10-31T14:17:28Z</time>
      </trkpt>
      <trkpt lat="48.67167" lon="-3.39432">
        <ele>41</ele>
        <time>2015-10-31T14:17:32Z</time>
      </trkpt>
      <trkpt lat="48.67155" lon="-3.39434">
        <ele>40</ele>
        <time>2015-10-31T14:17:35Z</time>
      </trkpt>
      <trkpt lat="48.67138" lon="-3.39437">
        <ele>40</ele>
        <time>2015-10-31T14:17:39Z</time>
      </trkpt>
      <trkpt lat="48.67126" lon="-3.3944">
        <ele>40</ele>
        <time>2015-10-31T14:17:42Z</time>
      </trkpt>
      <trkpt lat="48.67113" lon="-3.39443">
        <ele>40</ele>
        <time>2015-10-31T14:17:45Z</time>
      </trkpt>
      <trkpt lat="48.67105" lon="-3.39445">
        <ele>40</ele>
        <time>2015-10-31T14:17:47Z</time>
      </trkpt>
      <trkpt lat="48.67088" lon="-3.39451">
        <ele>40</ele>
        <time>2015-10-31T14:17:51Z</time>
      </trkpt>
      <trkpt lat="48.67071" lon="-3.39457">
        <ele>40</ele>
        <time>2015-10-31T14:17:55Z</time>
      </trkpt>
      <trkpt lat="48.67062" lon="-3.39462">
        <ele>40</ele>
        <time>2015-10-31T14:17:57Z</time>
      </trkpt>
      <trkpt lat="48.67046" lon="-3.39475">
        <ele>40</ele>
        <time>2015-10-31T14:18:01Z</time>
      </trkpt>
      <trkpt lat="48.6704" lon="-3.39485">
        <ele>40</ele>
        <time>2015-10-31T14:18:03Z</time>
      </trkpt>
      <trkpt lat="48.67034" lon="-3.39498">
        <ele>40</ele>
        <time>2015-10-31T14:18:05Z</time>
      </trkpt>
      <trkpt lat="48.67026" lon="-3.39518">
        <ele>41</ele>
        <time>2015-10-31T14:18:08Z</time>
      </trkpt>
      <trkpt lat="48.67016" lon="-3.39544">
        <ele>40</ele>
        <time>2015-10-31T14:18:12Z</time>
      </trkpt>
      <trkpt lat="48.67011" lon="-3.39556">
        <ele>40</ele>
        <time>2015-10-31T14:18:14Z</time>
      </trkpt>
      <trkpt lat="48.66996" lon="-3.3957">
        <ele>40</ele>
        <time>2015-10-31T14:18:18Z</time>
      </trkpt>
      <trkpt lat="48.66987" lon="-3.39574">
        <ele>40</ele>
        <time>2015-10-31T14:18:20Z</time>
      </trkpt>
      <trkpt lat="48.66977" lon="-3.39576">
        <ele>40</ele>
        <time>2015-10-31T14:18:22Z</time>
      </trkpt>
      <trkpt lat="48.66968" lon="-3.39579">
        <ele>40</ele>
        <time>2015-10-31T14:18:24Z</time>
      </trkpt>
      <trkpt lat="48.6696" lon="-3.39583">
        <ele>41</ele>
        <time>2015-10-31T14:18:26Z</time>
      </trkpt>
      <trkpt lat="48.66951" lon="-3.39587">
        <ele>41</ele>
        <time>2015-10-31T14:18:28Z</time>
      </trkpt>
      <trkpt lat="48.66943" lon="-3.39592">
        <ele>41</ele>
        <time>2015-10-31T14:18:30Z</time>
      </trkpt>
      <trkpt lat="48.66935" lon="-3.39596">
        <ele>41</ele>
        <time>2015-10-31T14:18:32Z</time>
      </trkpt>
      <trkpt lat="48.66918" lon="-3.39604">
        <ele>41</ele>
        <time>2015-10-31T14:18:36Z</time>
      </trkpt>
      <trkpt lat="48.6691" lon="-3.39608">
        <ele>42</ele>
        <time>2015-10-31T14:18:38Z</time>
      </trkpt>
      <trkpt lat="48.66902" lon="-3.39611">
        <ele>42</ele>
        <time>2015-10-31T14:18:40Z</time>
      </trkpt>
      <trkpt lat="48.6689" lon="-3.39618">
        <ele>42</ele>
        <time>2015-10-31T14:18:43Z</time>
      </trkpt>
      <trkpt lat="48.66875" lon="-3.39641">
        <ele>42</ele>
        <time>2015-10-31T14:18:48Z</time>
      </trkpt>
      <trkpt lat="48.66865" lon="-3.39663">
        <ele>43</ele>
        <time>2015-10-31T14:18:52Z</time>
      </trkpt>
      <trkpt lat="48.66861" lon="-3.39674">
        <ele>43</ele>
        <time>2015-10-31T14:18:54Z</time>
      </trkpt>
      <trkpt lat="48.6685" lon="-3.39692">
        <ele>43</ele>
        <time>2015-10-31T14:18:58Z</time>
      </trkpt>
      <trkpt lat="48.66835" lon="-3.39705">
        <ele>42</ele>
        <time>2015-10-31T14:19:02Z</time>
      </trkpt>
      <trkpt lat="48.66818" lon="-3.39712">
        <ele>42</ele>
        <time>2015-10-31T14:19:06Z</time>
      </trkpt>
      <trkpt lat="48.66801" lon="-3.39716">
        <ele>42</ele>
        <time>2015-10-31T14:19:10Z</time>
      </trkpt>
      <trkpt lat="48.66786" lon="-3.3972">
        <ele>42</ele>
        <time>2015-10-31T14:19:14Z</time>
      </trkpt>
      <trkpt lat="48.66772" lon="-3.39724">
        <ele>42</ele>
        <time>2015-10-31T14:19:19Z</time>
      </trkpt>
      <trkpt lat="48.66761" lon="-3.39728">
        <ele>42</ele>
        <time>2015-10-31T14:19:23Z</time>
      </trkpt>
      <trkpt lat="48.66752" lon="-3.3973">
        <ele>42</ele>
        <time>2015-10-31T14:19:26Z</time>
      </trkpt>
      <trkpt lat="48.66742" lon="-3.39733">
        <ele>42</ele>
        <time>2015-10-31T14:19:29Z</time>
      </trkpt>
      <trkpt lat="48.66733" lon="-3.39735">
        <ele>43</ele>
        <time>2015-10-31T14:19:32Z</time>
      </trkpt>
      <trkpt lat="48.66718" lon="-3.39738">
        <ele>43</ele>
        <time>2015-10-31T14:19:37Z</time>
      </trkpt>
      <trkpt lat="48.667" lon="-3.39739">
        <ele>44</ele>
        <time>2015-10-31T14:19:43Z</time>
      </trkpt>
      <trkpt lat="48.66683" lon="-3.39736">
        <ele>45</ele>
        <time>2015-10-31T14:19:49Z</time>
      </trkpt>
      <trkpt lat="48.66668" lon="-3.39729">
        <ele>46</ele>
        <time>2015-10-31T14:19:54Z</time>
      </trkpt>
      <trkpt lat="48.66652" lon="-3.39725">
        <ele>47</ele>
        <time>2015-10-31T14:19:59Z</time>
      </trkpt>
      <trkpt lat="48.66629" lon="-3.39716">
        <ele>48</ele>
        <time>2015-10-31T14:20:07Z</time>
      </trkpt>
      <trkpt lat="48.66614" lon="-3.3971">
        <ele>48</ele>
        <time>2015-10-31T14:20:11Z</time>
      </trkpt>
      <trkpt lat="48.66598" lon="-3.39706">
        <ele>49</ele>
        <time>2015-10-31T14:20:15Z</time>
      </trkpt>
      <trkpt lat="48.66581" lon="-3.39703">
        <ele>50</ele>
        <time>2015-10-31T14:20:19Z</time>
      </trkpt>
      <trkpt lat="48.66573" lon="-3.39702">
        <ele>50</ele>
        <time>2015-10-31T14:20:21Z</time>
      </trkpt>
      <trkpt lat="48.66556" lon="-3.39701">
        <ele>51</ele>
        <time>2015-10-31T14:20:25Z</time>
      </trkpt>
      <trkpt lat="48.66544" lon="-3.39702">
        <ele>51</ele>
        <time>2015-10-31T14:20:28Z</time>
      </trkpt>
      <trkpt lat="48.66528" lon="-3.39701">
        <ele>52</ele>
        <time>2015-10-31T14:20:32Z</time>
      </trkpt>
      <trkpt lat="48.66512" lon="-3.397">
        <ele>52</ele>
        <time>2015-10-31T14:20:36Z</time>
      </trkpt>
      <trkpt lat="48.66501" lon="-3.39699">
        <ele>53</ele>
        <time>2015-10-31T14:20:39Z</time>
      </trkpt>
      <trkpt lat="48.66486" lon="-3.39698">
        <ele>53</ele>
        <time>2015-10-31T14:20:43Z</time>
      </trkpt>
      <trkpt lat="48.66474" lon="-3.397">
        <ele>54</ele>
        <time>2015-10-31T14:20:46Z</time>
      </trkpt>
      <trkpt lat="48.66466" lon="-3.39702">
        <ele>54</ele>
        <time>2015-10-31T14:20:48Z</time>
      </trkpt>
      <trkpt lat="48.66458" lon="-3.39704">
        <ele>55</ele>
        <time>2015-10-31T14:20:50Z</time>
      </trkpt>
      <trkpt lat="48.66441" lon="-3.39708">
        <ele>55</ele>
        <time>2015-10-31T14:20:54Z</time>
      </trkpt>
      <trkpt lat="48.66427" lon="-3.3971">
        <ele>55</ele>
        <time>2015-10-31T14:20:57Z</time>
      </trkpt>
      <trkpt lat="48.66408" lon="-3.39709">
        <ele>56</ele>
        <time>2015-10-31T14:21:01Z</time>
      </trkpt>
      <trkpt lat="48.6639" lon="-3.39704">
        <ele>56</ele>
        <time>2015-10-31T14:21:05Z</time>
      </trkpt>
      <trkpt lat="48.66381" lon="-3.39702">
        <ele>57</ele>
        <time>2015-10-31T14:21:07Z</time>
      </trkpt>
      <trkpt lat="48.66362" lon="-3.39696">
        <ele>57</ele>
        <time>2015-10-31T14:21:11Z</time>
      </trkpt>
      <trkpt lat="48.66349" lon="-3.39691">
        <ele>57</ele>
        <time>2015-10-31T14:21:14Z</time>
      </trkpt>
      <trkpt lat="48.66331" lon="-3.39685">
        <ele>57</ele>
        <time>2015-10-31T14:21:18Z</time>
      </trkpt>
      <trkpt lat="48.66322" lon="-3.39682">
        <ele>58</ele>
        <time>2015-10-31T14:21:20Z</time>
      </trkpt>
      <trkpt lat="48.66313" lon="-3.39679">
        <ele>58</ele>
        <time>2015-10-31T14:21:22Z</time>
      </trkpt>
      <trkpt lat="48.66303" lon="-3.39676">
        <ele>58</ele>
        <time>2015-10-31T14:21:24Z</time>
      </trkpt>
      <trkpt lat="48.66289" lon="-3.39671">
        <ele>58</ele>
        <time>2015-10-31T14:21:27Z</time>
      </trkpt>
      <trkpt lat="48.66279" lon="-3.39668">
        <ele>58</ele>
        <time>2015-10-31T14:21:29Z</time>
      </trkpt>
      <trkpt lat="48.66264" lon="-3.39662">
        <ele>59</ele>
        <time>2015-10-31T14:21:32Z</time>
      </trkpt>
      <trkpt lat="48.66248" lon="-3.39655">
        <ele>59</ele>
        <time>2015-10-31T14:21:35Z</time>
      </trkpt>
      <trkpt lat="48.66237" lon="-3.39651">
        <ele>59</ele>
        <time>2015-10-31T14:21:37Z</time>
      </trkpt>
      <trkpt lat="48.66221" lon="-3.39642">
        <ele>59</ele>
        <time>2015-10-31T14:21:40Z</time>
      </trkpt>
      <trkpt lat="48.66206" lon="-3.39634">
        <ele>59</ele>
        <time>2015-10-31T14:21:43Z</time>
      </trkpt>
      <trkpt lat="48.6619" lon="-3.39627">
        <ele>59</ele>
        <time>2015-10-31T14:21:46Z</time>
      </trkpt>
      <trkpt lat="48.66174" lon="-3.39621">
        <ele>59</ele>
        <time>2015-10-31T14:21:49Z</time>
      </trkpt>
      <trkpt lat="48.66163" lon="-3.39617">
        <ele>59</ele>
        <time>2015-10-31T14:21:51Z</time>
      </trkpt>
      <trkpt lat="48.66146" lon="-3.39611">
        <ele>59</ele>
        <time>2015-10-31T14:21:54Z</time>
      </trkpt>
      <trkpt lat="48.6613" lon="-3.39606">
        <ele>59</ele>
        <time>2015-10-31T14:21:57Z</time>
      </trkpt>
      <trkpt lat="48.66118" lon="-3.39603">
        <ele>59</ele>
        <time>2015-10-31T14:21:59Z</time>
      </trkpt>
      <trkpt lat="48.66101" lon="-3.39599">
        <ele>58</ele>
        <time>2015-10-31T14:22:02Z</time>
      </trkpt>
      <trkpt lat="48.6609" lon="-3.39595">
        <ele>58</ele>
        <time>2015-10-31T14:22:04Z</time>
      </trkpt>
      <trkpt lat="48.66079" lon="-3.39592">
        <ele>59</ele>
        <time>2015-10-31T14:22:06Z</time>
      </trkpt>
      <trkpt lat="48.66068" lon="-3.39588">
        <ele>59</ele>
        <time>2015-10-31T14:22:08Z</time>
      </trkpt>
      <trkpt lat="48.66058" lon="-3.39583">
        <ele>59</ele>
        <time>2015-10-31T14:22:10Z</time>
      </trkpt>
      <trkpt lat="48.66047" lon="-3.39579">
        <ele>59</ele>
        <time>2015-10-31T14:22:12Z</time>
      </trkpt>
      <trkpt lat="48.66036" lon="-3.39574">
        <ele>59</ele>
        <time>2015-10-31T14:22:14Z</time>
      </trkpt>
      <trkpt lat="48.6602" lon="-3.39567">
        <ele>59</ele>
        <time>2015-10-31T14:22:17Z</time>
      </trkpt>
      <trkpt lat="48.66009" lon="-3.39563">
        <ele>59</ele>
        <time>2015-10-31T14:22:19Z</time>
      </trkpt>
      <trkpt lat="48.65998" lon="-3.39559">
        <ele>59</ele>
        <time>2015-10-31T14:22:21Z</time>
      </trkpt>
      <trkpt lat="48.65987" lon="-3.39554">
        <ele>59</ele>
        <time>2015-10-31T14:22:23Z</time>
      </trkpt>
      <trkpt lat="48.65976" lon="-3.3955">
        <ele>59</ele>
        <time>2015-10-31T14:22:25Z</time>
      </trkpt>
      <trkpt lat="48.65966" lon="-3.39544">
        <ele>59</ele>
        <time>2015-10-31T14:22:27Z</time>
      </trkpt>
      <trkpt lat="48.65951" lon="-3.39537">
        <ele>59</ele>
        <time>2015-10-31T14:22:30Z</time>
      </trkpt>
      <trkpt lat="48.6594" lon="-3.39531">
        <ele>59</ele>
        <time>2015-10-31T14:22:32Z</time>
      </trkpt>
      <trkpt lat="48.6593" lon="-3.39526">
        <ele>59</ele>
        <time>2015-10-31T14:22:34Z</time>
      </trkpt>
      <trkpt lat="48.6592" lon="-3.39522">
        <ele>59</ele>
        <time>2015-10-31T14:22:36Z</time>
      </trkpt>
      <trkpt lat="48.65904" lon="-3.39515">
        <ele>59</ele>
        <time>2015-10-31T14:22:39Z</time>
      </trkpt>
      <trkpt lat="48.65893" lon="-3.39511">
        <ele>59</ele>
        <time>2015-10-31T14:22:41Z</time>
      </trkpt>
      <trkpt lat="48.65883" lon="-3.39507">
        <ele>59</ele>
        <time>2015-10-31T14:22:43Z</time>
      </trkpt>
      <trkpt lat="48.65873" lon="-3.39503">
        <ele>59</ele>
        <time>2015-10-31T14:22:45Z</time>
      </trkpt>
      <trkpt lat="48.65862" lon="-3.39498">
        <ele>59</ele>
        <time>2015-10-31T14:22:47Z</time>
      </trkpt>
      <trkpt lat="48.65852" lon="-3.39495">
        <ele>59</ele>
        <time>2015-10-31T14:22:49Z</time>
      </trkpt>
      <trkpt lat="48.65841" lon="-3.39492">
        <ele>59</ele>
        <time>2015-10-31T14:22:51Z</time>
      </trkpt>
      <trkpt lat="48.6583" lon="-3.39489">
        <ele>59</ele>
        <time>2015-10-31T14:22:53Z</time>
      </trkpt>
      <trkpt lat="48.65819" lon="-3.39487">
        <ele>59</ele>
        <time>2015-10-31T14:22:55Z</time>
      </trkpt>
      <trkpt lat="48.65807" lon="-3.39485">
        <ele>59</ele>
        <time>2015-10-31T14:22:57Z</time>
      </trkpt>
      <trkpt lat="48.65796" lon="-3.39483">
        <ele>59</ele>
        <time>2015-10-31T14:22:59Z</time>
      </trkpt>
      <trkpt lat="48.6578" lon="-3.3948">
        <ele>59</ele>
        <time>2015-10-31T14:23:02Z</time>
      </trkpt>
      <trkpt lat="48.65769" lon="-3.39478">
        <ele>59</ele>
        <time>2015-10-31T14:23:04Z</time>
      </trkpt>
      <trkpt lat="48.65758" lon="-3.39477">
        <ele>59</ele>
        <time>2015-10-31T14:23:06Z</time>
      </trkpt>
      <trkpt lat="48.65741" lon="-3.39476">
        <ele>59</ele>
        <time>2015-10-31T14:23:09Z</time>
      </trkpt>
      <trkpt lat="48.65725" lon="-3.39477">
        <ele>59</ele>
        <time>2015-10-31T14:23:12Z</time>
      </trkpt>
      <trkpt lat="48.65709" lon="-3.39479">
        <ele>59</ele>
        <time>2015-10-31T14:23:15Z</time>
      </trkpt>
      <trkpt lat="48.65692" lon="-3.39481">
        <ele>60</ele>
        <time>2015-10-31T14:23:18Z</time>
      </trkpt>
      <trkpt lat="48.65676" lon="-3.39481">
        <ele>60</ele>
        <time>2015-10-31T14:23:21Z</time>
      </trkpt>
      <trkpt lat="48.65659" lon="-3.3948">
        <ele>60</ele>
        <time>2015-10-31T14:23:24Z</time>
      </trkpt>
      <trkpt lat="48.65648" lon="-3.3948">
        <ele>60</ele>
        <time>2015-10-31T14:23:26Z</time>
      </trkpt>
      <trkpt lat="48.65631" lon="-3.39479">
        <ele>60</ele>
        <time>2015-10-31T14:23:29Z</time>
      </trkpt>
      <trkpt lat="48.6562" lon="-3.39478">
        <ele>60</ele>
        <time>2015-10-31T14:23:31Z</time>
      </trkpt>
      <trkpt lat="48.65609" lon="-3.39477">
        <ele>60</ele>
        <time>2015-10-31T14:23:33Z</time>
      </trkpt>
      <trkpt lat="48.65598" lon="-3.39474">
        <ele>60</ele>
        <time>2015-10-31T14:23:35Z</time>
      </trkpt>
      <trkpt lat="48.65587" lon="-3.39472">
        <ele>60</ele>
        <time>2015-10-31T14:23:37Z</time>
      </trkpt>
      <trkpt lat="48.65576" lon="-3.39469">
        <ele>60</ele>
        <time>2015-10-31T14:23:39Z</time>
      </trkpt>
      <trkpt lat="48.65559" lon="-3.39468">
        <ele>60</ele>
        <time>2015-10-31T14:23:42Z</time>
      </trkpt>
      <trkpt lat="48.65547" lon="-3.39468">
        <ele>60</ele>
        <time>2015-10-31T14:23:44Z</time>
      </trkpt>
      <trkpt lat="48.6553" lon="-3.39473">
        <ele>61</ele>
        <time>2015-10-31T14:23:47Z</time>
      </trkpt>
      <trkpt lat="48.65519" lon="-3.39478">
        <ele>61</ele>
        <time>2015-10-31T14:23:49Z</time>
      </trkpt>
      <trkpt lat="48.65504" lon="-3.39486">
        <ele>61</ele>
        <time>2015-10-31T14:23:52Z</time>
      </trkpt>
      <trkpt lat="48.65488" lon="-3.39493">
        <ele>61</ele>
        <time>2015-10-31T14:23:55Z</time>
      </trkpt>
      <trkpt lat="48.65477" lon="-3.39496">
        <ele>61</ele>
        <time>2015-10-31T14:23:57Z</time>
      </trkpt>
      <trkpt lat="48.65466" lon="-3.39498">
        <ele>61</ele>
        <time>2015-10-31T14:23:59Z</time>
      </trkpt>
      <trkpt lat="48.65455" lon="-3.395">
        <ele>61</ele>
        <time>2015-10-31T14:24:01Z</time>
      </trkpt>
      <trkpt lat="48.6544" lon="-3.395">
        <ele>62</ele>
        <time>2015-10-31T14:24:04Z</time>
      </trkpt>
      <trkpt lat="48.65424" lon="-3.395">
        <ele>62</ele>
        <time>2015-10-31T14:24:07Z</time>
      </trkpt>
      <trkpt lat="48.65408" lon="-3.39496">
        <ele>62</ele>
        <time>2015-10-31T14:24:10Z</time>
      </trkpt>
      <trkpt lat="48.65392" lon="-3.39491">
        <ele>62</ele>
        <time>2015-10-31T14:24:13Z</time>
      </trkpt>
      <trkpt lat="48.65376" lon="-3.39488">
        <ele>62</ele>
        <time>2015-10-31T14:24:16Z</time>
      </trkpt>
      <trkpt lat="48.65359" lon="-3.39485">
        <ele>62</ele>
        <time>2015-10-31T14:24:19Z</time>
      </trkpt>
      <trkpt lat="48.65348" lon="-3.39482">
        <ele>63</ele>
        <time>2015-10-31T14:24:21Z</time>
      </trkpt>
      <trkpt lat="48.65332" lon="-3.39478">
        <ele>63</ele>
        <time>2015-10-31T14:24:24Z</time>
      </trkpt>
      <trkpt lat="48.65316" lon="-3.39473">
        <ele>63</ele>
        <time>2015-10-31T14:24:27Z</time>
      </trkpt>
      <trkpt lat="48.65299" lon="-3.39469">
        <ele>63</ele>
        <time>2015-10-31T14:24:30Z</time>
      </trkpt>
      <trkpt lat="48.65288" lon="-3.39467">
        <ele>63</ele>
        <time>2015-10-31T14:24:32Z</time>
      </trkpt>
      <trkpt lat="48.65276" lon="-3.39465">
        <ele>63</ele>
        <time>2015-10-31T14:24:34Z</time>
      </trkpt>
      <trkpt lat="48.65259" lon="-3.39462">
        <ele>64</ele>
        <time>2015-10-31T14:24:37Z</time>
      </trkpt>
      <trkpt lat="48.65241" lon="-3.39458">
        <ele>64</ele>
        <time>2015-10-31T14:24:40Z</time>
      </trkpt>
      <trkpt lat="48.65224" lon="-3.39455">
        <ele>64</ele>
        <time>2015-10-31T14:24:43Z</time>
      </trkpt>
      <trkpt lat="48.65207" lon="-3.39452">
        <ele>64</ele>
        <time>2015-10-31T14:24:46Z</time>
      </trkpt>
      <trkpt lat="48.65191" lon="-3.39448">
        <ele>64</ele>
        <time>2015-10-31T14:24:49Z</time>
      </trkpt>
      <trkpt lat="48.65175" lon="-3.39443">
        <ele>64</ele>
        <time>2015-10-31T14:24:52Z</time>
      </trkpt>
      <trkpt lat="48.65159" lon="-3.39439">
        <ele>64</ele>
        <time>2015-10-31T14:24:55Z</time>
      </trkpt>
      <trkpt lat="48.65149" lon="-3.39435">
        <ele>64</ele>
        <time>2015-10-31T14:24:57Z</time>
      </trkpt>
      <trkpt lat="48.65133" lon="-3.39431">
        <ele>64</ele>
        <time>2015-10-31T14:25:00Z</time>
      </trkpt>
      <trkpt lat="48.65118" lon="-3.39427">
        <ele>64</ele>
        <time>2015-10-31T14:25:03Z</time>
      </trkpt>
      <trkpt lat="48.65109" lon="-3.39425">
        <ele>64</ele>
        <time>2015-10-31T14:25:05Z</time>
      </trkpt>
      <trkpt lat="48.65099" lon="-3.39423">
        <ele>64</ele>
        <time>2015-10-31T14:25:07Z</time>
      </trkpt>
      <trkpt lat="48.65086" lon="-3.39419">
        <ele>65</ele>
        <time>2015-10-31T14:25:10Z</time>
      </trkpt>
      <trkpt lat="48.65067" lon="-3.39414">
        <ele>65</ele>
        <time>2015-10-31T14:25:14Z</time>
      </trkpt>
      <trkpt lat="48.65049" lon="-3.39412">
        <ele>65</ele>
        <time>2015-10-31T14:25:18Z</time>
      </trkpt>
      <trkpt lat="48.65026" lon="-3.39409">
        <ele>65</ele>
        <time>2015-10-31T14:25:23Z</time>
      </trkpt>
      <trkpt lat="48.65012" lon="-3.39407">
        <ele>65</ele>
        <time>2015-10-31T14:25:26Z</time>
      </trkpt>
      <trkpt lat="48.64998" lon="-3.39396">
        <ele>65</ele>
        <time>2015-10-31T14:25:34Z</time>
      </trkpt>
      <trkpt lat="48.65" lon="-3.39363">
        <ele>65</ele>
        <time>2015-10-31T14:25:40Z</time>
      </trkpt>
      <trkpt lat="48.65004" lon="-3.39333">
        <ele>65</ele>
        <time>2015-10-31T14:25:44Z</time>
      </trkpt>
      <trkpt lat="48.65005" lon="-3.39317">
        <ele>65</ele>
        <time>2015-10-31T14:25:46Z</time>
      </trkpt>
      <trkpt lat="48.65008" lon="-3.39293">
        <ele>65</ele>
        <time>2015-10-31T14:25:49Z</time>
      </trkpt>
      <trkpt lat="48.65011" lon="-3.39269">
        <ele>65</ele>
        <time>2015-10-31T14:25:52Z</time>
      </trkpt>
      <trkpt lat="48.65013" lon="-3.39246">
        <ele>65</ele>
        <time>2015-10-31T14:25:55Z</time>
      </trkpt>
      <trkpt lat="48.65015" lon="-3.39223">
        <ele>65</ele>
        <time>2015-10-31T14:25:58Z</time>
      </trkpt>
      <trkpt lat="48.65017" lon="-3.39208">
        <ele>65</ele>
        <time>2015-10-31T14:26:00Z</time>
      </trkpt>
      <trkpt lat="48.65019" lon="-3.39193">
        <ele>65</ele>
        <time>2015-10-31T14:26:02Z</time>
      </trkpt>
      <trkpt lat="48.65021" lon="-3.39178">
        <ele>65</ele>
        <time>2015-10-31T14:26:04Z</time>
      </trkpt>
      <trkpt lat="48.65023" lon="-3.39155">
        <ele>65</ele>
        <time>2015-10-31T14:26:07Z</time>
      </trkpt>
      <trkpt lat="48.65026" lon="-3.3914">
        <ele>65</ele>
        <time>2015-10-31T14:26:09Z</time>
      </trkpt>
      <trkpt lat="48.65029" lon="-3.39116">
        <ele>65</ele>
        <time>2015-10-31T14:26:12Z</time>
      </trkpt>
      <trkpt lat="48.65032" lon="-3.39092">
        <ele>65</ele>
        <time>2015-10-31T14:26:15Z</time>
      </trkpt>
      <trkpt lat="48.65034" lon="-3.39075">
        <ele>65</ele>
        <time>2015-10-31T14:26:17Z</time>
      </trkpt>
      <trkpt lat="48.65035" lon="-3.39059">
        <ele>65</ele>
        <time>2015-10-31T14:26:19Z</time>
      </trkpt>
      <trkpt lat="48.65035" lon="-3.39033">
        <ele>66</ele>
        <time>2015-10-31T14:26:22Z</time>
      </trkpt>
      <trkpt lat="48.65033" lon="-3.39017">
        <ele>66</ele>
        <time>2015-10-31T14:26:24Z</time>
      </trkpt>
      <trkpt lat="48.65031" lon="-3.38992">
        <ele>66</ele>
        <time>2015-10-31T14:26:27Z</time>
      </trkpt>
      <trkpt lat="48.65024" lon="-3.3896">
        <ele>66</ele>
        <time>2015-10-31T14:26:31Z</time>
      </trkpt>
      <trkpt lat="48.64412" lon="-3.3603">
        <ele>62</ele>
        <time>2015-10-31T14:35:22Z</time>
      </trkpt>
      <trkpt lat="48.64415" lon="-3.36012">
        <ele>62</ele>
        <time>2015-10-31T14:35:24Z</time>
      </trkpt>
      <trkpt lat="48.64421" lon="-3.35991">
        <ele>62</ele>
        <time>2015-10-31T14:35:28Z</time>
      </trkpt>
      <trkpt lat="48.64428" lon="-3.35969">
        <ele>63</ele>
        <time>2015-10-31T14:35:32Z</time>
      </trkpt>
      <trkpt lat="48.64434" lon="-3.35953">
        <ele>63</ele>
        <time>2015-10-31T14:35:35Z</time>
      </trkpt>
      <trkpt lat="48.64444" lon="-3.35929">
        <ele>63</ele>
        <time>2015-10-31T14:35:40Z</time>
      </trkpt>
      <trkpt lat="48.64454" lon="-3.35907">
        <ele>63</ele>
        <time>2015-10-31T14:35:45Z</time>
      </trkpt>
      <trkpt lat="48.64462" lon="-3.35886">
        <ele>63</ele>
        <time>2015-10-31T14:35:50Z</time>
      </trkpt>
      <trkpt lat="48.64458" lon="-3.35868">
        <ele>63</ele>
        <time>2015-10-31T14:35:54Z</time>
      </trkpt>
      <trkpt lat="48.6446" lon="-3.35879">
        <ele>60</ele>
        <time>2015-10-31T14:44:43Z</time>
      </trkpt>
      <trkpt lat="48.64472" lon="-3.35873">
        <ele>61</ele>
        <time>2015-10-31T14:45:58Z</time>
      </trkpt>
      <trkpt lat="48.6448" lon="-3.35864">
        <ele>61</ele>
        <time>2015-10-31T14:46:02Z</time>
      </trkpt>
      <trkpt lat="48.64493" lon="-3.35847">
        <ele>60</ele>
        <time>2015-10-31T14:46:08Z</time>
      </trkpt>
      <trkpt lat="48.64501" lon="-3.35833">
        <ele>60</ele>
        <time>2015-10-31T14:46:12Z</time>
      </trkpt>
      <trkpt lat="48.64511" lon="-3.35811">
        <ele>60</ele>
        <time>2015-10-31T14:46:17Z</time>
      </trkpt>
      <trkpt lat="48.64519" lon="-3.35785">
        <ele>60</ele>
        <time>2015-10-31T14:46:22Z</time>
      </trkpt>
      <trkpt lat="48.64522" lon="-3.35772">
        <ele>60</ele>
        <time>2015-10-31T14:46:24Z</time>
      </trkpt>
      <trkpt lat="48.64529" lon="-3.35743">
        <ele>60</ele>
        <time>2015-10-31T14:46:28Z</time>
      </trkpt>
      <trkpt lat="48.64534" lon="-3.35718">
        <ele>60</ele>
        <time>2015-10-31T14:46:31Z</time>
      </trkpt>
      <trkpt lat="48.64538" lon="-3.35702">
        <ele>59</ele>
        <time>2015-10-31T14:46:33Z</time>
      </trkpt>
      <trkpt lat="48.64545" lon="-3.35678">
        <ele>59</ele>
        <time>2015-10-31T14:46:36Z</time>
      </trkpt>
      <trkpt lat="48.64552" lon="-3.35655">
        <ele>59</ele>
        <time>2015-10-31T14:46:39Z</time>
      </trkpt>
      <trkpt lat="48.64561" lon="-3.35634">
        <ele>59</ele>
        <time>2015-10-31T14:46:42Z</time>
      </trkpt>
      <trkpt lat="48.64573" lon="-3.35611">
        <ele>59</ele>
        <time>2015-10-31T14:46:46Z</time>
      </trkpt>
      <trkpt lat="48.64585" lon="-3.35592">
        <ele>59</ele>
        <time>2015-10-31T14:46:50Z</time>
      </trkpt>
      <trkpt lat="48.64597" lon="-3.35573">
        <ele>59</ele>
        <time>2015-10-31T14:46:54Z</time>
      </trkpt>
      <trkpt lat="48.6462" lon="-3.3551">
        <ele>59</ele>
        <time>2015-10-31T14:47:02Z</time>
      </trkpt>
      <trkpt lat="48.64628" lon="-3.35486">
        <ele>59</ele>
        <time>2015-10-31T14:47:05Z</time>
      </trkpt>
      <trkpt lat="48.64642" lon="-3.35443">
        <ele>58</ele>
        <time>2015-10-31T14:47:11Z</time>
      </trkpt>
      <trkpt lat="48.64649" lon="-3.35422">
        <ele>58</ele>
        <time>2015-10-31T14:47:14Z</time>
      </trkpt>
      <trkpt lat="48.64658" lon="-3.35395">
        <ele>58</ele>
        <time>2015-10-31T14:47:18Z</time>
      </trkpt>
      <trkpt lat="48.64663" lon="-3.35381">
        <ele>57</ele>
        <time>2015-10-31T14:47:20Z</time>
      </trkpt>
      <trkpt lat="48.64672" lon="-3.35354">
        <ele>57</ele>
        <time>2015-10-31T14:47:24Z</time>
      </trkpt>
      <trkpt lat="48.64678" lon="-3.35332">
        <ele>57</ele>
        <time>2015-10-31T14:47:27Z</time>
      </trkpt>
      <trkpt lat="48.64683" lon="-3.3531">
        <ele>57</ele>
        <time>2015-10-31T14:47:30Z</time>
      </trkpt>
      <trkpt lat="48.64685" lon="-3.35286">
        <ele>57</ele>
        <time>2015-10-31T14:47:33Z</time>
      </trkpt>
      <trkpt lat="48.64689" lon="-3.35262">
        <ele>57</ele>
        <time>2015-10-31T14:47:36Z</time>
      </trkpt>
      <trkpt lat="48.64692" lon="-3.35239">
        <ele>57</ele>
        <time>2015-10-31T14:47:39Z</time>
      </trkpt>
      <trkpt lat="48.64696" lon="-3.35216">
        <ele>57</ele>
        <time>2015-10-31T14:47:42Z</time>
      </trkpt>
      <trkpt lat="48.64702" lon="-3.3518">
        <ele>57</ele>
        <time>2015-10-31T14:47:47Z</time>
      </trkpt>
      <trkpt lat="48.64709" lon="-3.35152">
        <ele>57</ele>
        <time>2015-10-31T14:47:51Z</time>
      </trkpt>
      <trkpt lat="48.64715" lon="-3.3513">
        <ele>57</ele>
        <time>2015-10-31T14:47:54Z</time>
      </trkpt>
      <trkpt lat="48.6472" lon="-3.35108">
        <ele>57</ele>
        <time>2015-10-31T14:47:57Z</time>
      </trkpt>
      <trkpt lat="48.64727" lon="-3.35078">
        <ele>58</ele>
        <time>2015-10-31T14:48:01Z</time>
      </trkpt>
      <trkpt lat="48.64732" lon="-3.35055">
        <ele>58</ele>
        <time>2015-10-31T14:48:04Z</time>
      </trkpt>
      <trkpt lat="48.64738" lon="-3.35032">
        <ele>58</ele>
        <time>2015-10-31T14:48:07Z</time>
      </trkpt>
      <trkpt lat="48.64741" lon="-3.35017">
        <ele>58</ele>
        <time>2015-10-31T14:48:09Z</time>
      </trkpt>
      <trkpt lat="48.64749" lon="-3.3499">
        <ele>58</ele>
        <time>2015-10-31T14:48:13Z</time>
      </trkpt>
      <trkpt lat="48.64752" lon="-3.34976">
        <ele>58</ele>
        <time>2015-10-31T14:48:15Z</time>
      </trkpt>
      <trkpt lat="48.64757" lon="-3.34951">
        <ele>57</ele>
        <time>2015-10-31T14:48:19Z</time>
      </trkpt>
      <trkpt lat="48.64764" lon="-3.34928">
        <ele>57</ele>
        <time>2015-10-31T14:48:23Z</time>
      </trkpt>
      <trkpt lat="48.6477" lon="-3.34905">
        <ele>57</ele>
        <time>2015-10-31T14:48:27Z</time>
      </trkpt>
      <trkpt lat="48.64777" lon="-3.34884">
        <ele>57</ele>
        <time>2015-10-31T14:48:31Z</time>
      </trkpt>
      <trkpt lat="48.64784" lon="-3.34863">
        <ele>58</ele>
        <time>2015-10-31T14:48:35Z</time>
      </trkpt>
      <trkpt lat="48.64793" lon="-3.34842">
        <ele>58</ele>
        <time>2015-10-31T14:48:39Z</time>
      </trkpt>
      <trkpt lat="48.64798" lon="-3.34833">
        <ele>58</ele>
        <time>2015-10-31T14:48:41Z</time>
      </trkpt>
      <trkpt lat="48.64811" lon="-3.34818">
        <ele>58</ele>
        <time>2015-10-31T14:48:45Z</time>
      </trkpt>
      <trkpt lat="48.64819" lon="-3.34812">
        <ele>59</ele>
        <time>2015-10-31T14:48:47Z</time>
      </trkpt>
      <trkpt lat="48.64827" lon="-3.34805">
        <ele>59</ele>
        <time>2015-10-31T14:48:49Z</time>
      </trkpt>
      <trkpt lat="48.64836" lon="-3.34798">
        <ele>59</ele>
        <time>2015-10-31T14:48:51Z</time>
      </trkpt>
      <trkpt lat="48.64844" lon="-3.34792">
        <ele>59</ele>
        <time>2015-10-31T14:48:53Z</time>
      </trkpt>
      <trkpt lat="48.64853" lon="-3.34786">
        <ele>59</ele>
        <time>2015-10-31T14:48:55Z</time>
      </trkpt>
      <trkpt lat="48.64861" lon="-3.3478">
        <ele>60</ele>
        <time>2015-10-31T14:48:57Z</time>
      </trkpt>
      <trkpt lat="48.6487" lon="-3.34775">
        <ele>60</ele>
        <time>2015-10-31T14:48:59Z</time>
      </trkpt>
      <trkpt lat="48.64879" lon="-3.34771">
        <ele>60</ele>
        <time>2015-10-31T14:49:01Z</time>
      </trkpt>
      <trkpt lat="48.64889" lon="-3.34767">
        <ele>60</ele>
        <time>2015-10-31T14:49:03Z</time>
      </trkpt>
      <trkpt lat="48.64899" lon="-3.34763">
        <ele>60</ele>
        <time>2015-10-31T14:49:05Z</time>
      </trkpt>
      <trkpt lat="48.64909" lon="-3.3476">
        <ele>60</ele>
        <time>2015-10-31T14:49:07Z</time>
      </trkpt>
      <trkpt lat="48.64919" lon="-3.34757">
        <ele>60</ele>
        <time>2015-10-31T14:49:09Z</time>
      </trkpt>
      <trkpt lat="48.64929" lon="-3.34753">
        <ele>60</ele>
        <time>2015-10-31T14:49:11Z</time>
      </trkpt>
      <trkpt lat="48.64938" lon="-3.34749">
        <ele>60</ele>
        <time>2015-10-31T14:49:13Z</time>
      </trkpt>
      <trkpt lat="48.64948" lon="-3.34745">
        <ele>61</ele>
        <time>2015-10-31T14:49:15Z</time>
      </trkpt>
      <trkpt lat="48.64957" lon="-3.3474">
        <ele>61</ele>
        <time>2015-10-31T14:49:17Z</time>
      </trkpt>
      <trkpt lat="48.64966" lon="-3.34734">
        <ele>61</ele>
        <time>2015-10-31T14:49:19Z</time>
      </trkpt>
      <trkpt lat="48.64985" lon="-3.34721">
        <ele>61</ele>
        <time>2015-10-31T14:49:23Z</time>
      </trkpt>
      <trkpt lat="48.64998" lon="-3.3471">
        <ele>61</ele>
        <time>2015-10-31T14:49:26Z</time>
      </trkpt>
      <trkpt lat="48.65016" lon="-3.34697">
        <ele>61</ele>
        <time>2015-10-31T14:49:30Z</time>
      </trkpt>
      <trkpt lat="48.65025" lon="-3.34692">
        <ele>62</ele>
        <time>2015-10-31T14:49:32Z</time>
      </trkpt>
      <trkpt lat="48.65034" lon="-3.34686">
        <ele>62</ele>
        <time>2015-10-31T14:49:34Z</time>
      </trkpt>
      <trkpt lat="48.65052" lon="-3.34677">
        <ele>62</ele>
        <time>2015-10-31T14:49:38Z</time>
      </trkpt>
      <trkpt lat="48.65062" lon="-3.34672">
        <ele>62</ele>
        <time>2015-10-31T14:49:40Z</time>
      </trkpt>
      <trkpt lat="48.6508" lon="-3.34662">
        <ele>62</ele>
        <time>2015-10-31T14:49:44Z</time>
      </trkpt>
      <trkpt lat="48.65094" lon="-3.34653">
        <ele>62</ele>
        <time>2015-10-31T14:49:47Z</time>
      </trkpt>
      <trkpt lat="48.65105" lon="-3.34647">
        <ele>62</ele>
        <time>2015-10-31T14:49:49Z</time>
      </trkpt>
      <trkpt lat="48.65122" lon="-3.34638">
        <ele>62</ele>
        <time>2015-10-31T14:49:52Z</time>
      </trkpt>
      <trkpt lat="48.65139" lon="-3.34628">
        <ele>63</ele>
        <time>2015-10-31T14:49:55Z</time>
      </trkpt>
      <trkpt lat="48.65156" lon="-3.34617">
        <ele>63</ele>
        <time>2015-10-31T14:49:58Z</time>
      </trkpt>
      <trkpt lat="48.65165" lon="-3.3461">
        <ele>63</ele>
        <time>2015-10-31T14:50:00Z</time>
      </trkpt>
      <trkpt lat="48.65239" lon="-3.34544">
        <ele>63</ele>
        <time>2015-10-31T14:50:19Z</time>
      </trkpt>
      <trkpt lat="48.65289" lon="-3.3447">
        <ele>64</ele>
        <time>2015-10-31T14:50:30Z</time>
      </trkpt>
      <trkpt lat="48.65304" lon="-3.34453">
        <ele>64</ele>
        <time>2015-10-31T14:50:33Z</time>
      </trkpt>
      <trkpt lat="48.6532" lon="-3.3444">
        <ele>64</ele>
        <time>2015-10-31T14:50:36Z</time>
      </trkpt>
      <trkpt lat="48.65331" lon="-3.34432">
        <ele>65</ele>
        <time>2015-10-31T14:50:38Z</time>
      </trkpt>
      <trkpt lat="48.65346" lon="-3.34418">
        <ele>65</ele>
        <time>2015-10-31T14:50:41Z</time>
      </trkpt>
      <trkpt lat="48.6536" lon="-3.34403">
        <ele>65</ele>
        <time>2015-10-31T14:50:44Z</time>
      </trkpt>
      <trkpt lat="48.65372" lon="-3.34385">
        <ele>65</ele>
        <time>2015-10-31T14:50:47Z</time>
      </trkpt>
      <trkpt lat="48.65383" lon="-3.34365">
        <ele>65</ele>
        <time>2015-10-31T14:50:50Z</time>
      </trkpt>
      <trkpt lat="48.65393" lon="-3.34347">
        <ele>66</ele>
        <time>2015-10-31T14:50:53Z</time>
      </trkpt>
      <trkpt lat="48.65409" lon="-3.34317">
        <ele>66</ele>
        <time>2015-10-31T14:50:58Z</time>
      </trkpt>
      <trkpt lat="48.6542" lon="-3.343">
        <ele>65</ele>
        <time>2015-10-31T14:51:01Z</time>
      </trkpt>
      <trkpt lat="48.65479" lon="-3.34164">
        <ele>110</ele>
        <time>2015-10-31T14:51:22Z</time>
      </trkpt>
      <trkpt lat="48.65552" lon="-3.33993">
        <ele>65</ele>
        <time>2015-10-31T14:51:45Z</time>
      </trkpt>
      <trkpt lat="48.65607" lon="-3.33936">
        <ele>65</ele>
        <time>2015-10-31T14:51:56Z</time>
      </trkpt>
      <trkpt lat="48.65626" lon="-3.33929">
        <ele>65</ele>
        <time>2015-10-31T14:51:59Z</time>
      </trkpt>
      <trkpt lat="48.65647" lon="-3.33924">
        <ele>64</ele>
        <time>2015-10-31T14:52:02Z</time>
      </trkpt>
      <trkpt lat="48.6566" lon="-3.33919">
        <ele>64</ele>
        <time>2015-10-31T14:52:04Z</time>
      </trkpt>
      <trkpt lat="48.65686" lon="-3.33908">
        <ele>64</ele>
        <time>2015-10-31T14:52:08Z</time>
      </trkpt>
      <trkpt lat="48.65698" lon="-3.339">
        <ele>63</ele>
        <time>2015-10-31T14:52:10Z</time>
      </trkpt>
      <trkpt lat="48.65715" lon="-3.33888">
        <ele>63</ele>
        <time>2015-10-31T14:52:13Z</time>
      </trkpt>
      <trkpt lat="48.6573" lon="-3.33873">
        <ele>63</ele>
        <time>2015-10-31T14:52:16Z</time>
      </trkpt>
      <trkpt lat="48.65743" lon="-3.33851">
        <ele>63</ele>
        <time>2015-10-31T14:52:20Z</time>
      </trkpt>
      <trkpt lat="48.65758" lon="-3.33836">
        <ele>62</ele>
        <time>2015-10-31T14:52:24Z</time>
      </trkpt>
      <trkpt lat="48.65775" lon="-3.33823">
        <ele>62</ele>
        <time>2015-10-31T14:52:28Z</time>
      </trkpt>
      <trkpt lat="48.65789" lon="-3.33804">
        <ele>62</ele>
        <time>2015-10-31T14:52:32Z</time>
      </trkpt>
      <trkpt lat="48.65803" lon="-3.33783">
        <ele>62</ele>
        <time>2015-10-31T14:52:36Z</time>
      </trkpt>
      <trkpt lat="48.65818" lon="-3.33761">
        <ele>62</ele>
        <time>2015-10-31T14:52:40Z</time>
      </trkpt>
      <trkpt lat="48.65829" lon="-3.33744">
        <ele>62</ele>
        <time>2015-10-31T14:52:43Z</time>
      </trkpt>
      <trkpt lat="48.6584" lon="-3.33727">
        <ele>62</ele>
        <time>2015-10-31T14:52:46Z</time>
      </trkpt>
      <trkpt lat="48.65848" lon="-3.33717">
        <ele>62</ele>
        <time>2015-10-31T14:52:48Z</time>
      </trkpt>
      <trkpt lat="48.65867" lon="-3.33707">
        <ele>62</ele>
        <time>2015-10-31T14:52:52Z</time>
      </trkpt>
      <trkpt lat="48.65877" lon="-3.33705">
        <ele>62</ele>
        <time>2015-10-31T14:52:54Z</time>
      </trkpt>
      <trkpt lat="48.65888" lon="-3.33706">
        <ele>62</ele>
        <time>2015-10-31T14:52:56Z</time>
      </trkpt>
      <trkpt lat="48.659" lon="-3.33711">
        <ele>62</ele>
        <time>2015-10-31T14:52:58Z</time>
      </trkpt>
      <trkpt lat="48.65912" lon="-3.33721">
        <ele>62</ele>
        <time>2015-10-31T14:53:00Z</time>
      </trkpt>
      <trkpt lat="48.65929" lon="-3.3374">
        <ele>62</ele>
        <time>2015-10-31T14:53:03Z</time>
      </trkpt>
      <trkpt lat="48.6594" lon="-3.33755">
        <ele>62</ele>
        <time>2015-10-31T14:53:05Z</time>
      </trkpt>
      <trkpt lat="48.65952" lon="-3.3377">
        <ele>62</ele>
        <time>2015-10-31T14:53:07Z</time>
      </trkpt>
      <trkpt lat="48.65959" lon="-3.33778">
        <ele>62</ele>
        <time>2015-10-31T14:53:08Z</time>
      </trkpt>
      <trkpt lat="48.65966" lon="-3.33785">
        <ele>62</ele>
        <time>2015-10-31T14:53:09Z</time>
      </trkpt>
      <trkpt lat="48.65973" lon="-3.33793">
        <ele>62</ele>
        <time>2015-10-31T14:53:10Z</time>
      </trkpt>
      <trkpt lat="48.6598" lon="-3.33799">
        <ele>62</ele>
        <time>2015-10-31T14:53:11Z</time>
      </trkpt>
      <trkpt lat="48.65987" lon="-3.33805">
        <ele>62</ele>
        <time>2015-10-31T14:53:12Z</time>
      </trkpt>
      <trkpt lat="48.65995" lon="-3.33811">
        <ele>62</ele>
        <time>2015-10-31T14:53:13Z</time>
      </trkpt>
      <trkpt lat="48.66002" lon="-3.33817">
        <ele>62</ele>
        <time>2015-10-31T14:53:14Z</time>
      </trkpt>
      <trkpt lat="48.6601" lon="-3.33822">
        <ele>62</ele>
        <time>2015-10-31T14:53:15Z</time>
      </trkpt>
      <trkpt lat="48.66026" lon="-3.3383">
        <ele>62</ele>
        <time>2015-10-31T14:53:17Z</time>
      </trkpt>
      <trkpt lat="48.66041" lon="-3.33835">
        <ele>62</ele>
        <time>2015-10-31T14:53:19Z</time>
      </trkpt>
      <trkpt lat="48.66055" lon="-3.33837">
        <ele>62</ele>
        <time>2015-10-31T14:53:21Z</time>
      </trkpt>
      <trkpt lat="48.6607" lon="-3.33839">
        <ele>62</ele>
        <time>2015-10-31T14:53:23Z</time>
      </trkpt>
      <trkpt lat="48.66091" lon="-3.33839">
        <ele>62</ele>
        <time>2015-10-31T14:53:26Z</time>
      </trkpt>
      <trkpt lat="48.66112" lon="-3.33839">
        <ele>62</ele>
        <time>2015-10-31T14:53:29Z</time>
      </trkpt>
      <trkpt lat="48.66131" lon="-3.33839">
        <ele>62</ele>
        <time>2015-10-31T14:53:32Z</time>
      </trkpt>
      <trkpt lat="48.66151" lon="-3.33838">
        <ele>62</ele>
        <time>2015-10-31T14:53:35Z</time>
      </trkpt>
      <trkpt lat="48.66163" lon="-3.33837">
        <ele>62</ele>
        <time>2015-10-31T14:53:37Z</time>
      </trkpt>
      <trkpt lat="48.66183" lon="-3.33835">
        <ele>62</ele>
        <time>2015-10-31T14:53:40Z</time>
      </trkpt>
      <trkpt lat="48.66202" lon="-3.33833">
        <ele>63</ele>
        <time>2015-10-31T14:53:43Z</time>
      </trkpt>
      <trkpt lat="48.66215" lon="-3.33831">
        <ele>63</ele>
        <time>2015-10-31T14:53:45Z</time>
      </trkpt>
      <trkpt lat="48.66228" lon="-3.3383">
        <ele>63</ele>
        <time>2015-10-31T14:53:47Z</time>
      </trkpt>
      <trkpt lat="48.66247" lon="-3.33824">
        <ele>63</ele>
        <time>2015-10-31T14:53:50Z</time>
      </trkpt>
      <trkpt lat="48.66263" lon="-3.33808">
        <ele>63</ele>
        <time>2015-10-31T14:53:53Z</time>
      </trkpt>
      <trkpt lat="48.66326" lon="-3.33727">
        <ele>63</ele>
        <time>2015-10-31T14:54:06Z</time>
      </trkpt>
      <trkpt lat="48.66342" lon="-3.33711">
        <ele>62</ele>
        <time>2015-10-31T14:54:09Z</time>
      </trkpt>
      <trkpt lat="48.66358" lon="-3.33696">
        <ele>62</ele>
        <time>2015-10-31T14:54:12Z</time>
      </trkpt>
      <trkpt lat="48.66379" lon="-3.33678">
        <ele>62</ele>
        <time>2015-10-31T14:54:16Z</time>
      </trkpt>
      <trkpt lat="48.66394" lon="-3.33665">
        <ele>62</ele>
        <time>2015-10-31T14:54:19Z</time>
      </trkpt>
      <trkpt lat="48.66432" lon="-3.33629">
        <ele>61</ele>
        <time>2015-10-31T14:54:27Z</time>
      </trkpt>
      <trkpt lat="48.66459" lon="-3.33596">
        <ele>61</ele>
        <time>2015-10-31T14:54:32Z</time>
      </trkpt>
      <trkpt lat="48.66475" lon="-3.33576">
        <ele>60</ele>
        <time>2015-10-31T14:54:35Z</time>
      </trkpt>
      <trkpt lat="48.66491" lon="-3.33557">
        <ele>60</ele>
        <time>2015-10-31T14:54:38Z</time>
      </trkpt>
      <trkpt lat="48.66507" lon="-3.33538">
        <ele>59</ele>
        <time>2015-10-31T14:54:41Z</time>
      </trkpt>
      <trkpt lat="48.66518" lon="-3.33526">
        <ele>58</ele>
        <time>2015-10-31T14:54:43Z</time>
      </trkpt>
      <trkpt lat="48.66533" lon="-3.33508">
        <ele>58</ele>
        <time>2015-10-31T14:54:46Z</time>
      </trkpt>
      <trkpt lat="48.66548" lon="-3.33491">
        <ele>58</ele>
        <time>2015-10-31T14:54:49Z</time>
      </trkpt>
      <trkpt lat="48.66563" lon="-3.33475">
        <ele>57</ele>
        <time>2015-10-31T14:54:52Z</time>
      </trkpt>
      <trkpt lat="48.66577" lon="-3.33459">
        <ele>57</ele>
        <time>2015-10-31T14:54:55Z</time>
      </trkpt>
      <trkpt lat="48.66586" lon="-3.33449">
        <ele>57</ele>
        <time>2015-10-31T14:54:57Z</time>
      </trkpt>
      <trkpt lat="48.66596" lon="-3.33438">
        <ele>56</ele>
        <time>2015-10-31T14:54:59Z</time>
      </trkpt>
      <trkpt lat="48.6661" lon="-3.33422">
        <ele>56</ele>
        <time>2015-10-31T14:55:02Z</time>
      </trkpt>
      <trkpt lat="48.66624" lon="-3.33406">
        <ele>56</ele>
        <time>2015-10-31T14:55:05Z</time>
      </trkpt>
      <trkpt lat="48.66638" lon="-3.33393">
        <ele>56</ele>
        <time>2015-10-31T14:55:08Z</time>
      </trkpt>
      <trkpt lat="48.66659" lon="-3.33374">
        <ele>56</ele>
        <time>2015-10-31T14:55:13Z</time>
      </trkpt>
      <trkpt lat="48.66689" lon="-3.33349">
        <ele>56</ele>
        <time>2015-10-31T14:55:20Z</time>
      </trkpt>
      <trkpt lat="48.66707" lon="-3.3333">
        <ele>56</ele>
        <time>2015-10-31T14:55:24Z</time>
      </trkpt>
      <trkpt lat="48.66722" lon="-3.33314">
        <ele>55</ele>
        <time>2015-10-31T14:55:27Z</time>
      </trkpt>
      <trkpt lat="48.66736" lon="-3.33298">
        <ele>55</ele>
        <time>2015-10-31T14:55:30Z</time>
      </trkpt>
      <trkpt lat="48.66746" lon="-3.33288">
        <ele>55</ele>
        <time>2015-10-31T14:55:32Z</time>
      </trkpt>
      <trkpt lat="48.66761" lon="-3.33272">
        <ele>55</ele>
        <time>2015-10-31T14:55:35Z</time>
      </trkpt>
      <trkpt lat="48.6677" lon="-3.33262">
        <ele>55</ele>
        <time>2015-10-31T14:55:37Z</time>
      </trkpt>
      <trkpt lat="48.66785" lon="-3.33247">
        <ele>55</ele>
        <time>2015-10-31T14:55:40Z</time>
      </trkpt>
      <trkpt lat="48.66799" lon="-3.33233">
        <ele>55</ele>
        <time>2015-10-31T14:55:43Z</time>
      </trkpt>
      <trkpt lat="48.66812" lon="-3.33219">
        <ele>55</ele>
        <time>2015-10-31T14:55:46Z</time>
      </trkpt>
      <trkpt lat="48.66826" lon="-3.33206">
        <ele>55</ele>
        <time>2015-10-31T14:55:49Z</time>
      </trkpt>
      <trkpt lat="48.66835" lon="-3.33197">
        <ele>55</ele>
        <time>2015-10-31T14:55:51Z</time>
      </trkpt>
      <trkpt lat="48.66843" lon="-3.33188">
        <ele>55</ele>
        <time>2015-10-31T14:55:53Z</time>
      </trkpt>
      <trkpt lat="48.66852" lon="-3.33178">
        <ele>55</ele>
        <time>2015-10-31T14:55:55Z</time>
      </trkpt>
      <trkpt lat="48.66865" lon="-3.33163">
        <ele>55</ele>
        <time>2015-10-31T14:55:58Z</time>
      </trkpt>
      <trkpt lat="48.66873" lon="-3.33154">
        <ele>55</ele>
        <time>2015-10-31T14:56:00Z</time>
      </trkpt>
      <trkpt lat="48.66886" lon="-3.33139">
        <ele>55</ele>
        <time>2015-10-31T14:56:03Z</time>
      </trkpt>
      <trkpt lat="48.66906" lon="-3.33119">
        <ele>55</ele>
        <time>2015-10-31T14:56:08Z</time>
      </trkpt>
      <trkpt lat="48.6692" lon="-3.33104">
        <ele>55</ele>
        <time>2015-10-31T14:56:12Z</time>
      </trkpt>
      <trkpt lat="48.66935" lon="-3.33089">
        <ele>55</ele>
        <time>2015-10-31T14:56:16Z</time>
      </trkpt>
      <trkpt lat="48.66943" lon="-3.33083">
        <ele>55</ele>
        <time>2015-10-31T14:56:18Z</time>
      </trkpt>
      <trkpt lat="48.66959" lon="-3.33063">
        <ele>55</ele>
        <time>2015-10-31T14:56:22Z</time>
      </trkpt>
      <trkpt lat="48.66971" lon="-3.33045">
        <ele>55</ele>
        <time>2015-10-31T14:56:25Z</time>
      </trkpt>
      <trkpt lat="48.66983" lon="-3.33025">
        <ele>55</ele>
        <time>2015-10-31T14:56:28Z</time>
      </trkpt>
      <trkpt lat="48.67039" lon="-3.32931">
        <ele>55</ele>
        <time>2015-10-31T14:56:42Z</time>
      </trkpt>
      <trkpt lat="48.67052" lon="-3.32906">
        <ele>55</ele>
        <time>2015-10-31T14:56:45Z</time>
      </trkpt>
      <trkpt lat="48.67064" lon="-3.32883">
        <ele>54</ele>
        <time>2015-10-31T14:56:48Z</time>
      </trkpt>
      <trkpt lat="48.67072" lon="-3.32868">
        <ele>54</ele>
        <time>2015-10-31T14:56:50Z</time>
      </trkpt>
      <trkpt lat="48.6708" lon="-3.32854">
        <ele>54</ele>
        <time>2015-10-31T14:56:52Z</time>
      </trkpt>
      <trkpt lat="48.67091" lon="-3.32832">
        <ele>54</ele>
        <time>2015-10-31T14:56:55Z</time>
      </trkpt>
      <trkpt lat="48.67103" lon="-3.32812">
        <ele>54</ele>
        <time>2015-10-31T14:56:58Z</time>
      </trkpt>
      <trkpt lat="48.67115" lon="-3.32792">
        <ele>55</ele>
        <time>2015-10-31T14:57:01Z</time>
      </trkpt>
      <trkpt lat="48.67127" lon="-3.32773">
        <ele>55</ele>
        <time>2015-10-31T14:57:04Z</time>
      </trkpt>
      <trkpt lat="48.67139" lon="-3.32755">
        <ele>55</ele>
        <time>2015-10-31T14:57:07Z</time>
      </trkpt>
      <trkpt lat="48.67147" lon="-3.32743">
        <ele>55</ele>
        <time>2015-10-31T14:57:09Z</time>
      </trkpt>
      <trkpt lat="48.6716" lon="-3.32726">
        <ele>55</ele>
        <time>2015-10-31T14:57:12Z</time>
      </trkpt>
      <trkpt lat="48.67168" lon="-3.32714">
        <ele>56</ele>
        <time>2015-10-31T14:57:14Z</time>
      </trkpt>
      <trkpt lat="48.6718" lon="-3.32696">
        <ele>56</ele>
        <time>2015-10-31T14:57:17Z</time>
      </trkpt>
      <trkpt lat="48.67193" lon="-3.32679">
        <ele>56</ele>
        <time>2015-10-31T14:57:20Z</time>
      </trkpt>
      <trkpt lat="48.67205" lon="-3.3266">
        <ele>56</ele>
        <time>2015-10-31T14:57:23Z</time>
      </trkpt>
      <trkpt lat="48.67212" lon="-3.32648">
        <ele>56</ele>
        <time>2015-10-31T14:57:25Z</time>
      </trkpt>
      <trkpt lat="48.6722" lon="-3.32636">
        <ele>56</ele>
        <time>2015-10-31T14:57:27Z</time>
      </trkpt>
      <trkpt lat="48.67228" lon="-3.32624">
        <ele>57</ele>
        <time>2015-10-31T14:57:29Z</time>
      </trkpt>
      <trkpt lat="48.67236" lon="-3.32613">
        <ele>57</ele>
        <time>2015-10-31T14:57:31Z</time>
      </trkpt>
      <trkpt lat="48.67243" lon="-3.32601">
        <ele>57</ele>
        <time>2015-10-31T14:57:33Z</time>
      </trkpt>
      <trkpt lat="48.67251" lon="-3.32589">
        <ele>57</ele>
        <time>2015-10-31T14:57:35Z</time>
      </trkpt>
      <trkpt lat="48.67258" lon="-3.32576">
        <ele>57</ele>
        <time>2015-10-31T14:57:37Z</time>
      </trkpt>
      <trkpt lat="48.67265" lon="-3.32563">
        <ele>57</ele>
        <time>2015-10-31T14:57:39Z</time>
      </trkpt>
      <trkpt lat="48.67272" lon="-3.3255">
        <ele>57</ele>
        <time>2015-10-31T14:57:41Z</time>
      </trkpt>
      <trkpt lat="48.67279" lon="-3.32538">
        <ele>57</ele>
        <time>2015-10-31T14:57:43Z</time>
      </trkpt>
      <trkpt lat="48.67285" lon="-3.32526">
        <ele>58</ele>
        <time>2015-10-31T14:57:45Z</time>
      </trkpt>
      <trkpt lat="48.67292" lon="-3.32514">
        <ele>58</ele>
        <time>2015-10-31T14:57:47Z</time>
      </trkpt>
      <trkpt lat="48.67298" lon="-3.32502">
        <ele>58</ele>
        <time>2015-10-31T14:57:49Z</time>
      </trkpt>
      <trkpt lat="48.67308" lon="-3.32484">
        <ele>58</ele>
        <time>2015-10-31T14:57:52Z</time>
      </trkpt>
      <trkpt lat="48.67322" lon="-3.32461">
        <ele>58</ele>
        <time>2015-10-31T14:57:56Z</time>
      </trkpt>
      <trkpt lat="48.67334" lon="-3.32439">
        <ele>58</ele>
        <time>2015-10-31T14:58:00Z</time>
      </trkpt>
      <trkpt lat="48.67347" lon="-3.32415">
        <ele>58</ele>
        <time>2015-10-31T14:58:04Z</time>
      </trkpt>
      <trkpt lat="48.67353" lon="-3.32404">
        <ele>58</ele>
        <time>2015-10-31T14:58:06Z</time>
      </trkpt>
      <trkpt lat="48.6736" lon="-3.32392">
        <ele>58</ele>
        <time>2015-10-31T14:58:08Z</time>
      </trkpt>
      <trkpt lat="48.67367" lon="-3.32381">
        <ele>58</ele>
        <time>2015-10-31T14:58:10Z</time>
      </trkpt>
      <trkpt lat="48.67374" lon="-3.32371">
        <ele>59</ele>
        <time>2015-10-31T14:58:12Z</time>
      </trkpt>
      <trkpt lat="48.67385" lon="-3.32356">
        <ele>59</ele>
        <time>2015-10-31T14:58:15Z</time>
      </trkpt>
      <trkpt lat="48.67393" lon="-3.32345">
        <ele>59</ele>
        <time>2015-10-31T14:58:17Z</time>
      </trkpt>
      <trkpt lat="48.67401" lon="-3.32335">
        <ele>59</ele>
        <time>2015-10-31T14:58:19Z</time>
      </trkpt>
      <trkpt lat="48.67413" lon="-3.32319">
        <ele>59</ele>
        <time>2015-10-31T14:58:22Z</time>
      </trkpt>
      <trkpt lat="48.67426" lon="-3.32304">
        <ele>59</ele>
        <time>2015-10-31T14:58:25Z</time>
      </trkpt>
      <trkpt lat="48.67435" lon="-3.32294">
        <ele>59</ele>
        <time>2015-10-31T14:58:27Z</time>
      </trkpt>
      <trkpt lat="48.67445" lon="-3.32286">
        <ele>59</ele>
        <time>2015-10-31T14:58:29Z</time>
      </trkpt>
      <trkpt lat="48.67459" lon="-3.32273">
        <ele>59</ele>
        <time>2015-10-31T14:58:32Z</time>
      </trkpt>
      <trkpt lat="48.67468" lon="-3.32266">
        <ele>59</ele>
        <time>2015-10-31T14:58:34Z</time>
      </trkpt>
      <trkpt lat="48.67478" lon="-3.32259">
        <ele>59</ele>
        <time>2015-10-31T14:58:36Z</time>
      </trkpt>
      <trkpt lat="48.67488" lon="-3.32252">
        <ele>59</ele>
        <time>2015-10-31T14:58:38Z</time>
      </trkpt>
      <trkpt lat="48.67497" lon="-3.32244">
        <ele>60</ele>
        <time>2015-10-31T14:58:40Z</time>
      </trkpt>
      <trkpt lat="48.67507" lon="-3.32236">
        <ele>60</ele>
        <time>2015-10-31T14:58:42Z</time>
      </trkpt>
      <trkpt lat="48.67522" lon="-3.32224">
        <ele>60</ele>
        <time>2015-10-31T14:58:45Z</time>
      </trkpt>
      <trkpt lat="48.67536" lon="-3.32212">
        <ele>59</ele>
        <time>2015-10-31T14:58:48Z</time>
      </trkpt>
      <trkpt lat="48.67551" lon="-3.32198">
        <ele>59</ele>
        <time>2015-10-31T14:58:51Z</time>
      </trkpt>
      <trkpt lat="48.67565" lon="-3.32184">
        <ele>59</ele>
        <time>2015-10-31T14:58:54Z</time>
      </trkpt>
      <trkpt lat="48.6758" lon="-3.32169">
        <ele>58</ele>
        <time>2015-10-31T14:58:57Z</time>
      </trkpt>
      <trkpt lat="48.67593" lon="-3.32155">
        <ele>58</ele>
        <time>2015-10-31T14:59:00Z</time>
      </trkpt>
      <trkpt lat="48.67607" lon="-3.3214">
        <ele>57</ele>
        <time>2015-10-31T14:59:03Z</time>
      </trkpt>
      <trkpt lat="48.67621" lon="-3.32124">
        <ele>57</ele>
        <time>2015-10-31T14:59:06Z</time>
      </trkpt>
      <trkpt lat="48.67636" lon="-3.32109">
        <ele>57</ele>
        <time>2015-10-31T14:59:09Z</time>
      </trkpt>
      <trkpt lat="48.67651" lon="-3.32095">
        <ele>56</ele>
        <time>2015-10-31T14:59:12Z</time>
      </trkpt>
      <trkpt lat="48.67665" lon="-3.32081">
        <ele>56</ele>
        <time>2015-10-31T14:59:15Z</time>
      </trkpt>
      <trkpt lat="48.6768" lon="-3.32064">
        <ele>56</ele>
        <time>2015-10-31T14:59:18Z</time>
      </trkpt>
      <trkpt lat="48.67694" lon="-3.32048">
        <ele>56</ele>
        <time>2015-10-31T14:59:21Z</time>
      </trkpt>
      <trkpt lat="48.67708" lon="-3.32032">
        <ele>56</ele>
        <time>2015-10-31T14:59:24Z</time>
      </trkpt>
      <trkpt lat="48.67739" lon="-3.31994">
        <ele>56</ele>
        <time>2015-10-31T14:59:31Z</time>
      </trkpt>
      <trkpt lat="48.67753" lon="-3.31977">
        <ele>55</ele>
        <time>2015-10-31T14:59:34Z</time>
      </trkpt>
      <trkpt lat="48.67766" lon="-3.31962">
        <ele>55</ele>
        <time>2015-10-31T14:59:37Z</time>
      </trkpt>
      <trkpt lat="48.67779" lon="-3.31948">
        <ele>55</ele>
        <time>2015-10-31T14:59:40Z</time>
      </trkpt>
      <trkpt lat="48.67792" lon="-3.31934">
        <ele>55</ele>
        <time>2015-10-31T14:59:43Z</time>
      </trkpt>
      <trkpt lat="48.67806" lon="-3.3192">
        <ele>55</ele>
        <time>2015-10-31T14:59:46Z</time>
      </trkpt>
      <trkpt lat="48.6782" lon="-3.31908">
        <ele>55</ele>
        <time>2015-10-31T14:59:49Z</time>
      </trkpt>
      <trkpt lat="48.67835" lon="-3.31896">
        <ele>55</ele>
        <time>2015-10-31T14:59:52Z</time>
      </trkpt>
      <trkpt lat="48.67849" lon="-3.31888">
        <ele>55</ele>
        <time>2015-10-31T14:59:55Z</time>
      </trkpt>
      <trkpt lat="48.67866" lon="-3.3188">
        <ele>55</ele>
        <time>2015-10-31T14:59:58Z</time>
      </trkpt>
      <trkpt lat="48.67877" lon="-3.31876">
        <ele>55</ele>
        <time>2015-10-31T15:00:00Z</time>
      </trkpt>
      <trkpt lat="48.6789" lon="-3.31874">
        <ele>55</ele>
        <time>2015-10-31T15:00:02Z</time>
      </trkpt>
      <trkpt lat="48.67908" lon="-3.3187">
        <ele>55</ele>
        <time>2015-10-31T15:00:05Z</time>
      </trkpt>
      <trkpt lat="48.67919" lon="-3.31868">
        <ele>55</ele>
        <time>2015-10-31T15:00:07Z</time>
      </trkpt>
      <trkpt lat="48.67937" lon="-3.31868">
        <ele>55</ele>
        <time>2015-10-31T15:00:10Z</time>
      </trkpt>
      <trkpt lat="48.67954" lon="-3.3187">
        <ele>55</ele>
        <time>2015-10-31T15:00:13Z</time>
      </trkpt>
      <trkpt lat="48.67972" lon="-3.31873">
        <ele>54</ele>
        <time>2015-10-31T15:00:16Z</time>
      </trkpt>
      <trkpt lat="48.67984" lon="-3.31875">
        <ele>53</ele>
        <time>2015-10-31T15:00:18Z</time>
      </trkpt>
      <trkpt lat="48.67995" lon="-3.31876">
        <ele>53</ele>
        <time>2015-10-31T15:00:20Z</time>
      </trkpt>
      <trkpt lat="48.68013" lon="-3.31879">
        <ele>52</ele>
        <time>2015-10-31T15:00:23Z</time>
      </trkpt>
      <trkpt lat="48.68029" lon="-3.31884">
        <ele>51</ele>
        <time>2015-10-31T15:00:26Z</time>
      </trkpt>
      <trkpt lat="48.68049" lon="-3.31888">
        <ele>51</ele>
        <time>2015-10-31T15:00:30Z</time>
      </trkpt>
      <trkpt lat="48.68066" lon="-3.31888">
        <ele>50</ele>
        <time>2015-10-31T15:00:33Z</time>
      </trkpt>
      <trkpt lat="48.68082" lon="-3.31889">
        <ele>50</ele>
        <time>2015-10-31T15:00:36Z</time>
      </trkpt>
      <trkpt lat="48.68102" lon="-3.31887">
        <ele>49</ele>
        <time>2015-10-31T15:00:40Z</time>
      </trkpt>
      <trkpt lat="48.68118" lon="-3.31886">
        <ele>48</ele>
        <time>2015-10-31T15:00:43Z</time>
      </trkpt>
      <trkpt lat="48.6814" lon="-3.31883">
        <ele>47</ele>
        <time>2015-10-31T15:00:47Z</time>
      </trkpt>
      <trkpt lat="48.68151" lon="-3.31881">
        <ele>46</ele>
        <time>2015-10-31T15:00:49Z</time>
      </trkpt>
      <trkpt lat="48.68162" lon="-3.31878">
        <ele>45</ele>
        <time>2015-10-31T15:00:51Z</time>
      </trkpt>
      <trkpt lat="48.68191" lon="-3.3187">
        <ele>44</ele>
        <time>2015-10-31T15:00:56Z</time>
      </trkpt>
      <trkpt lat="48.68213" lon="-3.31862">
        <ele>44</ele>
        <time>2015-10-31T15:01:00Z</time>
      </trkpt>
      <trkpt lat="48.68229" lon="-3.31857">
        <ele>42</ele>
        <time>2015-10-31T15:01:03Z</time>
      </trkpt>
      <trkpt lat="48.68245" lon="-3.31852">
        <ele>41</ele>
        <time>2015-10-31T15:01:06Z</time>
      </trkpt>
      <trkpt lat="48.68262" lon="-3.31846">
        <ele>40</ele>
        <time>2015-10-31T15:01:09Z</time>
      </trkpt>
      <trkpt lat="48.68274" lon="-3.31843">
        <ele>39</ele>
        <time>2015-10-31T15:01:11Z</time>
      </trkpt>
      <trkpt lat="48.68291" lon="-3.31838">
        <ele>38</ele>
        <time>2015-10-31T15:01:14Z</time>
      </trkpt>
      <trkpt lat="48.6844" lon="-3.31825">
        <ele>37</ele>
        <time>2015-10-31T15:01:40Z</time>
      </trkpt>
      <trkpt lat="48.68462" lon="-3.31827">
        <ele>36</ele>
        <time>2015-10-31T15:01:43Z</time>
      </trkpt>
      <trkpt lat="48.68478" lon="-3.31827">
        <ele>36</ele>
        <time>2015-10-31T15:01:45Z</time>
      </trkpt>
      <trkpt lat="48.68494" lon="-3.31826">
        <ele>35</ele>
        <time>2015-10-31T15:01:47Z</time>
      </trkpt>
      <trkpt lat="48.68517" lon="-3.31824">
        <ele>35</ele>
        <time>2015-10-31T15:01:50Z</time>
      </trkpt>
      <trkpt lat="48.68538" lon="-3.31817">
        <ele>34</ele>
        <time>2015-10-31T15:01:53Z</time>
      </trkpt>
      <trkpt lat="48.68558" lon="-3.3181">
        <ele>34</ele>
        <time>2015-10-31T15:01:56Z</time>
      </trkpt>
      <trkpt lat="48.68578" lon="-3.31802">
        <ele>34</ele>
        <time>2015-10-31T15:01:59Z</time>
      </trkpt>
      <trkpt lat="48.68604" lon="-3.31787">
        <ele>34</ele>
        <time>2015-10-31T15:02:03Z</time>
      </trkpt>
      <trkpt lat="48.68622" lon="-3.31775">
        <ele>35</ele>
        <time>2015-10-31T15:02:06Z</time>
      </trkpt>
      <trkpt lat="48.68641" lon="-3.31765">
        <ele>36</ele>
        <time>2015-10-31T15:02:09Z</time>
      </trkpt>
      <trkpt lat="48.68674" lon="-3.31753">
        <ele>36</ele>
        <time>2015-10-31T15:02:14Z</time>
      </trkpt>
      <trkpt lat="48.68701" lon="-3.31751">
        <ele>36</ele>
        <time>2015-10-31T15:02:17Z</time>
      </trkpt>
      <trkpt lat="48.68722" lon="-3.31749">
        <ele>37</ele>
        <time>2015-10-31T15:02:20Z</time>
      </trkpt>
      <trkpt lat="48.68743" lon="-3.31748">
        <ele>37</ele>
        <time>2015-10-31T15:02:23Z</time>
      </trkpt>
      <trkpt lat="48.68764" lon="-3.31748">
        <ele>38</ele>
        <time>2015-10-31T15:02:26Z</time>
      </trkpt>
      <trkpt lat="48.68785" lon="-3.31749">
        <ele>38</ele>
        <time>2015-10-31T15:02:29Z</time>
      </trkpt>
      <trkpt lat="48.68808" lon="-3.31749">
        <ele>38</ele>
        <time>2015-10-31T15:02:32Z</time>
      </trkpt>
      <trkpt lat="48.68823" lon="-3.3175">
        <ele>39</ele>
        <time>2015-10-31T15:02:34Z</time>
      </trkpt>
      <trkpt lat="48.68843" lon="-3.31755">
        <ele>39</ele>
        <time>2015-10-31T15:02:37Z</time>
      </trkpt>
      <trkpt lat="48.6887" lon="-3.3176">
        <ele>39</ele>
        <time>2015-10-31T15:02:41Z</time>
      </trkpt>
      <trkpt lat="48.6889" lon="-3.31763">
        <ele>39</ele>
        <time>2015-10-31T15:02:44Z</time>
      </trkpt>
      <trkpt lat="48.68911" lon="-3.31765">
        <ele>39</ele>
        <time>2015-10-31T15:02:47Z</time>
      </trkpt>
      <trkpt lat="48.68933" lon="-3.31767">
        <ele>39</ele>
        <time>2015-10-31T15:02:50Z</time>
      </trkpt>
      <trkpt lat="48.68955" lon="-3.31769">
        <ele>40</ele>
        <time>2015-10-31T15:02:53Z</time>
      </trkpt>
      <trkpt lat="48.68975" lon="-3.31771">
        <ele>40</ele>
        <time>2015-10-31T15:02:56Z</time>
      </trkpt>
      <trkpt lat="48.68995" lon="-3.31775">
        <ele>40</ele>
        <time>2015-10-31T15:02:59Z</time>
      </trkpt>
      <trkpt lat="48.69013" lon="-3.31778">
        <ele>40</ele>
        <time>2015-10-31T15:03:02Z</time>
      </trkpt>
      <trkpt lat="48.69032" lon="-3.31781">
        <ele>40</ele>
        <time>2015-10-31T15:03:05Z</time>
      </trkpt>
      <trkpt lat="48.69063" lon="-3.31787">
        <ele>40</ele>
        <time>2015-10-31T15:03:10Z</time>
      </trkpt>
      <trkpt lat="48.69082" lon="-3.3179">
        <ele>39</ele>
        <time>2015-10-31T15:03:13Z</time>
      </trkpt>
      <trkpt lat="48.69102" lon="-3.31791">
        <ele>39</ele>
        <time>2015-10-31T15:03:16Z</time>
      </trkpt>
      <trkpt lat="48.69128" lon="-3.31793">
        <ele>39</ele>
        <time>2015-10-31T15:03:20Z</time>
      </trkpt>
      <trkpt lat="48.69147" lon="-3.31792">
        <ele>39</ele>
        <time>2015-10-31T15:03:23Z</time>
      </trkpt>
      <trkpt lat="48.69167" lon="-3.31789">
        <ele>38</ele>
        <time>2015-10-31T15:03:26Z</time>
      </trkpt>
      <trkpt lat="48.69181" lon="-3.31787">
        <ele>38</ele>
        <time>2015-10-31T15:03:28Z</time>
      </trkpt>
      <trkpt lat="48.69201" lon="-3.31781">
        <ele>38</ele>
        <time>2015-10-31T15:03:31Z</time>
      </trkpt>
      <trkpt lat="48.69215" lon="-3.31777">
        <ele>38</ele>
        <time>2015-10-31T15:03:33Z</time>
      </trkpt>
      <trkpt lat="48.69227" lon="-3.31775">
        <ele>38</ele>
        <time>2015-10-31T15:03:35Z</time>
      </trkpt>
      <trkpt lat="48.69246" lon="-3.31769">
        <ele>38</ele>
        <time>2015-10-31T15:03:38Z</time>
      </trkpt>
      <trkpt lat="48.69264" lon="-3.31764">
        <ele>38</ele>
        <time>2015-10-31T15:03:41Z</time>
      </trkpt>
      <trkpt lat="48.69282" lon="-3.31758">
        <ele>38</ele>
        <time>2015-10-31T15:03:44Z</time>
      </trkpt>
      <trkpt lat="48.69302" lon="-3.31751">
        <ele>38</ele>
        <time>2015-10-31T15:03:47Z</time>
      </trkpt>
      <trkpt lat="48.69322" lon="-3.31746">
        <ele>38</ele>
        <time>2015-10-31T15:03:50Z</time>
      </trkpt>
      <trkpt lat="48.69343" lon="-3.31742">
        <ele>39</ele>
        <time>2015-10-31T15:03:53Z</time>
      </trkpt>
      <trkpt lat="48.69354" lon="-3.31737">
        <ele>39</ele>
        <time>2015-10-31T15:03:55Z</time>
      </trkpt>
      <trkpt lat="48.69374" lon="-3.31737">
        <ele>39</ele>
        <time>2015-10-31T15:03:58Z</time>
      </trkpt>
      <trkpt lat="48.69394" lon="-3.31735">
        <ele>39</ele>
        <time>2015-10-31T15:04:01Z</time>
      </trkpt>
      <trkpt lat="48.69413" lon="-3.31735">
        <ele>39</ele>
        <time>2015-10-31T15:04:04Z</time>
      </trkpt>
      <trkpt lat="48.69429" lon="-3.3173">
        <ele>39</ele>
        <time>2015-10-31T15:04:06Z</time>
      </trkpt>
      <trkpt lat="48.69438" lon="-3.31727">
        <ele>39</ele>
        <time>2015-10-31T15:04:07Z</time>
      </trkpt>
      <trkpt lat="48.69456" lon="-3.31721">
        <ele>39</ele>
        <time>2015-10-31T15:04:09Z</time>
      </trkpt>
      <trkpt lat="48.69479" lon="-3.31711">
        <ele>39</ele>
        <time>2015-10-31T15:04:12Z</time>
      </trkpt>
      <trkpt lat="48.69495" lon="-3.31703">
        <ele>39</ele>
        <time>2015-10-31T15:04:14Z</time>
      </trkpt>
      <trkpt lat="48.69513" lon="-3.31695">
        <ele>39</ele>
        <time>2015-10-31T15:04:17Z</time>
      </trkpt>
      <trkpt lat="48.69527" lon="-3.31685">
        <ele>39</ele>
        <time>2015-10-31T15:04:20Z</time>
      </trkpt>
      <trkpt lat="48.69551" lon="-3.31667">
        <ele>40</ele>
        <time>2015-10-31T15:04:24Z</time>
      </trkpt>
      <trkpt lat="48.69571" lon="-3.3165">
        <ele>40</ele>
        <time>2015-10-31T15:04:27Z</time>
      </trkpt>
      <trkpt lat="48.69593" lon="-3.31622">
        <ele>40</ele>
        <time>2015-10-31T15:04:31Z</time>
      </trkpt>
      <trkpt lat="48.69609" lon="-3.31599">
        <ele>40</ele>
        <time>2015-10-31T15:04:34Z</time>
      </trkpt>
      <trkpt lat="48.69637" lon="-3.31568">
        <ele>41</ele>
        <time>2015-10-31T15:04:39Z</time>
      </trkpt>
      <trkpt lat="48.69658" lon="-3.31553">
        <ele>41</ele>
        <time>2015-10-31T15:04:42Z</time>
      </trkpt>
      <trkpt lat="48.69671" lon="-3.3154">
        <ele>41</ele>
        <time>2015-10-31T15:04:44Z</time>
      </trkpt>
      <trkpt lat="48.69687" lon="-3.31516">
        <ele>41</ele>
        <time>2015-10-31T15:04:47Z</time>
      </trkpt>
      <trkpt lat="48.69702" lon="-3.31491">
        <ele>41</ele>
        <time>2015-10-31T15:04:50Z</time>
      </trkpt>
      <trkpt lat="48.69712" lon="-3.31475">
        <ele>41</ele>
        <time>2015-10-31T15:04:52Z</time>
      </trkpt>
      <trkpt lat="48.6972" lon="-3.3146">
        <ele>41</ele>
        <time>2015-10-31T15:04:54Z</time>
      </trkpt>
      <trkpt lat="48.69729" lon="-3.31445">
        <ele>41</ele>
        <time>2015-10-31T15:04:56Z</time>
      </trkpt>
      <trkpt lat="48.69738" lon="-3.31431">
        <ele>41</ele>
        <time>2015-10-31T15:04:58Z</time>
      </trkpt>
      <trkpt lat="48.69762" lon="-3.31399">
        <ele>41</ele>
        <time>2015-10-31T15:05:03Z</time>
      </trkpt>
      <trkpt lat="48.69773" lon="-3.31388">
        <ele>41</ele>
        <time>2015-10-31T15:05:05Z</time>
      </trkpt>
      <trkpt lat="48.69787" lon="-3.3137">
        <ele>41</ele>
        <time>2015-10-31T15:05:08Z</time>
      </trkpt>
      <trkpt lat="48.69803" lon="-3.31355">
        <ele>40</ele>
        <time>2015-10-31T15:05:11Z</time>
      </trkpt>
      <trkpt lat="48.69814" lon="-3.31346">
        <ele>40</ele>
        <time>2015-10-31T15:05:13Z</time>
      </trkpt>
      <trkpt lat="48.69825" lon="-3.31338">
        <ele>39</ele>
        <time>2015-10-31T15:05:15Z</time>
      </trkpt>
      <trkpt lat="48.69836" lon="-3.31329">
        <ele>39</ele>
        <time>2015-10-31T15:05:17Z</time>
      </trkpt>
      <trkpt lat="48.69847" lon="-3.31319">
        <ele>39</ele>
        <time>2015-10-31T15:05:19Z</time>
      </trkpt>
      <trkpt lat="48.69864" lon="-3.31301">
        <ele>38</ele>
        <time>2015-10-31T15:05:22Z</time>
      </trkpt>
      <trkpt lat="48.69875" lon="-3.31289">
        <ele>38</ele>
        <time>2015-10-31T15:05:24Z</time>
      </trkpt>
      <trkpt lat="48.69891" lon="-3.31267">
        <ele>37</ele>
        <time>2015-10-31T15:05:27Z</time>
      </trkpt>
      <trkpt lat="48.69905" lon="-3.31244">
        <ele>37</ele>
        <time>2015-10-31T15:05:30Z</time>
      </trkpt>
      <trkpt lat="48.6992" lon="-3.31223">
        <ele>37</ele>
        <time>2015-10-31T15:05:33Z</time>
      </trkpt>
      <trkpt lat="48.69936" lon="-3.31204">
        <ele>36</ele>
        <time>2015-10-31T15:05:36Z</time>
      </trkpt>
      <trkpt lat="48.69952" lon="-3.31187">
        <ele>36</ele>
        <time>2015-10-31T15:05:39Z</time>
      </trkpt>
      <trkpt lat="48.69967" lon="-3.31167">
        <ele>36</ele>
        <time>2015-10-31T15:05:42Z</time>
      </trkpt>
      <trkpt lat="48.69981" lon="-3.31146">
        <ele>35</ele>
        <time>2015-10-31T15:05:45Z</time>
      </trkpt>
      <trkpt lat="48.69995" lon="-3.31127">
        <ele>35</ele>
        <time>2015-10-31T15:05:48Z</time>
      </trkpt>
      <trkpt lat="48.70007" lon="-3.31111">
        <ele>35</ele>
        <time>2015-10-31T15:05:51Z</time>
      </trkpt>
      <trkpt lat="48.70015" lon="-3.311">
        <ele>34</ele>
        <time>2015-10-31T15:05:53Z</time>
      </trkpt>
      <trkpt lat="48.70036" lon="-3.3107">
        <ele>34</ele>
        <time>2015-10-31T15:05:58Z</time>
      </trkpt>
      <trkpt lat="48.70045" lon="-3.31057">
        <ele>34</ele>
        <time>2015-10-31T15:06:00Z</time>
      </trkpt>
      <trkpt lat="48.70057" lon="-3.31038">
        <ele>34</ele>
        <time>2015-10-31T15:06:03Z</time>
      </trkpt>
      <trkpt lat="48.7007" lon="-3.31019">
        <ele>33</ele>
        <time>2015-10-31T15:06:06Z</time>
      </trkpt>
      <trkpt lat="48.70087" lon="-3.30992">
        <ele>33</ele>
        <time>2015-10-31T15:06:10Z</time>
      </trkpt>
      <trkpt lat="48.70095" lon="-3.30979">
        <ele>33</ele>
        <time>2015-10-31T15:06:12Z</time>
      </trkpt>
      <trkpt lat="48.70102" lon="-3.30964">
        <ele>33</ele>
        <time>2015-10-31T15:06:14Z</time>
      </trkpt>
      <trkpt lat="48.70113" lon="-3.30941">
        <ele>33</ele>
        <time>2015-10-31T15:06:17Z</time>
      </trkpt>
      <trkpt lat="48.70124" lon="-3.30919">
        <ele>33</ele>
        <time>2015-10-31T15:06:20Z</time>
      </trkpt>
      <trkpt lat="48.70138" lon="-3.30892">
        <ele>33</ele>
        <time>2015-10-31T15:06:24Z</time>
      </trkpt>
      <trkpt lat="48.70153" lon="-3.30868">
        <ele>33</ele>
        <time>2015-10-31T15:06:28Z</time>
      </trkpt>
      <trkpt lat="48.70166" lon="-3.30852">
        <ele>33</ele>
        <time>2015-10-31T15:06:31Z</time>
      </trkpt>
      <trkpt lat="48.70196" lon="-3.30812">
        <ele>33</ele>
        <time>2015-10-31T15:06:38Z</time>
      </trkpt>
      <trkpt lat="48.70225" lon="-3.30772">
        <ele>32</ele>
        <time>2015-10-31T15:06:44Z</time>
      </trkpt>
      <trkpt lat="48.70241" lon="-3.30749">
        <ele>32</ele>
        <time>2015-10-31T15:06:47Z</time>
      </trkpt>
      <trkpt lat="48.70276" lon="-3.30707">
        <ele>32</ele>
        <time>2015-10-31T15:06:53Z</time>
      </trkpt>
      <trkpt lat="48.70289" lon="-3.30693">
        <ele>31</ele>
        <time>2015-10-31T15:06:55Z</time>
      </trkpt>
      <trkpt lat="48.70302" lon="-3.30669">
        <ele>31</ele>
        <time>2015-10-31T15:06:58Z</time>
      </trkpt>
      <trkpt lat="48.70319" lon="-3.3065">
        <ele>31</ele>
        <time>2015-10-31T15:07:01Z</time>
      </trkpt>
      <trkpt lat="48.70337" lon="-3.30632">
        <ele>31</ele>
        <time>2015-10-31T15:07:04Z</time>
      </trkpt>
      <trkpt lat="48.70354" lon="-3.30612">
        <ele>31</ele>
        <time>2015-10-31T15:07:07Z</time>
      </trkpt>
      <trkpt lat="48.70371" lon="-3.30592">
        <ele>31</ele>
        <time>2015-10-31T15:07:10Z</time>
      </trkpt>
      <trkpt lat="48.70386" lon="-3.30573">
        <ele>31</ele>
        <time>2015-10-31T15:07:13Z</time>
      </trkpt>
      <trkpt lat="48.70396" lon="-3.30562">
        <ele>30</ele>
        <time>2015-10-31T15:07:15Z</time>
      </trkpt>
      <trkpt lat="48.70413" lon="-3.30545">
        <ele>30</ele>
        <time>2015-10-31T15:07:18Z</time>
      </trkpt>
      <trkpt lat="48.7043" lon="-3.30529">
        <ele>30</ele>
        <time>2015-10-31T15:07:21Z</time>
      </trkpt>
      <trkpt lat="48.70447" lon="-3.30513">
        <ele>30</ele>
        <time>2015-10-31T15:07:24Z</time>
      </trkpt>
      <trkpt lat="48.70465" lon="-3.30496">
        <ele>30</ele>
        <time>2015-10-31T15:07:27Z</time>
      </trkpt>
      <trkpt lat="48.70489" lon="-3.30474">
        <ele>30</ele>
        <time>2015-10-31T15:07:31Z</time>
      </trkpt>
      <trkpt lat="48.70502" lon="-3.30464">
        <ele>29</ele>
        <time>2015-10-31T15:07:33Z</time>
      </trkpt>
      <trkpt lat="48.70514" lon="-3.30451">
        <ele>29</ele>
        <time>2015-10-31T15:07:35Z</time>
      </trkpt>
      <trkpt lat="48.70526" lon="-3.30438">
        <ele>30</ele>
        <time>2015-10-31T15:07:37Z</time>
      </trkpt>
      <trkpt lat="48.70544" lon="-3.30419">
        <ele>30</ele>
        <time>2015-10-31T15:07:40Z</time>
      </trkpt>
      <trkpt lat="48.70562" lon="-3.30401">
        <ele>30</ele>
        <time>2015-10-31T15:07:43Z</time>
      </trkpt>
      <trkpt lat="48.70581" lon="-3.30386">
        <ele>30</ele>
        <time>2015-10-31T15:07:46Z</time>
      </trkpt>
      <trkpt lat="48.70599" lon="-3.30373">
        <ele>30</ele>
        <time>2015-10-31T15:07:49Z</time>
      </trkpt>
      <trkpt lat="48.70609" lon="-3.30366">
        <ele>30</ele>
        <time>2015-10-31T15:07:51Z</time>
      </trkpt>
      <trkpt lat="48.70624" lon="-3.30356">
        <ele>30</ele>
        <time>2015-10-31T15:07:55Z</time>
      </trkpt>
      <trkpt lat="48.70631" lon="-3.3035">
        <ele>30</ele>
        <time>2015-10-31T15:07:57Z</time>
      </trkpt>
      <trkpt lat="48.70647" lon="-3.30339">
        <ele>30</ele>
        <time>2015-10-31T15:08:01Z</time>
      </trkpt>
      <trkpt lat="48.70661" lon="-3.30328">
        <ele>30</ele>
        <time>2015-10-31T15:08:05Z</time>
      </trkpt>
      <trkpt lat="48.70676" lon="-3.30319">
        <ele>30</ele>
        <time>2015-10-31T15:08:09Z</time>
      </trkpt>
      <trkpt lat="48.7069" lon="-3.30308">
        <ele>29</ele>
        <time>2015-10-31T15:08:13Z</time>
      </trkpt>
      <trkpt lat="48.70704" lon="-3.30296">
        <ele>29</ele>
        <time>2015-10-31T15:08:17Z</time>
      </trkpt>
      <trkpt lat="48.70714" lon="-3.30286">
        <ele>29</ele>
        <time>2015-10-31T15:08:20Z</time>
      </trkpt>
      <trkpt lat="48.70727" lon="-3.30275">
        <ele>29</ele>
        <time>2015-10-31T15:08:24Z</time>
      </trkpt>
      <trkpt lat="48.70742" lon="-3.30266">
        <ele>29</ele>
        <time>2015-10-31T15:08:28Z</time>
      </trkpt>
      <trkpt lat="48.70752" lon="-3.30259">
        <ele>29</ele>
        <time>2015-10-31T15:08:31Z</time>
      </trkpt>
      <trkpt lat="48.7077" lon="-3.30249">
        <ele>29</ele>
        <time>2015-10-31T15:08:36Z</time>
      </trkpt>
      <trkpt lat="48.70786" lon="-3.30239">
        <ele>29</ele>
        <time>2015-10-31T15:08:41Z</time>
      </trkpt>
      <trkpt lat="48.70804" lon="-3.3023">
        <ele>29</ele>
        <time>2015-10-31T15:08:46Z</time>
      </trkpt>
      <trkpt lat="48.70814" lon="-3.30224">
        <ele>30</ele>
        <time>2015-10-31T15:08:49Z</time>
      </trkpt>
      <trkpt lat="48.70823" lon="-3.30218">
        <ele>30</ele>
        <time>2015-10-31T15:08:52Z</time>
      </trkpt>
      <trkpt lat="48.7084" lon="-3.30209">
        <ele>30</ele>
        <time>2015-10-31T15:08:57Z</time>
      </trkpt>
      <trkpt lat="48.70851" lon="-3.30204">
        <ele>31</ele>
        <time>2015-10-31T15:09:00Z</time>
      </trkpt>
      <trkpt lat="48.70868" lon="-3.30196">
        <ele>31</ele>
        <time>2015-10-31T15:09:05Z</time>
      </trkpt>
      <trkpt lat="48.70885" lon="-3.30188">
        <ele>31</ele>
        <time>2015-10-31T15:09:10Z</time>
      </trkpt>
      <trkpt lat="48.70902" lon="-3.30178">
        <ele>32</ele>
        <time>2015-10-31T15:09:15Z</time>
      </trkpt>
      <trkpt lat="48.70918" lon="-3.30167">
        <ele>32</ele>
        <time>2015-10-31T15:09:20Z</time>
      </trkpt>
      <trkpt lat="48.70935" lon="-3.30155">
        <ele>32</ele>
        <time>2015-10-31T15:09:25Z</time>
      </trkpt>
      <trkpt lat="48.7095" lon="-3.3014">
        <ele>33</ele>
        <time>2015-10-31T15:09:30Z</time>
      </trkpt>
      <trkpt lat="48.7096" lon="-3.30132">
        <ele>33</ele>
        <time>2015-10-31T15:09:33Z</time>
      </trkpt>
      <trkpt lat="48.70976" lon="-3.30116">
        <ele>33</ele>
        <time>2015-10-31T15:09:38Z</time>
      </trkpt>
      <trkpt lat="48.70983" lon="-3.30109">
        <ele>34</ele>
        <time>2015-10-31T15:09:40Z</time>
      </trkpt>
      <trkpt lat="48.70989" lon="-3.30101">
        <ele>34</ele>
        <time>2015-10-31T15:09:42Z</time>
      </trkpt>
      <trkpt lat="48.71004" lon="-3.30083">
        <ele>34</ele>
        <time>2015-10-31T15:09:46Z</time>
      </trkpt>
      <trkpt lat="48.71011" lon="-3.30073">
        <ele>34</ele>
        <time>2015-10-31T15:09:48Z</time>
      </trkpt>
      <trkpt lat="48.71018" lon="-3.30063">
        <ele>34</ele>
        <time>2015-10-31T15:09:50Z</time>
      </trkpt>
      <trkpt lat="48.71034" lon="-3.3004">
        <ele>34</ele>
        <time>2015-10-31T15:09:54Z</time>
      </trkpt>
      <trkpt lat="48.71046" lon="-3.30022">
        <ele>34</ele>
        <time>2015-10-31T15:09:57Z</time>
      </trkpt>
      <trkpt lat="48.71057" lon="-3.30005">
        <ele>35</ele>
        <time>2015-10-31T15:10:00Z</time>
      </trkpt>
      <trkpt lat="48.71069" lon="-3.29987">
        <ele>35</ele>
        <time>2015-10-31T15:10:03Z</time>
      </trkpt>
      <trkpt lat="48.71082" lon="-3.2997">
        <ele>35</ele>
        <time>2015-10-31T15:10:06Z</time>
      </trkpt>
      <trkpt lat="48.71094" lon="-3.29952">
        <ele>35</ele>
        <time>2015-10-31T15:10:09Z</time>
      </trkpt>
      <trkpt lat="48.71107" lon="-3.29935">
        <ele>35</ele>
        <time>2015-10-31T15:10:12Z</time>
      </trkpt>
      <trkpt lat="48.7112" lon="-3.29918">
        <ele>36</ele>
        <time>2015-10-31T15:10:15Z</time>
      </trkpt>
      <trkpt lat="48.71132" lon="-3.29903">
        <ele>36</ele>
        <time>2015-10-31T15:10:18Z</time>
      </trkpt>
      <trkpt lat="48.71141" lon="-3.29892">
        <ele>36</ele>
        <time>2015-10-31T15:10:20Z</time>
      </trkpt>
      <trkpt lat="48.71154" lon="-3.29878">
        <ele>36</ele>
        <time>2015-10-31T15:10:23Z</time>
      </trkpt>
      <trkpt lat="48.71167" lon="-3.29864">
        <ele>37</ele>
        <time>2015-10-31T15:10:26Z</time>
      </trkpt>
      <trkpt lat="48.71181" lon="-3.29849">
        <ele>37</ele>
        <time>2015-10-31T15:10:29Z</time>
      </trkpt>
      <trkpt lat="48.71194" lon="-3.29835">
        <ele>37</ele>
        <time>2015-10-31T15:10:32Z</time>
      </trkpt>
      <trkpt lat="48.71202" lon="-3.29825">
        <ele>37</ele>
        <time>2015-10-31T15:10:34Z</time>
      </trkpt>
      <trkpt lat="48.71211" lon="-3.29816">
        <ele>37</ele>
        <time>2015-10-31T15:10:36Z</time>
      </trkpt>
      <trkpt lat="48.7122" lon="-3.29806">
        <ele>38</ele>
        <time>2015-10-31T15:10:38Z</time>
      </trkpt>
      <trkpt lat="48.71228" lon="-3.29796">
        <ele>38</ele>
        <time>2015-10-31T15:10:40Z</time>
      </trkpt>
      <trkpt lat="48.71236" lon="-3.29786">
        <ele>38</ele>
        <time>2015-10-31T15:10:42Z</time>
      </trkpt>
      <trkpt lat="48.71244" lon="-3.29775">
        <ele>38</ele>
        <time>2015-10-31T15:10:44Z</time>
      </trkpt>
      <trkpt lat="48.71258" lon="-3.29755">
        <ele>38</ele>
        <time>2015-10-31T15:10:48Z</time>
      </trkpt>
      <trkpt lat="48.71272" lon="-3.29734">
        <ele>38</ele>
        <time>2015-10-31T15:10:52Z</time>
      </trkpt>
      <trkpt lat="48.71281" lon="-3.29719">
        <ele>38</ele>
        <time>2015-10-31T15:10:55Z</time>
      </trkpt>
      <trkpt lat="48.71288" lon="-3.29709">
        <ele>39</ele>
        <time>2015-10-31T15:10:57Z</time>
      </trkpt>
      <trkpt lat="48.71295" lon="-3.297">
        <ele>39</ele>
        <time>2015-10-31T15:10:59Z</time>
      </trkpt>
      <trkpt lat="48.71305" lon="-3.29686">
        <ele>39</ele>
        <time>2015-10-31T15:11:02Z</time>
      </trkpt>
      <trkpt lat="48.71312" lon="-3.29676">
        <ele>39</ele>
        <time>2015-10-31T15:11:04Z</time>
      </trkpt>
      <trkpt lat="48.71326" lon="-3.29658">
        <ele>39</ele>
        <time>2015-10-31T15:11:08Z</time>
      </trkpt>
      <trkpt lat="48.71341" lon="-3.29638">
        <ele>39</ele>
        <time>2015-10-31T15:11:12Z</time>
      </trkpt>
      <trkpt lat="48.71355" lon="-3.29618">
        <ele>40</ele>
        <time>2015-10-31T15:11:16Z</time>
      </trkpt>
      <trkpt lat="48.71362" lon="-3.29609">
        <ele>40</ele>
        <time>2015-10-31T15:11:18Z</time>
      </trkpt>
      <trkpt lat="48.71369" lon="-3.29599">
        <ele>40</ele>
        <time>2015-10-31T15:11:20Z</time>
      </trkpt>
      <trkpt lat="48.71376" lon="-3.2959">
        <ele>40</ele>
        <time>2015-10-31T15:11:22Z</time>
      </trkpt>
      <trkpt lat="48.71386" lon="-3.29575">
        <ele>40</ele>
        <time>2015-10-31T15:11:25Z</time>
      </trkpt>
      <trkpt lat="48.71399" lon="-3.29556">
        <ele>40</ele>
        <time>2015-10-31T15:11:29Z</time>
      </trkpt>
      <trkpt lat="48.71413" lon="-3.29536">
        <ele>40</ele>
        <time>2015-10-31T15:11:33Z</time>
      </trkpt>
      <trkpt lat="48.71424" lon="-3.29519">
        <ele>40</ele>
        <time>2015-10-31T15:11:36Z</time>
      </trkpt>
      <trkpt lat="48.71431" lon="-3.29508">
        <ele>40</ele>
        <time>2015-10-31T15:11:38Z</time>
      </trkpt>
      <trkpt lat="48.71442" lon="-3.29491">
        <ele>40</ele>
        <time>2015-10-31T15:11:41Z</time>
      </trkpt>
      <trkpt lat="48.7145" lon="-3.2948">
        <ele>40</ele>
        <time>2015-10-31T15:11:43Z</time>
      </trkpt>
      <trkpt lat="48.71457" lon="-3.2947">
        <ele>40</ele>
        <time>2015-10-31T15:11:45Z</time>
      </trkpt>
      <trkpt lat="48.71465" lon="-3.29459">
        <ele>41</ele>
        <time>2015-10-31T15:11:47Z</time>
      </trkpt>
      <trkpt lat="48.71472" lon="-3.29449">
        <ele>41</ele>
        <time>2015-10-31T15:11:49Z</time>
      </trkpt>
      <trkpt lat="48.71483" lon="-3.29432">
        <ele>41</ele>
        <time>2015-10-31T15:11:52Z</time>
      </trkpt>
      <trkpt lat="48.71495" lon="-3.29416">
        <ele>41</ele>
        <time>2015-10-31T15:11:55Z</time>
      </trkpt>
      <trkpt lat="48.71509" lon="-3.29396">
        <ele>41</ele>
        <time>2015-10-31T15:11:59Z</time>
      </trkpt>
      <trkpt lat="48.71524" lon="-3.29377">
        <ele>41</ele>
        <time>2015-10-31T15:12:03Z</time>
      </trkpt>
      <trkpt lat="48.71537" lon="-3.29356">
        <ele>41</ele>
        <time>2015-10-31T15:12:07Z</time>
      </trkpt>
      <trkpt lat="48.71547" lon="-3.29336">
        <ele>40</ele>
        <time>2015-10-31T15:12:11Z</time>
      </trkpt>
      <trkpt lat="48.71543" lon="-3.29325">
        <ele>38</ele>
        <time>2015-10-31T15:12:56Z</time>
      </trkpt>
      <trkpt lat="48.71564" lon="-3.29325">
        <ele>36</ele>
        <time>2015-10-31T15:13:39Z</time>
      </trkpt>
      <trkpt lat="48.71574" lon="-3.29317">
        <ele>36</ele>
        <time>2015-10-31T15:13:42Z</time>
      </trkpt>
      <trkpt lat="48.71582" lon="-3.2931">
        <ele>36</ele>
        <time>2015-10-31T15:13:44Z</time>
      </trkpt>
      <trkpt lat="48.7159" lon="-3.29302">
        <ele>36</ele>
        <time>2015-10-31T15:13:46Z</time>
      </trkpt>
      <trkpt lat="48.71606" lon="-3.29285">
        <ele>36</ele>
        <time>2015-10-31T15:13:50Z</time>
      </trkpt>
      <trkpt lat="48.71625" lon="-3.29271">
        <ele>36</ele>
        <time>2015-10-31T15:13:54Z</time>
      </trkpt>
      <trkpt lat="48.71638" lon="-3.29262">
        <ele>36</ele>
        <time>2015-10-31T15:13:57Z</time>
      </trkpt>
      <trkpt lat="48.71647" lon="-3.29257">
        <ele>36</ele>
        <time>2015-10-31T15:13:59Z</time>
      </trkpt>
      <trkpt lat="48.71664" lon="-3.29247">
        <ele>36</ele>
        <time>2015-10-31T15:14:03Z</time>
      </trkpt>
      <trkpt lat="48.71672" lon="-3.29243">
        <ele>36</ele>
        <time>2015-10-31T15:14:05Z</time>
      </trkpt>
      <trkpt lat="48.71681" lon="-3.29238">
        <ele>36</ele>
        <time>2015-10-31T15:14:07Z</time>
      </trkpt>
      <trkpt lat="48.71698" lon="-3.29229">
        <ele>36</ele>
        <time>2015-10-31T15:14:11Z</time>
      </trkpt>
      <trkpt lat="48.71714" lon="-3.29222">
        <ele>36</ele>
        <time>2015-10-31T15:14:14Z</time>
      </trkpt>
      <trkpt lat="48.71728" lon="-3.29216">
        <ele>36</ele>
        <time>2015-10-31T15:14:16Z</time>
      </trkpt>
      <trkpt lat="48.71741" lon="-3.29212">
        <ele>36</ele>
        <time>2015-10-31T15:14:18Z</time>
      </trkpt>
      <trkpt lat="48.71754" lon="-3.2921">
        <ele>36</ele>
        <time>2015-10-31T15:14:20Z</time>
      </trkpt>
      <trkpt lat="48.71768" lon="-3.29207">
        <ele>36</ele>
        <time>2015-10-31T15:14:22Z</time>
      </trkpt>
      <trkpt lat="48.71782" lon="-3.29203">
        <ele>36</ele>
        <time>2015-10-31T15:14:24Z</time>
      </trkpt>
      <trkpt lat="48.71797" lon="-3.29199">
        <ele>36</ele>
        <time>2015-10-31T15:14:26Z</time>
      </trkpt>
      <trkpt lat="48.71819" lon="-3.29195">
        <ele>36</ele>
        <time>2015-10-31T15:14:29Z</time>
      </trkpt>
      <trkpt lat="48.71834" lon="-3.29192">
        <ele>35</ele>
        <time>2015-10-31T15:14:31Z</time>
      </trkpt>
      <trkpt lat="48.71849" lon="-3.29188">
        <ele>35</ele>
        <time>2015-10-31T15:14:33Z</time>
      </trkpt>
      <trkpt lat="48.71863" lon="-3.29185">
        <ele>35</ele>
        <time>2015-10-31T15:14:35Z</time>
      </trkpt>
      <trkpt lat="48.71886" lon="-3.29181">
        <ele>35</ele>
        <time>2015-10-31T15:14:38Z</time>
      </trkpt>
      <trkpt lat="48.719" lon="-3.29177">
        <ele>35</ele>
        <time>2015-10-31T15:14:40Z</time>
      </trkpt>
      <trkpt lat="48.71914" lon="-3.29174">
        <ele>34</ele>
        <time>2015-10-31T15:14:42Z</time>
      </trkpt>
      <trkpt lat="48.71928" lon="-3.29172">
        <ele>34</ele>
        <time>2015-10-31T15:14:44Z</time>
      </trkpt>
      <trkpt lat="48.71948" lon="-3.29169">
        <ele>34</ele>
        <time>2015-10-31T15:14:47Z</time>
      </trkpt>
      <trkpt lat="48.7197" lon="-3.29166">
        <ele>33</ele>
        <time>2015-10-31T15:14:50Z</time>
      </trkpt>
      <trkpt lat="48.71984" lon="-3.29164">
        <ele>33</ele>
        <time>2015-10-31T15:14:52Z</time>
      </trkpt>
      <trkpt lat="48.72006" lon="-3.29158">
        <ele>32</ele>
        <time>2015-10-31T15:14:55Z</time>
      </trkpt>
      <trkpt lat="48.7202" lon="-3.29153">
        <ele>32</ele>
        <time>2015-10-31T15:14:57Z</time>
      </trkpt>
      <trkpt lat="48.72034" lon="-3.29146">
        <ele>31</ele>
        <time>2015-10-31T15:14:59Z</time>
      </trkpt>
      <trkpt lat="48.72056" lon="-3.29138">
        <ele>31</ele>
        <time>2015-10-31T15:15:02Z</time>
      </trkpt>
      <trkpt lat="48.72077" lon="-3.29129">
        <ele>31</ele>
        <time>2015-10-31T15:15:05Z</time>
      </trkpt>
      <trkpt lat="48.72091" lon="-3.29123">
        <ele>31</ele>
        <time>2015-10-31T15:15:07Z</time>
      </trkpt>
      <trkpt lat="48.72105" lon="-3.29117">
        <ele>30</ele>
        <time>2015-10-31T15:15:09Z</time>
      </trkpt>
      <trkpt lat="48.72125" lon="-3.29104">
        <ele>30</ele>
        <time>2015-10-31T15:15:12Z</time>
      </trkpt>
      <trkpt lat="48.72144" lon="-3.29091">
        <ele>30</ele>
        <time>2015-10-31T15:15:15Z</time>
      </trkpt>
      <trkpt lat="48.72162" lon="-3.29078">
        <ele>30</ele>
        <time>2015-10-31T15:15:18Z</time>
      </trkpt>
      <trkpt lat="48.7218" lon="-3.29065">
        <ele>30</ele>
        <time>2015-10-31T15:15:21Z</time>
      </trkpt>
      <trkpt lat="48.72198" lon="-3.29051">
        <ele>30</ele>
        <time>2015-10-31T15:15:24Z</time>
      </trkpt>
      <trkpt lat="48.72216" lon="-3.29037">
        <ele>30</ele>
        <time>2015-10-31T15:15:27Z</time>
      </trkpt>
      <trkpt lat="48.72233" lon="-3.29023">
        <ele>29</ele>
        <time>2015-10-31T15:15:30Z</time>
      </trkpt>
      <trkpt lat="48.7225" lon="-3.2901">
        <ele>29</ele>
        <time>2015-10-31T15:15:33Z</time>
      </trkpt>
      <trkpt lat="48.72261" lon="-3.29001">
        <ele>29</ele>
        <time>2015-10-31T15:15:35Z</time>
      </trkpt>
      <trkpt lat="48.72278" lon="-3.28988">
        <ele>29</ele>
        <time>2015-10-31T15:15:38Z</time>
      </trkpt>
      <trkpt lat="48.72294" lon="-3.28973">
        <ele>29</ele>
        <time>2015-10-31T15:15:41Z</time>
      </trkpt>
      <trkpt lat="48.72305" lon="-3.28964">
        <ele>29</ele>
        <time>2015-10-31T15:15:43Z</time>
      </trkpt>
      <trkpt lat="48.72315" lon="-3.28955">
        <ele>29</ele>
        <time>2015-10-31T15:15:45Z</time>
      </trkpt>
      <trkpt lat="48.72329" lon="-3.28943">
        <ele>28</ele>
        <time>2015-10-31T15:15:48Z</time>
      </trkpt>
      <trkpt lat="48.72348" lon="-3.28926">
        <ele>29</ele>
        <time>2015-10-31T15:15:52Z</time>
      </trkpt>
      <trkpt lat="48.72359" lon="-3.28916">
        <ele>29</ele>
        <time>2015-10-31T15:15:54Z</time>
      </trkpt>
      <trkpt lat="48.72376" lon="-3.289">
        <ele>29</ele>
        <time>2015-10-31T15:15:57Z</time>
      </trkpt>
      <trkpt lat="48.72389" lon="-3.28888">
        <ele>28</ele>
        <time>2015-10-31T15:15:59Z</time>
      </trkpt>
      <trkpt lat="48.72403" lon="-3.28875">
        <ele>28</ele>
        <time>2015-10-31T15:16:01Z</time>
      </trkpt>
      <trkpt lat="48.72423" lon="-3.28854">
        <ele>28</ele>
        <time>2015-10-31T15:16:04Z</time>
      </trkpt>
      <trkpt lat="48.72484" lon="-3.28789">
        <ele>28</ele>
        <time>2015-10-31T15:16:12Z</time>
      </trkpt>
      <trkpt lat="48.725" lon="-3.28773">
        <ele>28</ele>
        <time>2015-10-31T15:16:14Z</time>
      </trkpt>
      <trkpt lat="48.72516" lon="-3.28758">
        <ele>27</ele>
        <time>2015-10-31T15:16:16Z</time>
      </trkpt>
      <trkpt lat="48.72532" lon="-3.28744">
        <ele>27</ele>
        <time>2015-10-31T15:16:18Z</time>
      </trkpt>
      <trkpt lat="48.7254" lon="-3.28737">
        <ele>27</ele>
        <time>2015-10-31T15:16:19Z</time>
      </trkpt>
      <trkpt lat="48.72548" lon="-3.28729">
        <ele>27</ele>
        <time>2015-10-31T15:16:20Z</time>
      </trkpt>
      <trkpt lat="48.72556" lon="-3.28722">
        <ele>27</ele>
        <time>2015-10-31T15:16:21Z</time>
      </trkpt>
      <trkpt lat="48.72565" lon="-3.28715">
        <ele>26</ele>
        <time>2015-10-31T15:16:22Z</time>
      </trkpt>
      <trkpt lat="48.72574" lon="-3.28708">
        <ele>26</ele>
        <time>2015-10-31T15:16:23Z</time>
      </trkpt>
      <trkpt lat="48.72583" lon="-3.28701">
        <ele>26</ele>
        <time>2015-10-31T15:16:24Z</time>
      </trkpt>
      <trkpt lat="48.72592" lon="-3.28694">
        <ele>26</ele>
        <time>2015-10-31T15:16:25Z</time>
      </trkpt>
      <trkpt lat="48.72673" lon="-3.28642">
        <ele>25</ele>
        <time>2015-10-31T15:16:33Z</time>
      </trkpt>
      <trkpt lat="48.72884" lon="-3.2849">
        <ele>23</ele>
        <time>2015-10-31T15:16:56Z</time>
      </trkpt>
      <trkpt lat="48.72894" lon="-3.28485">
        <ele>23</ele>
        <time>2015-10-31T15:16:57Z</time>
      </trkpt>
      <trkpt lat="48.72905" lon="-3.2848">
        <ele>22</ele>
        <time>2015-10-31T15:16:58Z</time>
      </trkpt>
      <trkpt lat="48.72917" lon="-3.28474">
        <ele>21</ele>
        <time>2015-10-31T15:16:59Z</time>
      </trkpt>
      <trkpt lat="48.72928" lon="-3.28467">
        <ele>21</ele>
        <time>2015-10-31T15:17:00Z</time>
      </trkpt>
      <trkpt lat="48.7294" lon="-3.2846">
        <ele>20</ele>
        <time>2015-10-31T15:17:01Z</time>
      </trkpt>
      <trkpt lat="48.72951" lon="-3.28453">
        <ele>19</ele>
        <time>2015-10-31T15:17:02Z</time>
      </trkpt>
      <trkpt lat="48.72962" lon="-3.28444">
        <ele>19</ele>
        <time>2015-10-31T15:17:03Z</time>
      </trkpt>
      <trkpt lat="48.72973" lon="-3.28435">
        <ele>18</ele>
        <time>2015-10-31T15:17:04Z</time>
      </trkpt>
      <trkpt lat="48.72984" lon="-3.28426">
        <ele>17</ele>
        <time>2015-10-31T15:17:05Z</time>
      </trkpt>
      <trkpt lat="48.72995" lon="-3.28417">
        <ele>17</ele>
        <time>2015-10-31T15:17:06Z</time>
      </trkpt>
      <trkpt lat="48.73006" lon="-3.28407">
        <ele>16</ele>
        <time>2015-10-31T15:17:07Z</time>
      </trkpt>
      <trkpt lat="48.73016" lon="-3.28398">
        <ele>15</ele>
        <time>2015-10-31T15:17:08Z</time>
      </trkpt>
      <trkpt lat="48.73027" lon="-3.28388">
        <ele>15</ele>
        <time>2015-10-31T15:17:09Z</time>
      </trkpt>
      <trkpt lat="48.73037" lon="-3.28378">
        <ele>14</ele>
        <time>2015-10-31T15:17:10Z</time>
      </trkpt>
      <trkpt lat="48.73046" lon="-3.28367">
        <ele>13</ele>
        <time>2015-10-31T15:17:11Z</time>
      </trkpt>
      <trkpt lat="48.73081" lon="-3.28318">
        <ele>12</ele>
        <time>2015-10-31T15:17:15Z</time>
      </trkpt>
      <trkpt lat="48.73088" lon="-3.28304">
        <ele>11</ele>
        <time>2015-10-31T15:17:16Z</time>
      </trkpt>
      <trkpt lat="48.73094" lon="-3.28289">
        <ele>11</ele>
        <time>2015-10-31T15:17:17Z</time>
      </trkpt>
      <trkpt lat="48.73099" lon="-3.28275">
        <ele>10</ele>
        <time>2015-10-31T15:17:18Z</time>
      </trkpt>
      <trkpt lat="48.73104" lon="-3.28261">
        <ele>10</ele>
        <time>2015-10-31T15:17:19Z</time>
      </trkpt>
      <trkpt lat="48.73108" lon="-3.28247">
        <ele>9</ele>
        <time>2015-10-31T15:17:20Z</time>
      </trkpt>
      <trkpt lat="48.73112" lon="-3.28233">
        <ele>8</ele>
        <time>2015-10-31T15:17:21Z</time>
      </trkpt>
      <trkpt lat="48.73116" lon="-3.28206">
        <ele>8</ele>
        <time>2015-10-31T15:17:23Z</time>
      </trkpt>
      <trkpt lat="48.73118" lon="-3.28194">
        <ele>7</ele>
        <time>2015-10-31T15:17:24Z</time>
      </trkpt>
      <trkpt lat="48.73122" lon="-3.28181">
        <ele>7</ele>
        <time>2015-10-31T15:17:25Z</time>
      </trkpt>
      <trkpt lat="48.73125" lon="-3.28167">
        <ele>6</ele>
        <time>2015-10-31T15:17:26Z</time>
      </trkpt>
      <trkpt lat="48.73129" lon="-3.28153">
        <ele>5</ele>
        <time>2015-10-31T15:17:27Z</time>
      </trkpt>
      <trkpt lat="48.73133" lon="-3.2814">
        <ele>5</ele>
        <time>2015-10-31T15:17:28Z</time>
      </trkpt>
      <trkpt lat="48.73138" lon="-3.28127">
        <ele>4</ele>
        <time>2015-10-31T15:17:29Z</time>
      </trkpt>
      <trkpt lat="48.73143" lon="-3.28114">
        <ele>4</ele>
        <time>2015-10-31T15:17:30Z</time>
      </trkpt>
      <trkpt lat="48.73148" lon="-3.28102">
        <ele>3</ele>
        <time>2015-10-31T15:17:31Z</time>
      </trkpt>
      <trkpt lat="48.73158" lon="-3.28078">
        <ele>2</ele>
        <time>2015-10-31T15:17:33Z</time>
      </trkpt>
      <trkpt lat="48.73168" lon="-3.28056">
        <ele>1</ele>
        <time>2015-10-31T15:17:35Z</time>
      </trkpt>
      <trkpt lat="48.7318" lon="-3.28037">
        <ele>16</ele>
        <time>2015-10-31T15:17:37Z</time>
      </trkpt>
      <trkpt lat="48.73217" lon="-3.28039">
        <ele>-1</ele>
        <time>2015-10-31T15:17:42Z</time>
      </trkpt>
      <trkpt lat="48.73231" lon="-3.28047">
        <ele>-2</ele>
        <time>2015-10-31T15:17:44Z</time>
      </trkpt>
      <trkpt lat="48.73252" lon="-3.2806">
        <ele>-4</ele>
        <time>2015-10-31T15:17:47Z</time>
      </trkpt>
      <trkpt lat="48.73272" lon="-3.28072">
        <ele>-5</ele>
        <time>2015-10-31T15:17:50Z</time>
      </trkpt>
      <trkpt lat="48.73294" lon="-3.28083">
        <ele>-6</ele>
        <time>2015-10-31T15:17:53Z</time>
      </trkpt>
      <trkpt lat="48.7331" lon="-3.28089">
        <ele>-7</ele>
        <time>2015-10-31T15:17:55Z</time>
      </trkpt>
      <trkpt lat="48.73326" lon="-3.28093">
        <ele>-8</ele>
        <time>2015-10-31T15:17:57Z</time>
      </trkpt>
      <trkpt lat="48.73342" lon="-3.28094">
        <ele>-9</ele>
        <time>2015-10-31T15:17:59Z</time>
      </trkpt>
      <trkpt lat="48.73359" lon="-3.28094">
        <ele>-10</ele>
        <time>2015-10-31T15:18:01Z</time>
      </trkpt>
      <trkpt lat="48.73375" lon="-3.28094">
        <ele>-11</ele>
        <time>2015-10-31T15:18:03Z</time>
      </trkpt>
      <trkpt lat="48.7339" lon="-3.28093">
        <ele>-12</ele>
        <time>2015-10-31T15:18:05Z</time>
      </trkpt>
      <trkpt lat="48.73406" lon="-3.28092">
        <ele>-13</ele>
        <time>2015-10-31T15:18:07Z</time>
      </trkpt>
      <trkpt lat="48.73427" lon="-3.2809">
        <ele>-15</ele>
        <time>2015-10-31T15:18:10Z</time>
      </trkpt>
      <trkpt lat="48.73445" lon="-3.28088">
        <ele>-16</ele>
        <time>2015-10-31T15:18:13Z</time>
      </trkpt>
      <trkpt lat="48.73462" lon="-3.28089">
        <ele>-18</ele>
        <time>2015-10-31T15:18:17Z</time>
      </trkpt>
      <trkpt lat="48.73474" lon="-3.28088">
        <ele>-20</ele>
        <time>2015-10-31T15:18:21Z</time>
      </trkpt>
      <trkpt lat="48.73491" lon="-3.28086">
        <ele>-22</ele>
        <time>2015-10-31T15:18:28Z</time>
      </trkpt>
      <trkpt lat="48.73507" lon="-3.28079">
        <ele>-24</ele>
        <time>2015-10-31T15:18:36Z</time>
      </trkpt>
      <trkpt lat="48.73522" lon="-3.28067">
        <ele>-26</ele>
        <time>2015-10-31T15:18:46Z</time>
      </trkpt>
      <trkpt lat="48.73536" lon="-3.28054">
        <ele>-28</ele>
        <time>2015-10-31T15:18:56Z</time>
      </trkpt>
      <trkpt lat="48.73549" lon="-3.28044">
        <ele>-30</ele>
        <time>2015-10-31T15:19:06Z</time>
      </trkpt>
      <trkpt lat="48.73564" lon="-3.28034">
        <ele>-32</ele>
        <time>2015-10-31T15:19:13Z</time>
      </trkpt>
      <trkpt lat="48.7358" lon="-3.2803">
        <ele>-32</ele>
        <time>2015-10-31T15:19:20Z</time>
      </trkpt>
      <trkpt lat="48.73597" lon="-3.2803">
        <ele>-33</ele>
        <time>2015-10-31T15:19:26Z</time>
      </trkpt>
      <trkpt lat="48.73613" lon="-3.28032">
        <ele>-33</ele>
        <time>2015-10-31T15:19:32Z</time>
      </trkpt>
      <trkpt lat="48.73623" lon="-3.28034">
        <ele>-33</ele>
        <time>2015-10-31T15:19:36Z</time>
      </trkpt>
      <trkpt lat="48.7364" lon="-3.28037">
        <ele>-33</ele>
        <time>2015-10-31T15:19:42Z</time>
      </trkpt>
      <trkpt lat="48.73663" lon="-3.28039">
        <ele>-33</ele>
        <time>2015-10-31T15:19:51Z</time>
      </trkpt>
      <trkpt lat="48.7368" lon="-3.28038">
        <ele>-33</ele>
        <time>2015-10-31T15:19:57Z</time>
      </trkpt>
      <trkpt lat="48.73695" lon="-3.28035">
        <ele>-32</ele>
        <time>2015-10-31T15:20:03Z</time>
      </trkpt>
      <trkpt lat="48.73713" lon="-3.28034">
        <ele>-32</ele>
        <time>2015-10-31T15:20:10Z</time>
      </trkpt>
      <trkpt lat="48.73729" lon="-3.28034">
        <ele>-31</ele>
        <time>2015-10-31T15:20:17Z</time>
      </trkpt>
      <trkpt lat="48.73744" lon="-3.28036">
        <ele>-31</ele>
        <time>2015-10-31T15:20:24Z</time>
      </trkpt>
      <trkpt lat="48.73765" lon="-3.28042">
        <ele>-30</ele>
        <time>2015-10-31T15:20:34Z</time>
      </trkpt>
      <trkpt lat="48.73776" lon="-3.28045">
        <ele>-30</ele>
        <time>2015-10-31T15:20:39Z</time>
      </trkpt>
      <trkpt lat="48.73789" lon="-3.28048">
        <ele>-30</ele>
        <time>2015-10-31T15:20:45Z</time>
      </trkpt>
      <trkpt lat="48.73802" lon="-3.28053">
        <ele>-29</ele>
        <time>2015-10-31T15:20:50Z</time>
      </trkpt>
      <trkpt lat="48.73811" lon="-3.28057">
        <ele>-28</ele>
        <time>2015-10-31T15:20:53Z</time>
      </trkpt>
      <trkpt lat="48.73821" lon="-3.2806">
        <ele>-28</ele>
        <time>2015-10-31T15:20:56Z</time>
      </trkpt>
      <trkpt lat="48.7384" lon="-3.28067">
        <ele>-27</ele>
        <time>2015-10-31T15:21:01Z</time>
      </trkpt>
      <trkpt lat="48.73856" lon="-3.28073">
        <ele>-27</ele>
        <time>2015-10-31T15:21:05Z</time>
      </trkpt>
      <trkpt lat="48.73873" lon="-3.28078">
        <ele>-26</ele>
        <time>2015-10-31T15:21:09Z</time>
      </trkpt>
      <trkpt lat="48.73908" lon="-3.28084">
        <ele>-26</ele>
        <time>2015-10-31T15:21:17Z</time>
      </trkpt>
      <trkpt lat="48.73925" lon="-3.28086">
        <ele>-25</ele>
        <time>2015-10-31T15:21:21Z</time>
      </trkpt>
      <trkpt lat="48.73946" lon="-3.28087">
        <ele>-25</ele>
        <time>2015-10-31T15:21:25Z</time>
      </trkpt>
      <trkpt lat="48.73963" lon="-3.28087">
        <ele>-25</ele>
        <time>2015-10-31T15:21:28Z</time>
      </trkpt>
      <trkpt lat="48.73981" lon="-3.28086">
        <ele>-24</ele>
        <time>2015-10-31T15:21:31Z</time>
      </trkpt>
      <trkpt lat="48.73993" lon="-3.28085">
        <ele>-24</ele>
        <time>2015-10-31T15:21:33Z</time>
      </trkpt>
      <trkpt lat="48.74005" lon="-3.28085">
        <ele>-23</ele>
        <time>2015-10-31T15:21:35Z</time>
      </trkpt>
      <trkpt lat="48.74023" lon="-3.28086">
        <ele>-23</ele>
        <time>2015-10-31T15:21:38Z</time>
      </trkpt>
      <trkpt lat="48.74041" lon="-3.28086">
        <ele>-22</ele>
        <time>2015-10-31T15:21:41Z</time>
      </trkpt>
      <trkpt lat="48.74059" lon="-3.28086">
        <ele>-22</ele>
        <time>2015-10-31T15:21:44Z</time>
      </trkpt>
      <trkpt lat="48.74071" lon="-3.28087">
        <ele>-22</ele>
        <time>2015-10-31T15:21:46Z</time>
      </trkpt>
      <trkpt lat="48.74088" lon="-3.28087">
        <ele>-21</ele>
        <time>2015-10-31T15:21:49Z</time>
      </trkpt>
      <trkpt lat="48.74104" lon="-3.28088">
        <ele>-21</ele>
        <time>2015-10-31T15:21:52Z</time>
      </trkpt>
      <trkpt lat="48.7412" lon="-3.2809">
        <ele>-21</ele>
        <time>2015-10-31T15:21:55Z</time>
      </trkpt>
      <trkpt lat="48.74136" lon="-3.28093">
        <ele>-20</ele>
        <time>2015-10-31T15:21:58Z</time>
      </trkpt>
      <trkpt lat="48.74146" lon="-3.28094">
        <ele>-20</ele>
        <time>2015-10-31T15:22:00Z</time>
      </trkpt>
      <trkpt lat="48.74162" lon="-3.28096">
        <ele>-20</ele>
        <time>2015-10-31T15:22:03Z</time>
      </trkpt>
      <trkpt lat="48.74173" lon="-3.28096">
        <ele>-19</ele>
        <time>2015-10-31T15:22:05Z</time>
      </trkpt>
      <trkpt lat="48.74189" lon="-3.28096">
        <ele>-19</ele>
        <time>2015-10-31T15:22:08Z</time>
      </trkpt>
      <trkpt lat="48.74204" lon="-3.28097">
        <ele>-19</ele>
        <time>2015-10-31T15:22:11Z</time>
      </trkpt>
      <trkpt lat="48.74225" lon="-3.28097">
        <ele>-18</ele>
        <time>2015-10-31T15:22:15Z</time>
      </trkpt>
      <trkpt lat="48.74245" lon="-3.28094">
        <ele>-18</ele>
        <time>2015-10-31T15:22:19Z</time>
      </trkpt>
      <trkpt lat="48.74261" lon="-3.2809">
        <ele>-18</ele>
        <time>2015-10-31T15:22:22Z</time>
      </trkpt>
      <trkpt lat="48.74278" lon="-3.28084">
        <ele>-18</ele>
        <time>2015-10-31T15:22:25Z</time>
      </trkpt>
      <trkpt lat="48.74289" lon="-3.28082">
        <ele>-18</ele>
        <time>2015-10-31T15:22:27Z</time>
      </trkpt>
      <trkpt lat="48.74299" lon="-3.2808">
        <ele>-18</ele>
        <time>2015-10-31T15:22:29Z</time>
      </trkpt>
      <trkpt lat="48.74318" lon="-3.28078">
        <ele>-18</ele>
        <time>2015-10-31T15:22:33Z</time>
      </trkpt>
      <trkpt lat="48.74335" lon="-3.28077">
        <ele>-18</ele>
        <time>2015-10-31T15:22:37Z</time>
      </trkpt>
      <trkpt lat="48.74351" lon="-3.28078">
        <ele>-18</ele>
        <time>2015-10-31T15:22:41Z</time>
      </trkpt>
      <trkpt lat="48.74366" lon="-3.28079">
        <ele>-18</ele>
        <time>2015-10-31T15:22:45Z</time>
      </trkpt>
      <trkpt lat="48.74383" lon="-3.28082">
        <ele>-18</ele>
        <time>2015-10-31T15:22:49Z</time>
      </trkpt>
      <trkpt lat="48.744" lon="-3.28084">
        <ele>-18</ele>
        <time>2015-10-31T15:22:53Z</time>
      </trkpt>
      <trkpt lat="48.74419" lon="-3.28085">
        <ele>-18</ele>
        <time>2015-10-31T15:22:57Z</time>
      </trkpt>
      <trkpt lat="48.74437" lon="-3.28086">
        <ele>-18</ele>
        <time>2015-10-31T15:23:01Z</time>
      </trkpt>
      <trkpt lat="48.74447" lon="-3.28087">
        <ele>-18</ele>
        <time>2015-10-31T15:23:03Z</time>
      </trkpt>
      <trkpt lat="48.74467" lon="-3.28092">
        <ele>-18</ele>
        <time>2015-10-31T15:23:07Z</time>
      </trkpt>
      <trkpt lat="48.74477" lon="-3.28096">
        <ele>-18</ele>
        <time>2015-10-31T15:23:09Z</time>
      </trkpt>
      <trkpt lat="48.74487" lon="-3.281">
        <ele>-18</ele>
        <time>2015-10-31T15:23:11Z</time>
      </trkpt>
      <trkpt lat="48.74502" lon="-3.28109">
        <ele>-19</ele>
        <time>2015-10-31T15:23:14Z</time>
      </trkpt>
      <trkpt lat="48.74513" lon="-3.28115">
        <ele>-18</ele>
        <time>2015-10-31T15:23:16Z</time>
      </trkpt>
      <trkpt lat="48.74528" lon="-3.28124">
        <ele>-18</ele>
        <time>2015-10-31T15:23:19Z</time>
      </trkpt>
      <trkpt lat="48.74539" lon="-3.28129">
        <ele>-18</ele>
        <time>2015-10-31T15:23:21Z</time>
      </trkpt>
      <trkpt lat="48.74551" lon="-3.28135">
        <ele>-18</ele>
        <time>2015-10-31T15:23:23Z</time>
      </trkpt>
      <trkpt lat="48.7457" lon="-3.28144">
        <ele>-18</ele>
        <time>2015-10-31T15:23:26Z</time>
      </trkpt>
      <trkpt lat="48.74589" lon="-3.28151">
        <ele>-18</ele>
        <time>2015-10-31T15:23:29Z</time>
      </trkpt>
      <trkpt lat="48.74602" lon="-3.28154">
        <ele>-18</ele>
        <time>2015-10-31T15:23:31Z</time>
      </trkpt>
      <trkpt lat="48.74621" lon="-3.28155">
        <ele>-18</ele>
        <time>2015-10-31T15:23:34Z</time>
      </trkpt>
      <trkpt lat="48.7464" lon="-3.28155">
        <ele>-18</ele>
        <time>2015-10-31T15:23:37Z</time>
      </trkpt>
      <trkpt lat="48.74652" lon="-3.28156">
        <ele>-18</ele>
        <time>2015-10-31T15:23:39Z</time>
      </trkpt>
      <trkpt lat="48.7467" lon="-3.28159">
        <ele>-17</ele>
        <time>2015-10-31T15:23:42Z</time>
      </trkpt>
      <trkpt lat="48.74682" lon="-3.28163">
        <ele>-17</ele>
        <time>2015-10-31T15:23:44Z</time>
      </trkpt>
      <trkpt lat="48.74698" lon="-3.28171">
        <ele>-17</ele>
        <time>2015-10-31T15:23:47Z</time>
      </trkpt>
      <trkpt lat="48.74709" lon="-3.28178">
        <ele>-17</ele>
        <time>2015-10-31T15:23:49Z</time>
      </trkpt>
      <trkpt lat="48.7472" lon="-3.28185">
        <ele>-17</ele>
        <time>2015-10-31T15:23:51Z</time>
      </trkpt>
      <trkpt lat="48.74736" lon="-3.28196">
        <ele>-17</ele>
        <time>2015-10-31T15:23:54Z</time>
      </trkpt>
      <trkpt lat="48.74747" lon="-3.28202">
        <ele>-17</ele>
        <time>2015-10-31T15:23:56Z</time>
      </trkpt>
      <trkpt lat="48.74758" lon="-3.28208">
        <ele>-16</ele>
        <time>2015-10-31T15:23:58Z</time>
      </trkpt>
      <trkpt lat="48.7477" lon="-3.2821">
        <ele>-16</ele>
        <time>2015-10-31T15:24:00Z</time>
      </trkpt>
      <trkpt lat="48.74787" lon="-3.28212">
        <ele>-16</ele>
        <time>2015-10-31T15:24:03Z</time>
      </trkpt>
      <trkpt lat="48.74806" lon="-3.28212">
        <ele>-16</ele>
        <time>2015-10-31T15:24:07Z</time>
      </trkpt>
      <trkpt lat="48.74819" lon="-3.28212">
        <ele>-16</ele>
        <time>2015-10-31T15:24:10Z</time>
      </trkpt>
      <trkpt lat="48.74827" lon="-3.28211">
        <ele>-16</ele>
        <time>2015-10-31T15:24:12Z</time>
      </trkpt>
      <trkpt lat="48.74843" lon="-3.28211">
        <ele>-16</ele>
        <time>2015-10-31T15:24:16Z</time>
      </trkpt>
      <trkpt lat="48.74855" lon="-3.2821">
        <ele>-17</ele>
        <time>2015-10-31T15:24:19Z</time>
      </trkpt>
      <trkpt lat="48.74867" lon="-3.2821">
        <ele>-17</ele>
        <time>2015-10-31T15:24:22Z</time>
      </trkpt>
      <trkpt lat="48.74886" lon="-3.2821">
        <ele>-17</ele>
        <time>2015-10-31T15:24:26Z</time>
      </trkpt>
      <trkpt lat="48.74902" lon="-3.2821">
        <ele>-17</ele>
        <time>2015-10-31T15:24:29Z</time>
      </trkpt>
      <trkpt lat="48.74914" lon="-3.2821">
        <ele>-17</ele>
        <time>2015-10-31T15:24:31Z</time>
      </trkpt>
      <trkpt lat="48.74925" lon="-3.2821">
        <ele>-17</ele>
        <time>2015-10-31T15:24:33Z</time>
      </trkpt>
      <trkpt lat="48.74942" lon="-3.28209">
        <ele>-17</ele>
        <time>2015-10-31T15:24:36Z</time>
      </trkpt>
      <trkpt lat="48.74958" lon="-3.28209">
        <ele>-17</ele>
        <time>2015-10-31T15:24:39Z</time>
      </trkpt>
      <trkpt lat="48.74974" lon="-3.28208">
        <ele>-17</ele>
        <time>2015-10-31T15:24:42Z</time>
      </trkpt>
      <trkpt lat="48.74983" lon="-3.28208">
        <ele>-17</ele>
        <time>2015-10-31T15:24:44Z</time>
      </trkpt>
      <trkpt lat="48.74996" lon="-3.28208">
        <ele>-16</ele>
        <time>2015-10-31T15:24:49Z</time>
      </trkpt>
      <trkpt lat="48.74996" lon="-3.28229">
        <ele>-16</ele>
        <time>2015-10-31T15:24:58Z</time>
      </trkpt>
      <trkpt lat="48.74992" lon="-3.2824">
        <ele>-16</ele>
        <time>2015-10-31T15:25:00Z</time>
      </trkpt>
      <trkpt lat="48.74987" lon="-3.28255">
        <ele>-16</ele>
        <time>2015-10-31T15:25:03Z</time>
      </trkpt>
      <trkpt lat="48.74979" lon="-3.28278">
        <ele>-16</ele>
        <time>2015-10-31T15:25:08Z</time>
      </trkpt>
      <trkpt lat="48.74971" lon="-3.28299">
        <ele>-16</ele>
        <time>2015-10-31T15:25:12Z</time>
      </trkpt>
      <trkpt lat="48.74968" lon="-3.28311">
        <ele>-16</ele>
        <time>2015-10-31T15:25:14Z</time>
      </trkpt>
      <trkpt lat="48.74964" lon="-3.28324">
        <ele>-16</ele>
        <time>2015-10-31T15:25:16Z</time>
      </trkpt>
      <trkpt lat="48.74958" lon="-3.28345">
        <ele>-16</ele>
        <time>2015-10-31T15:25:19Z</time>
      </trkpt>
      <trkpt lat="48.74954" lon="-3.28358">
        <ele>-15</ele>
        <time>2015-10-31T15:25:21Z</time>
      </trkpt>
      <trkpt lat="48.74945" lon="-3.28386">
        <ele>-15</ele>
        <time>2015-10-31T15:25:25Z</time>
      </trkpt>
      <trkpt lat="48.7494" lon="-3.284">
        <ele>-15</ele>
        <time>2015-10-31T15:25:27Z</time>
      </trkpt>
      <trkpt lat="48.74931" lon="-3.28427">
        <ele>-15</ele>
        <time>2015-10-31T15:25:31Z</time>
      </trkpt>
      <trkpt lat="48.74924" lon="-3.28449">
        <ele>-15</ele>
        <time>2015-10-31T15:25:34Z</time>
      </trkpt>
      <trkpt lat="48.74919" lon="-3.28463">
        <ele>-15</ele>
        <time>2015-10-31T15:25:36Z</time>
      </trkpt>
      <trkpt lat="48.74914" lon="-3.28485">
        <ele>-15</ele>
        <time>2015-10-31T15:25:39Z</time>
      </trkpt>
      <trkpt lat="48.74907" lon="-3.2852">
        <ele>-15</ele>
        <time>2015-10-31T15:25:44Z</time>
      </trkpt>
      <trkpt lat="48.74904" lon="-3.28537">
        <ele>-15</ele>
        <time>2015-10-31T15:25:47Z</time>
      </trkpt>
      <trkpt lat="48.74897" lon="-3.28538">
        <ele>-16</ele>
        <time>2015-10-31T15:25:58Z</time>
      </trkpt>
      <trkpt lat="48.74904" lon="-3.28511">
        <ele>-17</ele>
        <time>2015-10-31T15:26:03Z</time>
      </trkpt>
      <trkpt lat="48.74909" lon="-3.28484">
        <ele>-17</ele>
        <time>2015-10-31T15:26:08Z</time>
      </trkpt>
      <trkpt lat="48.74919" lon="-3.2845">
        <ele>-18</ele>
        <time>2015-10-31T15:26:13Z</time>
      </trkpt>
      <trkpt lat="48.74927" lon="-3.28426">
        <ele>-18</ele>
        <time>2015-10-31T15:26:16Z</time>
      </trkpt>
      <trkpt lat="48.74935" lon="-3.28403">
        <ele>-19</ele>
        <time>2015-10-31T15:26:19Z</time>
      </trkpt>
      <trkpt lat="48.74944" lon="-3.28379">
        <ele>-19</ele>
        <time>2015-10-31T15:26:22Z</time>
      </trkpt>
      <trkpt lat="48.74952" lon="-3.28354">
        <ele>-20</ele>
        <time>2015-10-31T15:26:25Z</time>
      </trkpt>
      <trkpt lat="48.7496" lon="-3.28329">
        <ele>-20</ele>
        <time>2015-10-31T15:26:28Z</time>
      </trkpt>
      <trkpt lat="48.74969" lon="-3.28305">
        <ele>-21</ele>
        <time>2015-10-31T15:26:31Z</time>
      </trkpt>
      <trkpt lat="48.74976" lon="-3.28283">
        <ele>-21</ele>
        <time>2015-10-31T15:26:34Z</time>
      </trkpt>
      <trkpt lat="48.74982" lon="-3.28259">
        <ele>-21</ele>
        <time>2015-10-31T15:26:39Z</time>
      </trkpt>
      <trkpt lat="48.74988" lon="-3.28241">
        <ele>-20</ele>
        <time>2015-10-31T15:26:44Z</time>
      </trkpt>
      <trkpt lat="48.74993" lon="-3.28221">
        <ele>-20</ele>
        <time>2015-10-31T15:26:49Z</time>
      </trkpt>
      <trkpt lat="48.75006" lon="-3.28199">
        <ele>-21</ele>
        <time>2015-10-31T15:26:57Z</time>
      </trkpt>
      <trkpt lat="48.75012" lon="-3.28203">
        <ele>-21</ele>
        <time>2015-10-31T15:27:15Z</time>
      </trkpt>
      <trkpt lat="48.75" lon="-3.28222">
        <ele>-22</ele>
        <time>2015-10-31T15:27:19Z</time>
      </trkpt>
      <trkpt lat="48.74993" lon="-3.28237">
        <ele>-22</ele>
        <time>2015-10-31T15:27:22Z</time>
      </trkpt>
      <trkpt lat="48.74985" lon="-3.28259">
        <ele>-22</ele>
        <time>2015-10-31T15:27:26Z</time>
      </trkpt>
      <trkpt lat="48.74981" lon="-3.2827">
        <ele>-23</ele>
        <time>2015-10-31T15:27:28Z</time>
      </trkpt>
      <trkpt lat="48.74977" lon="-3.28282">
        <ele>-23</ele>
        <time>2015-10-31T15:27:30Z</time>
      </trkpt>
      <trkpt lat="48.74968" lon="-3.28307">
        <ele>-23</ele>
        <time>2015-10-31T15:27:34Z</time>
      </trkpt>
      <trkpt lat="48.74964" lon="-3.2832">
        <ele>-23</ele>
        <time>2015-10-31T15:27:36Z</time>
      </trkpt>
      <trkpt lat="48.7496" lon="-3.28334">
        <ele>-23</ele>
        <time>2015-10-31T15:27:38Z</time>
      </trkpt>
      <trkpt lat="48.74956" lon="-3.28348">
        <ele>-23</ele>
        <time>2015-10-31T15:27:40Z</time>
      </trkpt>
      <trkpt lat="48.7495" lon="-3.28368">
        <ele>-23</ele>
        <time>2015-10-31T15:27:43Z</time>
      </trkpt>
      <trkpt lat="48.74943" lon="-3.2839">
        <ele>-23</ele>
        <time>2015-10-31T15:27:46Z</time>
      </trkpt>
      <trkpt lat="48.74936" lon="-3.28411">
        <ele>-23</ele>
        <time>2015-10-31T15:27:49Z</time>
      </trkpt>
      <trkpt lat="48.74931" lon="-3.28425">
        <ele>-23</ele>
        <time>2015-10-31T15:27:51Z</time>
      </trkpt>
      <trkpt lat="48.74927" lon="-3.2844">
        <ele>-23</ele>
        <time>2015-10-31T15:27:53Z</time>
      </trkpt>
      <trkpt lat="48.74922" lon="-3.28454">
        <ele>-23</ele>
        <time>2015-10-31T15:27:55Z</time>
      </trkpt>
      <trkpt lat="48.74914" lon="-3.28482">
        <ele>-23</ele>
        <time>2015-10-31T15:27:59Z</time>
      </trkpt>
      <trkpt lat="48.74906" lon="-3.28517">
        <ele>-23</ele>
        <time>2015-10-31T15:28:04Z</time>
      </trkpt>
      <trkpt lat="48.74903" lon="-3.28537">
        <ele>-23</ele>
        <time>2015-10-31T15:28:07Z</time>
      </trkpt>
      <trkpt lat="48.749" lon="-3.28551">
        <ele>-23</ele>
        <time>2015-10-31T15:28:09Z</time>
      </trkpt>
      <trkpt lat="48.74897" lon="-3.28566">
        <ele>-23</ele>
        <time>2015-10-31T15:28:11Z</time>
      </trkpt>
      <trkpt lat="48.74895" lon="-3.28582">
        <ele>-23</ele>
        <time>2015-10-31T15:28:13Z</time>
      </trkpt>
      <trkpt lat="48.74893" lon="-3.28599">
        <ele>-23</ele>
        <time>2015-10-31T15:28:15Z</time>
      </trkpt>
      <trkpt lat="48.74888" lon="-3.28626">
        <ele>-23</ele>
        <time>2015-10-31T15:28:18Z</time>
      </trkpt>
      <trkpt lat="48.74883" lon="-3.28654">
        <ele>-23</ele>
        <time>2015-10-31T15:28:21Z</time>
      </trkpt>
      <trkpt lat="48.7488" lon="-3.28672">
        <ele>-23</ele>
        <time>2015-10-31T15:28:23Z</time>
      </trkpt>
      <trkpt lat="48.74876" lon="-3.28691">
        <ele>-23</ele>
        <time>2015-10-31T15:28:25Z</time>
      </trkpt>
      <trkpt lat="48.7487" lon="-3.2872">
        <ele>-23</ele>
        <time>2015-10-31T15:28:28Z</time>
      </trkpt>
      <trkpt lat="48.74864" lon="-3.28741">
        <ele>-23</ele>
        <time>2015-10-31T15:28:30Z</time>
      </trkpt>
      <trkpt lat="48.74856" lon="-3.28772">
        <ele>-23</ele>
        <time>2015-10-31T15:28:33Z</time>
      </trkpt>
      <trkpt lat="48.74847" lon="-3.28804">
        <ele>-22</ele>
        <time>2015-10-31T15:28:36Z</time>
      </trkpt>
      <trkpt lat="48.74842" lon="-3.28827">
        <ele>-22</ele>
        <time>2015-10-31T15:28:38Z</time>
      </trkpt>
      <trkpt lat="48.74839" lon="-3.28853">
        <ele>-22</ele>
        <time>2015-10-31T15:28:40Z</time>
      </trkpt>
      <trkpt lat="48.74837" lon="-3.28879">
        <ele>-22</ele>
        <time>2015-10-31T15:28:42Z</time>
      </trkpt>
      <trkpt lat="48.7484" lon="-3.28903">
        <ele>-22</ele>
        <time>2015-10-31T15:28:44Z</time>
      </trkpt>
      <trkpt lat="48.74846" lon="-3.28925">
        <ele>-22</ele>
        <time>2015-10-31T15:28:46Z</time>
      </trkpt>
      <trkpt lat="48.74852" lon="-3.28946">
        <ele>-22</ele>
        <time>2015-10-31T15:28:48Z</time>
      </trkpt>
      <trkpt lat="48.74863" lon="-3.28975">
        <ele>-22</ele>
        <time>2015-10-31T15:28:51Z</time>
      </trkpt>
      <trkpt lat="48.74869" lon="-3.29001">
        <ele>-23</ele>
        <time>2015-10-31T15:28:54Z</time>
      </trkpt>
      <trkpt lat="48.74873" lon="-3.2903">
        <ele>-23</ele>
        <time>2015-10-31T15:28:58Z</time>
      </trkpt>
      <trkpt lat="48.74877" lon="-3.29054">
        <ele>-24</ele>
        <time>2015-10-31T15:29:02Z</time>
      </trkpt>
      <trkpt lat="48.74881" lon="-3.29092">
        <ele>-24</ele>
        <time>2015-10-31T15:29:09Z</time>
      </trkpt>
      <trkpt lat="48.74883" lon="-3.29116">
        <ele>-24</ele>
        <time>2015-10-31T15:29:14Z</time>
      </trkpt>
      <trkpt lat="48.74883" lon="-3.29148">
        <ele>-25</ele>
        <time>2015-10-31T15:29:21Z</time>
      </trkpt>
      <trkpt lat="48.74881" lon="-3.29195">
        <ele>-25</ele>
        <time>2015-10-31T15:29:30Z</time>
      </trkpt>
      <trkpt lat="48.74879" lon="-3.29211">
        <ele>-25</ele>
        <time>2015-10-31T15:29:33Z</time>
      </trkpt>
      <trkpt lat="48.74876" lon="-3.2923">
        <ele>-25</ele>
        <time>2015-10-31T15:29:37Z</time>
      </trkpt>
      <trkpt lat="48.74873" lon="-3.29249">
        <ele>-25</ele>
        <time>2015-10-31T15:29:41Z</time>
      </trkpt>
      <trkpt lat="48.74868" lon="-3.29273">
        <ele>-25</ele>
        <time>2015-10-31T15:29:46Z</time>
      </trkpt>
      <trkpt lat="48.74861" lon="-3.29304">
        <ele>-25</ele>
        <time>2015-10-31T15:29:52Z</time>
      </trkpt>
      <trkpt lat="48.74857" lon="-3.2932">
        <ele>-25</ele>
        <time>2015-10-31T15:29:55Z</time>
      </trkpt>
      <trkpt lat="48.74853" lon="-3.29337">
        <ele>-24</ele>
        <time>2015-10-31T15:29:58Z</time>
      </trkpt>
      <trkpt lat="48.74847" lon="-3.2936">
        <ele>-24</ele>
        <time>2015-10-31T15:30:02Z</time>
      </trkpt>
      <trkpt lat="48.74843" lon="-3.29384">
        <ele>-24</ele>
        <time>2015-10-31T15:30:06Z</time>
      </trkpt>
      <trkpt lat="48.74841" lon="-3.29407">
        <ele>-23</ele>
        <time>2015-10-31T15:30:10Z</time>
      </trkpt>
      <trkpt lat="48.7484" lon="-3.29424">
        <ele>-23</ele>
        <time>2015-10-31T15:30:13Z</time>
      </trkpt>
      <trkpt lat="48.74839" lon="-3.2944">
        <ele>-22</ele>
        <time>2015-10-31T15:30:16Z</time>
      </trkpt>
      <trkpt lat="48.74838" lon="-3.29467">
        <ele>-22</ele>
        <time>2015-10-31T15:30:21Z</time>
      </trkpt>
      <trkpt lat="48.74838" lon="-3.29494">
        <ele>-22</ele>
        <time>2015-10-31T15:30:26Z</time>
      </trkpt>
      <trkpt lat="48.74837" lon="-3.29511">
        <ele>-21</ele>
        <time>2015-10-31T15:30:29Z</time>
      </trkpt>
      <trkpt lat="48.74834" lon="-3.29535">
        <ele>-21</ele>
        <time>2015-10-31T15:30:33Z</time>
      </trkpt>
      <trkpt lat="48.74831" lon="-3.29553">
        <ele>-21</ele>
        <time>2015-10-31T15:30:36Z</time>
      </trkpt>
      <trkpt lat="48.74828" lon="-3.2957">
        <ele>-21</ele>
        <time>2015-10-31T15:30:39Z</time>
      </trkpt>
      <trkpt lat="48.74823" lon="-3.29596">
        <ele>-20</ele>
        <time>2015-10-31T15:30:44Z</time>
      </trkpt>
      <trkpt lat="48.7482" lon="-3.29612">
        <ele>-20</ele>
        <time>2015-10-31T15:30:47Z</time>
      </trkpt>
      <trkpt lat="48.74816" lon="-3.29635">
        <ele>-19</ele>
        <time>2015-10-31T15:30:51Z</time>
      </trkpt>
      <trkpt lat="48.74813" lon="-3.29652">
        <ele>-19</ele>
        <time>2015-10-31T15:30:54Z</time>
      </trkpt>
      <trkpt lat="48.7481" lon="-3.29664">
        <ele>-18</ele>
        <time>2015-10-31T15:30:56Z</time>
      </trkpt>
      <trkpt lat="48.74806" lon="-3.29688">
        <ele>-18</ele>
        <time>2015-10-31T15:31:00Z</time>
      </trkpt>
      <trkpt lat="48.74804" lon="-3.29701">
        <ele>-18</ele>
        <time>2015-10-31T15:31:02Z</time>
      </trkpt>
      <trkpt lat="48.74802" lon="-3.29719">
        <ele>-17</ele>
        <time>2015-10-31T15:31:05Z</time>
      </trkpt>
      <trkpt lat="48.748" lon="-3.29737">
        <ele>-17</ele>
        <time>2015-10-31T15:31:08Z</time>
      </trkpt>
      <trkpt lat="48.74799" lon="-3.29765">
        <ele>-17</ele>
        <time>2015-10-31T15:31:12Z</time>
      </trkpt>
      <trkpt lat="48.748" lon="-3.29793">
        <ele>-17</ele>
        <time>2015-10-31T15:31:16Z</time>
      </trkpt>
      <trkpt lat="48.74801" lon="-3.29808">
        <ele>-17</ele>
        <time>2015-10-31T15:31:18Z</time>
      </trkpt>
      <trkpt lat="48.74805" lon="-3.29846">
        <ele>-17</ele>
        <time>2015-10-31T15:31:23Z</time>
      </trkpt>
      <trkpt lat="48.74811" lon="-3.29895">
        <ele>-16</ele>
        <time>2015-10-31T15:31:29Z</time>
      </trkpt>
    </trkseg>
  </trk>
</gpx>